[[{"header":{"parameterUnit":"m.s-1","parameterCategory":1,"la1":31.0,"la2":29.5877,"lo1":-88.7671,"lo2":-86.6584,"dy":0.0162,"dx":0.0185,"nx":115,"ny":88,"refTime":"2024-02-14T06:00:00:Z","depth":0,"parameterNumber":2,"parameterNumberName":"U-component_of_WINDS"},"data":[0.0,0.0,0.0,0.0,0.0,0.0,0.0,0.0,0.0,0.0,0.0,0.0,0.0,0.0,0.0,0.0,0.0,0.0,0.0,0.0,0.0,0.0,0.0,0.0,0.0,0.0,0.0,0.0,0.0,0.0,0.0,0.0,0.0,0.0,0.0,0.0,0.0,0.0,0.0,0.0,0.0,0.0,0.0,0.0,0.0,0.0,0.0,0.0,0.0,0.0,0.0,0.0,0.0,0.0,0.0,0.0,0.0,0.0,0.0,0.0,0.0,0.0,0.0,0.0,0.0,0.0,0.0,0.0,0.0,0.0,0.0,0.0,0.0,0.0,0.0,0.0,0.0,0.0,0.0,0.0,0.0,0.0,0.0,0.0,0.0,0.0,0.0,0.0,0.0,0.0,0.0,0.0,0.0,0.0,0.0,0.0,0.0,0.0,0.0,0.0,0.0,0.0,0.0,0.0,0.0,0.0,0.0,0.0,0.0,0.0,0.0,0.0,0.0,0.0,0.0,0.0,0.0,0.0,0.0,0.0,0.0,0.0,0.0,0.0,0.0,0.0,0.0,0.0,0.0,0.0,0.0,0.0,0.0,0.0,0.0,0.0,0.0,0.0,0.0,0.0,0.0,0.0,0.0,0.0,0.0,0.0,0.0,0.0,0.0,0.0,0.0,0.0,0.0,0.0,0.0,0.0,0.0,0.0,0.0,0.0,0.0,0.0,0.0,0.0,0.0,0.0,0.0,0.0,0.0,0.0,0.0,0.0,0.0,0.0,0.0,0.0,0.0,0.0,0.0,0.0,0.0,0.0,0.0,0.0,0.0,0.0,0.0,0.0,0.0,0.0,0.0,0.0,0.0,0.0,0.0,0.0,0.0,0.0,0.0,0.0,0.0,0.0,0.0,0.0,0.0,0.0,0.0,0.0,0.0,0.0,0.0,0.0,0.0,0.0,0.0,0.0,0.0,0.0,0.0,0.0,0.0,0.0,0.0,0.0,0.0,0.0,0.0,0.0,0.0,0.0,0.0,0.0,0.0,0.0,0.0,0.0,0.0,0.0,0.0,0.0,0.0,0.0,0.0,0.0,0.0,0.0,0.0,0.0,0.0,0.0,0.0,0.0,0.0,0.0,0.0,0.0,0.0,0.0,0.0,0.0,0.0,0.0,0.0,0.0,0.0,0.0,0.0,0.0,0.0,0.0,0.0,0.0,0.0,0.0,0.0,0.0,0.0,0.0,0.0,0.0,0.0,0.0,0.0,0.0,0.0,0.0,0.0,0.0,0.0,0.0,0.0,0.0,0.0,0.0,0.0,0.0,0.0,0.0,0.0,0.0,0.0,0.0,0.0,0.0,0.0,0.0,0.0,0.0,0.0,0.0,0.0,0.0,0.0,0.0,0.0,0.0,0.0,0.0,0.0,0.0,0.0,0.0,0.0,0.0,0.0,0.0,0.0,0.0,0.0,0.0,0.0,0.0,0.0,0.0,0.0,0.0,0.0,0.0,0.0,0.0,0.0,0.0,0.0,0.0,0.0,0.0,0.0,0.0,0.0,0.0,0.0,0.0,0.0,0.0,0.0,0.0,0.0,0.0,0.0,0.0,0.0,0.0,0.0,0.0,0.0,0.0,0.0,0.0,0.0,0.0,0.0,0.0,0.0,0.0,0.0,0.0,0.0,0.0,0.0,0.0,0.0,0.0,0.0,0.0,0.0,0.0,0.0,0.0,0.0,0.0,0.0,0.0,0.0,0.0,0.0,0.0,0.0,0.0,0.0,0.0,0.0,0.0,0.0,0.0,0.0,0.0,0.0,0.0,0.0,0.0,0.0,0.0,0.0,0.0,0.0,0.0,0.0,0.0,0.0,0.0,0.0,0.0,0.0,0.0,0.0,0.0,0.0,0.0,0.0,0.0,0.0,0.0,0.0,0.0,0.0,0.0,0.0,0.0,0.0,0.0,0.0,0.0,0.0,0.0,0.0,0.0,0.0,0.0,0.0,0.0,0.0,0.0,0.0,0.0,0.0,0.0,0.0,0.0,0.0,0.0,0.0,0.0,0.0,0.0,0.0,0.0,0.0,0.0,0.0,0.0,0.0,0.0,0.0,0.0,0.0,0.0,0.0,0.0,0.0,0.0,0.0,0.0,0.0,0.0,0.0,0.0,0.0,0.0,0.0,0.0,0.0,0.0,0.0,0.0,0.0,0.0,0.0,0.0,0.0,0.0,0.0,0.0,0.0,0.0,0.0,0.0,0.0,0.0,0.0,0.0,0.0,0.0,0.0,0.0,0.0,0.0,0.0,0.0,0.0,0.0,0.0,0.0,0.0,0.0,0.0,0.0,0.0,0.0,0.0,0.0,0.0,0.0,0.0,0.0,0.0,0.0,0.0,0.0,0.0,0.0,0.0,0.0,0.0,0.0,0.0,0.0,0.0,0.0,0.0,0.0,0.0,0.0,0.0,0.0,0.0,0.0,0.0,0.0,0.0,0.0,0.0,0.0,0.0,0.0,0.0,0.0,0.0,0.0,0.0,0.0,0.0,0.0,0.0,0.0,0.0,0.0,0.0,0.0,0.0,0.0,0.0,0.0,0.0,0.0,0.0,0.0,0.0,0.0,0.0,0.0,0.0,0.0,0.0,0.0,0.0,0.0,0.0,0.0,0.0,0.0,0.0,0.0,0.0,0.0,0.0,0.0,0.0,0.0,0.0,0.0,0.0,0.0,0.0,0.0,0.0,0.0,0.0,0.0,0.0,0.0,0.0,0.0,0.0,0.0,0.0,0.0,0.0,0.0,0.0,0.0,0.0,0.0,0.0,0.0,0.0,0.0,0.0,0.0,0.0,0.0,0.0,0.0,0.0,0.0,0.0,0.0,0.0,0.0,0.0,0.0,0.0,0.0,0.0,0.0,0.0,0.0,0.0,0.0,0.0,0.0,0.0,0.0,0.0,0.0,0.0,0.0,0.0,0.0,0.0,0.0,0.0,0.0,0.0,0.0,0.0,0.0,0.0,0.0,0.0,0.0,0.0,0.0,0.0,0.0,0.0,0.0,0.0,0.0,0.0,0.0,0.0,0.0,0.0,0.0,0.0,0.0,0.0,0.0,0.0,0.0,0.0,0.0,0.0,0.0,0.0,0.0,0.0,0.0,0.0,0.0,0.0,0.0,0.0,0.0,0.0,0.0,0.0,0.0,0.0,0.0,0.0,0.0,0.0,0.0,0.0,0.0,0.0,0.0,0.0,0.0,0.0,0.0,0.0,0.0,0.0,0.0,0.0,0.0,0.0,0.0,0.0,0.0,0.0,0.0,0.0,0.0,0.0,0.0,0.0,0.0,0.0,0.0,0.0,0.0,0.0,0.0,0.0,0.0,0.0,0.0,0.0,0.0,0.0,0.0,0.0,0.0,0.0,0.0,0.0,0.0,0.0,0.0,0.0,0.0,0.0,0.0,0.0,0.0,0.0,0.0,0.0,0.0,0.0,0.0,0.0,0.0,0.0,0.0,0.0,0.0,0.0,0.0,0.0,0.0,0.0,0.0,0.0,0.0,0.0,0.0,0.0,0.0,0.0,0.0,0.0,0.0,0.0,0.0,0.0,0.0,0.0,0.0,0.0,0.0,0.0,0.0,0.0,0.0,0.0,0.0,0.0,0.0,0.0,0.0,0.0,0.0,0.0,0.0,0.0,0.0,0.0,0.0,0.0,0.0,0.0,0.0,0.0,0.0,0.0,0.0,0.0,0.0,0.0,0.0,0.0,0.0,0.0,0.0,0.0,0.0,0.0,0.0,0.0,0.0,0.0,0.0,0.0,0.0,0.0,0.0,0.0,0.0,0.0,0.0,0.0,0.0,0.0,0.0,0.0,0.0,0.0,0.0,0.0,0.0,0.0,0.0,0.0,0.0,0.0,0.0,0.0,0.0,0.0,0.0,0.0,0.0,0.0,0.0,0.0,0.0,0.0,0.0,0.0,0.0,0.0,0.0,0.0,0.0,0.0,0.0,0.0,0.0,0.0,0.0,0.0,0.0,0.0,0.0,0.0,0.0,0.0,0.0,0.0,0.0,0.0,0.0,0.0,0.0,0.0,0.0,0.0,0.0,0.0,0.0,0.0,0.0,0.0,0.0,0.0,0.0,0.0,0.0,0.0,0.0,0.0,0.0,0.0,0.0,0.0,0.0,0.0,0.0,0.0,0.0,0.0,0.0,0.0,0.0,0.0,0.0,0.0,0.0,0.0,0.0,0.0,0.0,0.0,0.0,0.0,0.0,0.0,0.0,0.0,0.0,0.0,0.0,5.6025,0.0,0.0,0.0,0.0,0.0,0.0,0.0,0.0,0.0,0.0,0.0,0.0,0.0,0.0,0.0,0.0,0.0,0.0,0.0,0.0,0.0,0.0,0.0,0.0,0.0,0.0,0.0,0.0,0.0,0.0,0.0,0.0,0.0,0.0,0.0,0.0,0.0,0.0,0.0,0.0,0.0,0.0,0.0,0.0,0.0,0.0,0.0,0.0,0.0,0.0,0.0,0.0,0.0,0.0,0.0,0.0,0.0,0.0,0.0,0.0,0.0,0.0,0.0,0.0,0.0,0.0,0.0,0.0,0.0,0.0,0.0,0.0,0.0,0.0,0.0,0.0,0.0,0.0,0.0,0.0,0.0,0.0,0.0,0.0,0.0,0.0,0.0,0.0,0.0,0.0,0.0,0.0,0.0,0.0,0.0,0.0,0.0,0.0,0.0,0.0,0.0,0.0,0.0,0.0,0.0,0.0,0.0,0.0,0.0,0.0,5.8285,5.6722,5.9927,5.9889,5.6216,0.0,0.0,0.0,0.0,0.0,0.0,0.0,0.0,0.0,0.0,0.0,0.0,0.0,0.0,0.0,0.0,0.0,0.0,0.0,0.0,0.0,0.0,0.0,0.0,0.0,0.0,0.0,0.0,0.0,0.0,0.0,0.0,0.0,0.0,0.0,0.0,0.0,0.0,0.0,0.0,0.0,0.0,0.0,0.0,0.0,0.0,0.0,0.0,0.0,0.0,0.0,0.0,0.0,0.0,0.0,0.0,0.0,0.0,0.0,0.0,0.0,0.0,0.0,0.0,0.0,0.0,0.0,0.0,0.0,0.0,0.0,0.0,0.0,0.0,0.0,0.0,0.0,0.0,0.0,0.0,0.0,0.0,0.0,0.0,0.0,0.0,0.0,0.0,0.0,0.0,0.0,0.0,0.0,0.0,0.0,0.0,0.0,0.0,0.0,0.0,0.0,0.0,0.0,0.0,0.0,0.0,0.0,0.0,0.0,0.0,0.0,0.0,5.9731,5.9888,5.7308,0.0,0.0,0.0,0.0,0.0,0.0,0.0,0.0,0.0,0.0,0.0,0.0,0.0,0.0,0.0,0.0,0.0,0.0,0.0,0.0,0.0,0.0,0.0,0.0,0.0,0.0,0.0,0.0,0.0,0.0,0.0,0.0,0.0,0.0,0.0,0.0,0.0,0.0,0.0,0.0,0.0,0.0,0.0,0.0,0.0,0.0,0.0,0.0,0.0,0.0,0.0,0.0,0.0,0.0,0.0,0.0,0.0,0.0,0.0,0.0,0.0,0.0,0.0,0.0,0.0,0.0,0.0,0.0,0.0,0.0,0.0,0.0,0.0,0.0,0.0,0.0,0.0,0.0,0.0,0.0,0.0,0.0,0.0,0.0,0.0,0.0,0.0,0.0,0.0,0.0,0.0,0.0,0.0,0.0,0.0,0.0,0.0,0.0,0.0,0.0,0.0,0.0,0.0,0.0,0.0,0.0,0.0,0.0,0.0,0.0,5.7464,5.883,5.9182,0.0,5.8869,0.0,0.0,0.0,0.0,0.0,0.0,0.0,0.0,0.0,0.0,0.0,0.0,0.0,0.0,0.0,0.0,0.0,0.0,0.0,0.0,0.0,0.0,0.0,0.0,0.0,0.0,0.0,0.0,0.0,0.0,0.0,0.0,0.0,0.0,0.0,0.0,0.0,0.0,0.0,0.0,0.0,0.0,0.0,0.0,0.0,0.0,0.0,0.0,0.0,0.0,0.0,0.0,0.0,0.0,0.0,0.0,0.0,0.0,0.0,0.0,0.0,0.0,0.0,0.0,0.0,0.0,0.0,0.0,0.0,0.0,0.0,0.0,0.0,0.0,0.0,0.0,0.0,0.0,0.0,0.0,0.0,0.0,0.0,0.0,0.0,0.0,0.0,0.0,0.0,0.0,0.0,0.0,0.0,0.0,0.0,0.0,0.0,0.0,0.0,0.0,0.0,0.0,0.0,0.0,0.0,0.0,0.0,0.0,0.0,0.0,5.7894,5.9064,5.9103,5.887,0.0,0.0,0.0,0.0,0.0,0.0,0.0,0.0,0.0,0.0,0.0,0.0,0.0,0.0,0.0,0.0,0.0,0.0,0.0,0.0,0.0,0.0,0.0,0.0,0.0,0.0,0.0,0.0,0.0,0.0,0.0,0.0,0.0,0.0,0.0,0.0,0.0,0.0,0.0,0.0,0.0,0.0,0.0,0.0,0.0,0.0,0.0,0.0,0.0,0.0,0.0,0.0,0.0,0.0,0.0,0.0,0.0,0.0,0.0,0.0,0.0,0.0,0.0,0.0,0.0,0.0,0.0,0.0,0.0,0.0,0.0,0.0,0.0,0.0,0.0,0.0,0.0,0.0,0.0,0.0,0.0,0.0,0.0,0.0,0.0,0.0,0.0,0.0,0.0,0.0,0.0,0.0,0.0,0.0,0.0,0.0,0.0,0.0,0.0,0.0,0.0,0.0,0.0,0.0,0.0,0.0,0.0,0.0,0.0,0.0,5.8089,5.8714,5.9728,5.9338,5.8792,5.8168,0.0,0.0,0.0,0.0,0.0,0.0,0.0,0.0,0.0,0.0,0.0,0.0,0.0,0.0,0.0,0.0,0.0,0.0,0.0,0.0,0.0,0.0,0.0,0.0,0.0,0.0,0.0,0.0,0.0,0.0,0.0,0.0,0.0,0.0,0.0,0.0,0.0,0.0,0.0,0.0,0.0,0.0,0.0,0.0,0.0,0.0,0.0,0.0,0.0,0.0,0.0,0.0,0.0,0.0,0.0,0.0,0.0,0.0,0.0,0.0,0.0,0.0,0.0,0.0,0.0,0.0,0.0,0.0,0.0,0.0,0.0,0.0,0.0,0.0,0.0,0.0,0.0,0.0,0.0,0.0,0.0,0.0,0.0,0.0,0.0,0.0,0.0,0.0,0.0,0.0,0.0,0.0,0.0,0.0,0.0,0.0,0.0,0.0,0.0,0.0,0.0,0.0,0.0,0.0,0.0,0.0,0.0,0.0,6.1172,5.9884,5.9884,6.1484,5.9962,5.9103,0.0,0.0,0.0,0.0,0.0,0.0,0.0,0.0,0.0,0.0,0.0,0.0,0.0,0.0,0.0,0.0,0.0,0.0,0.0,0.0,0.0,0.0,0.0,0.0,0.0,0.0,0.0,0.0,0.0,0.0,0.0,0.0,0.0,0.0,0.0,0.0,0.0,0.0,0.0,0.0,0.0,0.0,0.0,0.0,0.0,0.0,0.0,0.0,0.0,0.0,0.0,0.0,0.0,0.0,0.0,0.0,0.0,0.0,0.0,0.0,0.0,0.0,0.0,0.0,0.0,0.0,0.0,0.0,0.0,0.0,0.0,0.0,0.0,0.0,0.0,0.0,0.0,0.0,0.0,0.0,0.0,0.0,0.0,0.0,0.0,0.0,0.0,0.0,0.0,0.0,0.0,0.0,0.0,0.0,0.0,0.0,0.0,0.0,0.0,0.0,0.0,0.0,0.0,0.0,0.0,0.0,0.0,0.0,0.0,5.844,5.9923,6.1329,6.2422,6.1368,6.0781,0.0,0.0,0.0,0.0,0.0,0.0,0.0,0.0,0.0,0.0,0.0,0.0,0.0,0.0,0.0,0.0,0.0,0.0,0.0,0.0,0.0,0.0,0.0,0.0,0.0,0.0,0.0,0.0,0.0,0.0,0.0,0.0,0.0,0.0,0.0,0.0,0.0,0.0,0.0,0.0,0.0,0.0,0.0,0.0,0.0,0.0,0.0,0.0,0.0,0.0,0.0,0.0,0.0,0.0,0.0,0.0,0.0,0.0,0.0,0.0,0.0,0.0,0.0,0.0,0.0,0.0,0.0,0.0,0.0,0.0,0.0,0.0,0.0,0.0,0.0,0.0,0.0,0.0,0.0,0.0,0.0,0.0,0.0,0.0,0.0,0.0,0.0,0.0,0.0,0.0,0.0,0.0,0.0,0.0,0.0,0.0,0.0,0.0,0.0,0.0,0.0,0.0,0.0,0.0,0.0,0.0,0.0,0.0,0.0,5.8714,0.0,6.3515,6.375,6.2461,6.1445,0.0,0.0,0.0,0.0,0.0,0.0,0.0,0.0,0.0,0.0,0.0,0.0,0.0,0.0,0.0,0.0,0.0,0.0,0.0,0.0,0.0,0.0,0.0,0.0,0.0,0.0,0.0,0.0,0.0,0.0,0.0,0.0,0.0,0.0,0.0,0.0,0.0,0.0,0.0,0.0,0.0,0.0,0.0,0.0,0.0,0.0,0.0,0.0,0.0,0.0,0.0,0.0,0.0,0.0,0.0,0.0,0.0,0.0,0.0,0.0,0.0,0.0,0.0,0.0,0.0,0.0,0.0,0.0,0.0,0.0,0.0,0.0,0.0,0.0,0.0,0.0,0.0,0.0,0.0,0.0,0.0,0.0,0.0,0.0,0.0,0.0,0.0,0.0,0.0,0.0,0.0,0.0,0.0,0.0,0.0,0.0,0.0,0.0,0.0,0.0,0.0,0.0,0.0,0.0,0.0,0.0,0.0,0.0,5.8753,6.2735,6.5351,6.6288,6.5585,6.3124,6.0977,0.0,0.0,0.0,0.0,0.0,0.0,0.0,0.0,0.0,0.0,0.0,0.0,0.0,0.0,0.0,0.0,0.0,0.0,0.0,0.0,0.0,0.0,0.0,0.0,0.0,0.0,0.0,0.0,0.0,0.0,0.0,0.0,0.0,0.0,0.0,0.0,0.0,0.0,0.0,0.0,0.0,0.0,0.0,0.0,0.0,0.0,0.0,0.0,0.0,0.0,0.0,0.0,0.0,0.0,0.0,0.0,0.0,0.0,0.0,0.0,0.0,0.0,0.0,0.0,0.0,0.0,0.0,0.0,0.0,0.0,0.0,0.0,0.0,0.0,0.0,0.0,0.0,0.0,0.0,0.0,0.0,0.0,0.0,0.0,0.0,0.0,0.0,0.0,0.0,0.0,0.0,0.0,0.0,0.0,0.0,0.0,0.0,0.0,0.0,0.0,0.0,0.0,0.0,0.0,0.0,0.0,0.0,0.0,0.0,6.1291,6.4883,6.6952,6.7224,6.4257,6.2617,0.0,0.0,0.0,0.0,0.0,0.0,0.0,0.0,0.0,0.0,0.0,0.0,0.0,0.0,0.0,0.0,0.0,0.0,0.0,0.0,0.0,0.0,0.0,0.0,0.0,0.0,0.0,0.0,0.0,0.0,0.0,0.0,0.0,0.0,0.0,0.0,0.0,0.0,0.0,0.0,0.0,0.0,0.0,0.0,0.0,0.0,0.0,0.0,0.0,0.0,0.0,0.0,0.0,0.0,0.0,0.0,0.0,0.0,0.0,0.0,0.0,0.0,0.0,0.0,0.0,0.0,0.0,0.0,0.0,0.0,0.0,0.0,0.0,0.0,0.0,0.0,0.0,0.0,0.0,0.0,0.0,0.0,0.0,0.0,0.0,0.0,0.0,0.0,0.0,0.0,0.0,0.0,0.0,0.0,0.0,0.0,0.0,0.0,0.0,0.0,0.0,0.0,0.0,0.0,0.0,0.0,0.0,0.0,0.0,6.535,6.8123,6.9801,7.0035,6.6717,6.4687,6.422,0.0,0.0,0.0,0.0,0.0,0.0,0.0,0.0,0.0,0.0,0.0,0.0,0.0,0.0,0.0,0.0,0.0,0.0,0.0,0.0,0.0,0.0,0.0,0.0,0.0,0.0,0.0,0.0,0.0,0.0,0.0,0.0,0.0,0.0,0.0,0.0,0.0,0.0,0.0,0.0,0.0,0.0,0.0,0.0,0.0,0.0,0.0,0.0,0.0,0.0,0.0,0.0,0.0,0.0,0.0,0.0,0.0,0.0,0.0,0.0,0.0,0.0,0.0,0.0,0.0,0.0,0.0,0.0,0.0,0.0,0.0,0.0,0.0,0.0,0.0,0.0,0.0,0.0,0.0,0.0,0.0,0.0,0.0,0.0,0.0,0.0,0.0,0.0,0.0,0.0,0.0,0.0,0.0,0.0,0.0,0.0,0.0,0.0,0.0,0.0,0.0,0.0,0.0,0.0,0.0,0.0,0.0,0.0,7.3469,7.4446,7.4524,7.3625,7.0074,6.7068,0.0,0.0,0.0,0.0,0.0,0.0,0.0,0.0,0.0,0.0,0.0,0.0,0.0,0.0,0.0,0.0,0.0,0.0,0.0,0.0,0.0,0.0,0.0,0.0,0.0,0.0,0.0,0.0,0.0,0.0,0.0,0.0,0.0,0.0,0.0,0.0,0.0,0.0,0.0,0.0,0.0,0.0,0.0,0.0,0.0,0.0,0.0,0.0,0.0,0.0,0.0,0.0,0.0,0.0,0.0,0.0,0.0,0.0,0.0,0.0,0.0,0.0,0.0,0.0,0.0,0.0,0.0,0.0,0.0,0.0,0.0,0.0,0.0,0.0,0.0,0.0,0.0,0.0,0.0,0.0,0.0,0.0,0.0,0.0,0.0,0.0,0.0,0.0,0.0,0.0,0.0,0.0,0.0,0.0,0.0,0.0,0.0,0.0,0.0,0.0,0.0,0.0,0.0,0.0,0.0,0.0,0.0,0.0,0.0,7.5968,7.8818,7.956,7.7959,7.2221,6.8748,0.0,0.0,0.0,0.0,0.0,0.0,0.0,0.0,0.0,0.0,0.0,0.0,0.0,0.0,0.0,0.0,0.0,0.0,0.0,0.0,0.0,0.0,0.0,0.0,0.0,0.0,0.0,0.0,0.0,0.0,0.0,0.0,0.0,0.0,0.0,0.0,0.0,0.0,0.0,0.0,0.0,0.0,0.0,0.0,0.0,0.0,0.0,0.0,0.0,0.0,0.0,0.0,0.0,0.0,0.0,0.0,0.0,0.0,0.0,0.0,0.0,0.0,0.0,0.0,0.0,0.0,0.0,0.0,0.0,0.0,0.0,0.0,0.0,0.0,0.0,0.0,0.0,0.0,0.0,0.0,0.0,0.0,0.0,0.0,0.0,0.0,0.0,0.0,0.0,0.0,0.0,0.0,0.0,0.0,0.0,0.0,0.0,0.0,0.0,0.0,0.0,0.0,0.0,0.0,0.0,0.0,0.0,0.0,7.4425,7.9147,8.2269,8.3362,8.2386,7.604,7.1792,0.0,0.0,0.0,0.0,0.0,0.0,0.0,0.0,0.0,0.0,0.0,0.0,0.0,0.0,0.0,0.0,0.0,0.0,0.0,0.0,0.0,0.0,0.0,0.0,0.0,0.0,0.0,0.0,0.0,0.0,0.0,0.0,0.0,0.0,0.0,0.0,0.0,0.0,0.0,0.0,0.0,0.0,0.0,0.0,0.0,0.0,0.0,0.0,0.0,0.0,0.0,0.0,0.0,0.0,0.0,0.0,0.0,0.0,0.0,0.0,0.0,0.0,0.0,0.0,0.0,0.0,0.0,0.0,0.0,0.0,0.0,0.0,0.0,0.0,0.0,0.0,0.0,0.0,0.0,0.0,0.0,0.0,0.0,0.0,0.0,0.0,0.0,0.0,0.0,0.0,0.0,0.0,0.0,0.0,0.0,0.0,0.0,0.0,0.0,0.0,0.0,0.0,0.0,0.0,0.0,0.0,0.0,0.0,7.805,8.2339,8.4836,8.6123,8.593,8.0278,7.5224,0.0,0.0,0.0,0.0,0.0,0.0,0.0,0.0,0.0,0.0,0.0,0.0,0.0,0.0,0.0,0.0,0.0,0.0,0.0,0.0,0.0,0.0,0.0,0.0,0.0,0.0,0.0,0.0,0.0,0.0,0.0,0.0,0.0,0.0,0.0,0.0,0.0,0.0,0.0,0.0,0.0,0.0,0.0,0.0,0.0,0.0,0.0,0.0,0.0,0.0,0.0,0.0,0.0,0.0,0.0,0.0,0.0,0.0,0.0,0.0,0.0,0.0,0.0,0.0,0.0,0.0,0.0,0.0,0.0,0.0,0.0,0.0,0.0,0.0,0.0,0.0,0.0,0.0,0.0,0.0,0.0,0.0,0.0,0.0,0.0,0.0,0.0,0.0,0.0,0.0,0.0,0.0,0.0,0.0,0.0,0.0,0.0,0.0,0.0,0.0,0.0,0.0,0.0,0.0,0.0,0.0,0.0,0.0,7.9142,8.3992,8.5981,8.6959,8.692,8.0556,7.6024,0.0,0.0,0.0,0.0,0.0,0.0,0.0,0.0,0.0,0.0,0.0,0.0,0.0,0.0,0.0,0.0,0.0,0.0,0.0,0.0,0.0,0.0,0.0,0.0,0.0,0.0,0.0,0.0,0.0,0.0,0.0,0.0,0.0,0.0,0.0,0.0,0.0,0.0,0.0,0.0,0.0,0.0,0.0,0.0,0.0,0.0,0.0,0.0,5.9339,0.0,0.0,0.0,0.0,0.0,0.0,0.0,0.0,0.0,0.0,0.0,0.0,0.0,0.0,0.0,0.0,0.0,0.0,0.0,0.0,0.0,0.0,0.0,0.0,0.0,0.0,0.0,0.0,0.0,0.0,0.0,0.0,0.0,0.0,0.0,0.0,0.0,0.0,0.0,0.0,0.0,0.0,0.0,0.0,0.0,0.0,0.0,0.0,0.0,0.0,0.0,0.0,0.0,0.0,0.0,0.0,0.0,0.0,0.0,8.1904,8.6033,8.7476,8.7984,8.7368,8.1429,7.6955,0.0,0.0,0.0,0.0,0.0,0.0,0.0,0.0,0.0,0.0,0.0,0.0,0.0,0.0,0.0,0.0,0.0,0.0,0.0,0.0,0.0,0.0,0.0,0.0,0.0,0.0,0.0,0.0,0.0,0.0,0.0,0.0,0.0,0.0,0.0,0.0,0.0,0.0,0.0,0.0,0.0,0.0,0.0,0.0,0.0,0.0,0.0,0.0,0.0,0.0,0.0,0.0,0.0,0.0,0.0,0.0,0.0,0.0,0.0,0.0,0.0,0.0,0.0,0.0,0.0,0.0,0.0,0.0,0.0,0.0,0.0,0.0,0.0,0.0,0.0,0.0,0.0,0.0,0.0,0.0,0.0,0.0,0.0,0.0,0.0,0.0,0.0,0.0,0.0,0.0,0.0,0.0,0.0,0.0,0.0,0.0,0.0,0.0,0.0,0.0,0.0,0.0,0.0,0.0,0.0,0.0,0.0,8.0681,8.5167,8.8407,8.9263,8.9189,8.8112,8.2623,7.7951,7.4409,0.0,0.0,0.0,0.0,0.0,0.0,0.0,0.0,0.0,0.0,0.0,0.0,0.0,0.0,0.0,0.0,0.0,0.0,0.0,0.0,0.0,0.0,0.0,0.0,0.0,0.0,0.0,0.0,0.0,0.0,0.0,0.0,0.0,0.0,0.0,0.0,0.0,0.0,5.8168,6.0783,0.0,0.0,0.0,0.0,0.0,0.0,0.0,0.0,6.168,0.0,0.0,0.0,0.0,0.0,0.0,0.0,0.0,0.0,0.0,0.0,0.0,0.0,0.0,0.0,0.0,0.0,0.0,0.0,0.0,0.0,0.0,0.0,0.0,0.0,0.0,0.0,0.0,0.0,0.0,0.0,0.0,0.0,0.0,0.0,0.0,0.0,0.0,0.0,0.0,0.0,0.0,0.0,0.0,0.0,0.0,0.0,0.0,0.0,0.0,0.0,0.0,0.0,0.0,0.0,0.0,7.829,8.3455,8.767,9.0885,9.1153,9.0502,8.8855,8.3807,7.8851,7.4139,0.0,0.0,0.0,0.0,0.0,0.0,0.0,0.0,0.0,0.0,0.0,0.0,0.0,0.0,0.0,0.0,0.0,0.0,0.0,0.0,0.0,0.0,0.0,0.0,0.0,0.0,0.0,0.0,0.0,0.0,0.0,0.0,0.0,0.0,0.0,0.0,0.0,0.0,0.0,6.6253,6.6834,0.0,0.0,0.0,0.0,0.0,0.0,0.0,0.0,6.3516,0.0,0.0,0.0,0.0,0.0,0.0,0.0,0.0,0.0,0.0,0.0,0.0,0.0,0.0,0.0,0.0,0.0,0.0,0.0,0.0,0.0,0.0,0.0,0.0,0.0,0.0,0.0,0.0,0.0,0.0,0.0,0.0,0.0,0.0,0.0,0.0,0.0,0.0,0.0,0.0,0.0,0.0,0.0,0.0,0.0,0.0,0.0,0.0,0.0,0.0,0.0,0.0,0.0,0.0,0.0,8.1569,8.6152,9.0523,9.448,9.3434,9.2164,9.0817,8.4685,7.9163,0.0,0.0,0.0,0.0,0.0,0.0,0.0,0.0,0.0,0.0,0.0,0.0,0.0,0.0,0.0,0.0,0.0,0.0,0.0,0.0,0.0,0.0,0.0,0.0,0.0,0.0,0.0,0.0,0.0,0.0,0.0,0.0,0.0,0.0,0.0,0.0,0.0,0.0,0.0,0.0,6.7463,6.7888,6.9131,0.0,0.0,0.0,0.0,0.0,0.0,6.4694,6.3977,0.0,0.0,0.0,0.0,0.0,0.0,0.0,0.0,0.0,0.0,0.0,0.0,0.0,0.0,0.0,0.0,0.0,0.0,0.0,0.0,0.0,0.0,0.0,0.0,0.0,0.0,0.0,0.0,0.0,0.0,0.0,0.0,0.0,0.0,0.0,0.0,0.0,0.0,0.0,0.0,0.0,0.0,0.0,0.0,0.0,0.0,0.0,0.0,0.0,0.0,0.0,0.0,0.0,0.0,0.0,8.4653,8.8839,9.3099,9.7249,9.5584,9.3846,9.2267,8.5788,7.9906,0.0,0.0,0.0,0.0,0.0,0.0,0.0,0.0,0.0,0.0,0.0,0.0,0.0,0.0,0.0,0.0,0.0,0.0,0.0,0.0,0.0,0.0,0.0,0.0,0.0,0.0,0.0,0.0,0.0,0.0,0.0,0.0,0.0,0.0,0.0,0.0,0.0,0.0,0.0,0.0,0.0,6.8863,7.1082,6.9786,0.0,0.0,0.0,0.0,6.6996,6.6442,0.0,0.0,0.0,0.0,0.0,0.0,0.0,0.0,0.0,0.0,0.0,0.0,0.0,0.0,0.0,0.0,0.0,0.0,0.0,0.0,0.0,0.0,0.0,0.0,0.0,0.0,0.0,0.0,0.0,0.0,0.0,0.0,0.0,0.0,0.0,0.0,0.0,0.0,0.0,0.0,0.0,0.0,0.0,0.0,0.0,0.0,0.0,0.0,0.0,0.0,0.0,0.0,0.0,0.0,0.0,0.0,8.7178,9.1317,9.4698,9.7307,9.7225,9.5263,9.145,8.7576,8.2112,0.0,0.0,0.0,0.0,0.0,0.0,0.0,0.0,0.0,0.0,0.0,0.0,0.0,0.0,0.0,0.0,0.0,0.0,0.0,0.0,0.0,0.0,0.0,0.0,0.0,0.0,0.0,0.0,0.0,0.0,0.0,0.0,0.0,0.0,0.0,0.0,0.0,0.0,0.0,0.0,0.0,7.1867,7.073,7.0317,6.9729,0.0,0.0,7.1187,7.1812,7.2422,0.0,0.0,0.0,0.0,0.0,0.0,0.0,0.0,0.0,0.0,0.0,0.0,0.0,0.0,0.0,0.0,0.0,0.0,0.0,0.0,0.0,0.0,0.0,0.0,0.0,0.0,0.0,0.0,0.0,0.0,0.0,0.0,0.0,0.0,0.0,0.0,0.0,0.0,0.0,0.0,0.0,0.0,0.0,0.0,0.0,0.0,0.0,0.0,0.0,0.0,0.0,0.0,0.0,0.0,0.0,8.2739,8.8845,9.1714,9.5262,9.9404,9.7822,9.5711,9.3403,8.9133,8.3708,0.0,0.0,0.0,0.0,0.0,0.0,0.0,0.0,0.0,0.0,0.0,0.0,0.0,0.0,0.0,0.0,0.0,0.0,0.0,0.0,0.0,0.0,0.0,0.0,0.0,0.0,0.0,0.0,0.0,0.0,0.0,0.0,0.0,0.0,0.0,0.0,0.0,0.0,0.0,0.0,0.0,0.0,7.3846,7.3176,0.0,0.0,0.0,7.3495,7.2803,0.0,0.0,0.0,0.0,0.0,0.0,0.0,0.0,0.0,0.0,0.0,0.0,0.0,0.0,0.0,0.0,0.0,0.0,0.0,0.0,0.0,0.0,0.0,0.0,0.0,0.0,0.0,0.0,0.0,0.0,0.0,0.0,0.0,0.0,0.0,0.0,0.0,0.0,0.0,0.0,0.0,0.0,0.0,0.0,0.0,0.0,0.0,0.0,0.0,0.0,0.0,0.0,0.0,0.0,0.0,0.0,0.0,9.0209,9.2627,9.6048,10.0442,9.8437,9.6446,9.4677,9.0329,0.0,0.0,0.0,0.0,0.0,0.0,0.0,0.0,0.0,0.0,0.0,0.0,0.0,0.0,0.0,0.0,0.0,0.0,0.0,0.0,0.0,0.0,0.0,0.0,0.0,0.0,0.0,5.7497,0.0,0.0,0.0,0.0,0.0,0.0,0.0,0.0,0.0,0.0,0.0,0.0,0.0,0.0,7.4287,7.6229,7.5538,7.503,0.0,0.0,7.5467,7.4331,7.4744,7.4759,0.0,0.0,0.0,0.0,0.0,0.0,0.0,0.0,0.0,0.0,0.0,0.0,0.0,0.0,0.0,0.0,0.0,0.0,0.0,0.0,0.0,0.0,0.0,0.0,0.0,0.0,0.0,0.0,0.0,0.0,0.0,0.0,0.0,0.0,0.0,0.0,0.0,0.0,0.0,0.0,0.0,0.0,0.0,0.0,0.0,0.0,0.0,0.0,0.0,0.0,0.0,0.0,0.0,0.0,0.0,9.1172,9.5141,9.7716,9.8947,9.9562,9.7908,9.3903,9.1129,8.6205,0.0,0.0,0.0,0.0,0.0,0.0,0.0,0.0,0.0,0.0,0.0,0.0,0.0,0.0,0.0,0.0,0.0,0.0,0.0,0.0,0.0,0.0,0.0,0.0,0.0,0.0,0.0,0.0,0.0,0.0,0.0,0.0,0.0,0.0,0.0,0.0,0.0,0.0,0.0,0.0,0.0,7.5412,7.6106,7.6134,7.6606,0.0,0.0,7.7524,7.8021,7.8826,7.9084,7.8151,0.0,0.0,0.0,0.0,0.0,0.0,0.0,0.0,0.0,0.0,0.0,0.0,0.0,0.0,0.0,0.0,0.0,0.0,0.0,0.0,0.0,0.0,0.0,0.0,0.0,0.0,0.0,0.0,0.0,0.0,0.0,0.0,0.0,0.0,0.0,0.0,0.0,0.0,0.0,0.0,0.0,0.0,0.0,0.0,0.0,0.0,0.0,0.0,0.0,0.0,0.0,0.0,0.0,8.7289,9.1989,9.5147,9.7673,9.9486,9.9413,9.7754,9.4566,9.2556,8.8402,0.0,0.0,0.0,0.0,0.0,0.0,0.0,0.0,0.0,0.0,0.0,0.0,0.0,0.0,0.0,0.0,0.0,0.0,0.0,0.0,0.0,0.0,0.0,0.0,0.0,0.0,0.0,0.0,6.5196,6.604,6.5101,0.0,0.0,0.0,0.0,0.0,0.0,0.0,0.0,0.0,0.0,7.7548,7.7788,7.8258,0.0,0.0,7.9593,7.9715,7.9358,7.9588,7.9704,7.9361,7.8865,0.0,0.0,0.0,0.0,0.0,0.0,0.0,0.0,0.0,0.0,0.0,0.0,0.0,0.0,0.0,0.0,0.0,0.0,0.0,0.0,0.0,0.0,0.0,0.0,0.0,0.0,0.0,0.0,0.0,0.0,0.0,0.0,0.0,0.0,0.0,0.0,0.0,0.0,0.0,0.0,0.0,0.0,0.0,0.0,0.0,0.0,0.0,0.0,0.0,0.0,0.0,0.0,8.8286,9.2826,9.6095,9.8404,9.9678,9.937,9.7947,9.5485,9.3523,9.006,0.0,0.0,0.0,0.0,0.0,0.0,0.0,0.0,0.0,0.0,0.0,0.0,0.0,0.0,0.0,0.0,0.0,0.0,0.0,0.0,0.0,0.0,0.0,0.0,0.0,0.0,0.0,0.0,6.7536,6.8092,6.7452,0.0,0.0,0.0,0.0,0.0,0.0,0.0,0.0,0.0,0.0,8.0013,8.0199,8.0535,8.08,8.093,8.1296,8.1473,8.102,8.0939,8.0935,8.0939,0.0,0.0,0.0,0.0,0.0,0.0,0.0,0.0,0.0,0.0,0.0,0.0,0.0,0.0,0.0,0.0,0.0,0.0,0.0,0.0,0.0,0.0,0.0,0.0,0.0,0.0,0.0,0.0,0.0,0.0,0.0,0.0,0.0,0.0,0.0,0.0,0.0,0.0,0.0,0.0,0.0,0.0,0.0,0.0,0.0,0.0,0.0,0.0,0.0,0.0,0.0,0.0,0.0,9.0253,9.3676,9.8514,10.0361,9.8947,9.9639,9.8832,9.6288,9.3826,9.0864,8.7401,0.0,0.0,0.0,0.0,0.0,0.0,0.0,0.0,0.0,0.0,0.0,0.0,0.0,0.0,0.0,0.0,0.0,0.0,0.0,0.0,0.0,0.0,0.0,0.0,0.0,0.0,6.5094,6.6442,6.8123,0.0,0.0,0.0,0.0,0.0,0.0,0.0,0.0,0.0,0.0,8.2496,8.2765,8.3363,8.2794,8.2639,8.3378,8.2852,8.2611,8.3378,8.349,8.352,0.0,0.0,0.0,0.0,0.0,0.0,0.0,0.0,0.0,0.0,0.0,0.0,0.0,0.0,0.0,0.0,0.0,0.0,0.0,0.0,0.0,0.0,0.0,0.0,0.0,0.0,0.0,6.1749,6.1245,0.0,0.0,0.0,0.0,0.0,0.0,0.0,0.0,0.0,0.0,0.0,8.2097,8.4253,0.0,0.0,0.0,0.0,0.0,0.0,0.0,0.0,0.0,0.0,0.0,0.0,9.1171,9.4566,9.8485,9.9947,9.887,9.9101,9.8024,9.5523,9.46,9.2561,8.9167,0.0,0.0,0.0,0.0,0.0,0.0,0.0,0.0,0.0,0.0,0.0,0.0,0.0,0.0,0.0,0.0,0.0,0.0,0.0,0.0,0.0,0.0,0.0,0.0,0.0,7.1086,0.0,0.0,0.0,0.0,0.0,0.0,0.0,0.0,0.0,0.0,0.0,8.1037,8.2222,8.3403,8.421,8.4433,8.5152,8.56,0.0,0.0,0.0,0.0,0.0,0.0,0.0,0.0,0.0,0.0,0.0,0.0,0.0,0.0,8.1181,7.8958,7.8773,7.8931,7.89,0.0,0.0,0.0,0.0,0.0,0.0,0.0,0.0,0.0,0.0,0.0,0.0,0.0,0.0,0.0,0.0,6.5519,0.0,0.0,0.0,0.0,0.0,0.0,0.0,0.0,8.195,8.5279,8.6752,8.8983,8.944,0.0,8.9175,8.644,0.0,0.0,0.0,0.0,0.0,0.0,0.0,0.0,9.2052,9.5408,9.849,9.9832,9.9293,9.9259,9.8331,9.6412,9.6023,9.4407,9.1321,8.9128,8.6901,0.0,0.0,0.0,0.0,0.0,0.0,0.0,0.0,0.0,0.0,0.0,0.0,0.0,0.0,0.0,0.0,0.0,0.0,0.0,0.0,0.0,0.0,0.0,7.5294,0.0,0.0,0.0,0.0,0.0,0.0,0.0,0.0,0.0,7.9801,8.2358,8.4325,8.4511,8.5492,8.6238,8.6206,0.0,0.0,0.0,0.0,0.0,0.0,0.0,8.6401,8.694,8.6543,8.6196,8.6118,8.636,8.621,8.5073,0.0,0.0,8.3234,8.304,8.32,8.3208,8.2785,8.2597,8.3109,8.2566,8.2162,0.0,0.0,0.0,0.0,0.0,0.0,0.0,0.0,7.3358,7.3277,0.0,7.0574,0.0,0.0,0.0,0.0,0.0,0.0,0.0,0.0,8.8137,9.159,9.2407,9.2518,9.2556,9.2518,9.1744,9.1321,9.0975,8.7205,0.0,0.0,0.0,0.0,0.0,0.0,9.2941,9.6288,9.8793,10.0101,10.0106,10.0063,9.9683,9.8793,9.7942,9.6403,9.4061,9.3792,9.2253,8.9021,8.5602,0.0,0.0,0.0,0.0,0.0,0.0,0.0,0.0,0.0,0.0,0.0,0.0,0.0,0.0,0.0,0.0,0.0,0.0,0.0,0.0,7.6996,0.0,0.0,0.0,0.0,0.0,0.0,0.0,0.0,0.0,0.0,8.614,8.6833,8.773,8.8465,0.0,0.0,0.0,0.0,8.7832,8.8632,8.8072,8.7832,8.8666,8.8756,8.8714,8.8756,0.0,0.0,8.653,8.6931,8.7003,8.5338,8.5769,8.6166,8.6166,8.5431,8.4893,8.4897,8.482,8.4844,8.4908,8.5093,8.5555,7.7535,0.0,0.0,0.0,0.0,7.375,7.4599,7.5892,7.5888,7.5617,7.5046,7.4289,0.0,0.0,0.0,0.0,0.0,0.0,8.103,8.4951,8.7355,9.0162,9.3326,9.3989,9.4296,9.4292,9.4672,9.4864,9.4783,9.3629,9.0398,8.5363,0.0,0.0,0.0,0.0,9.4364,9.7091,9.9101,10.0101,10.0101,10.0101,9.9678,9.8832,9.8562,9.837,9.8254,9.7057,9.5446,9.3258,8.994,0.0,0.0,0.0,0.0,0.0,0.0,0.0,0.0,0.0,0.0,0.0,0.0,0.0,0.0,0.0,0.0,0.0,0.0,0.0,8.0131,8.1842,8.198,0.0,0.0,0.0,0.0,0.0,0.0,0.0,0.0,0.0,8.8744,8.8517,8.8175,0.0,0.0,8.9346,8.876,8.9499,9.0213,9.0453,0.0,0.0,0.0,8.9966,8.9787,9.0364,9.0479,9.0081,8.9008,8.9004,8.8828,8.7755,8.7807,8.7944,8.7867,8.6748,8.582,8.5705,8.5316,8.4935,8.4905,8.4648,8.4383,8.3224,8.0358,7.8676,7.8393,7.9012,7.9065,7.9994,8.1455,8.1517,8.1295,8.0766,7.9768,7.885,7.804,7.7509,0.0,0.0,0.0,8.4144,8.8606,8.911,9.1286,9.4634,9.5288,9.5523,9.5518,9.602,9.6227,9.6227,9.653,9.4859,9.1396,0.0,0.0,9.1229,9.3417,9.5685,9.7875,9.9263,10.0114,10.0543,10.0543,10.01,9.9205,9.9553,9.9827,9.9902,9.936,9.8077,9.6001,9.3034,8.9321,0.0,0.0,0.0,0.0,0.0,0.0,0.0,0.0,0.0,0.0,0.0,7.428,7.6284,0.0,0.0,0.0,7.9438,8.1712,8.4597,8.55,0.0,0.0,0.0,0.0,0.0,0.0,0.0,8.8282,8.9133,8.9863,9.0321,8.9979,8.9479,8.8962,8.9774,9.024,8.9747,0.0,9.1206,9.1206,9.1509,9.1731,9.1697,9.1547,9.1475,9.1672,9.1398,9.0889,9.0093,8.9911,8.9594,8.8919,8.8701,8.8684,8.8684,8.785,8.7132,8.7132,8.6748,8.644,8.6405,8.596,8.5618,8.8153,8.7885,8.4021,8.3267,8.4691,8.47,8.6059,8.8337,8.84,8.8518,8.8292,8.6043,8.4639,8.3841,8.1499,0.0,0.0,8.4874,8.7833,9.2484,9.2561,9.386,9.612,9.6235,9.6269,9.626,9.6218,9.6218,9.6251,9.6963,9.7329,9.7253,9.587,9.5185,9.5224,9.5787,9.6976,9.8766,9.9398,10.0171,10.1162,10.1201,10.0727,9.9817,10.077,10.0824,9.9904,10.0732,10.0134,9.7662,9.529,9.1808,8.7154,0.0,0.0,0.0,0.0,0.0,0.0,0.0,0.0,0.0,0.0,0.0,0.0,0.0,0.0,0.0,8.7021,0.0,8.8526,8.7936,0.0,0.0,0.0,8.7564,8.768,8.9009,8.994,9.0009,0.0,0.0,9.1282,0.0,9.1325,9.1402,9.133,9.1309,9.1296,9.1402,9.1402,9.1484,9.2081,9.2602,9.2597,9.3077,9.3253,9.2676,9.1945,9.1244,9.053,9.0337,8.994,8.9465,8.914,8.9183,8.914,8.9261,8.9098,8.9175,8.8829,8.8611,8.8495,8.8422,8.8379,8.8459,8.8912,8.7918,8.7399,8.7199,8.7269,8.7662,8.8232,8.8375,8.8417,8.8383,8.7851,8.7884,8.8333,8.7735,8.8162,8.9376,8.9568,9.0649,9.2484,9.3138,9.4054,9.5171,9.5824,9.6093,9.6024,9.6731,9.7106,9.714,9.7878,9.8285,9.8275,9.8328,9.8444,9.8523,9.8042,9.8661,10.0413,9.9937,10.0134,10.1004,10.1048,10.0917,10.0699,10.0938,10.0943,10.0704,10.0943,10.0493,9.9196,9.7375,9.5545,9.3774,8.8054,0.0,0.0,0.0,0.0,0.0,0.0,0.0,0.0,0.0,8.3828,8.5666,0.0,8.6901,0.0,8.7867,8.8218,8.7748,8.8094,0.0,0.0,8.8765,8.8897,9.0163,9.0073,9.0145,9.0821,9.1052,9.1479,9.2095,9.221,9.2416,9.299,9.2566,9.2211,9.2198,9.275,9.311,9.3062,9.3267,9.3423,9.3464,9.3568,9.3676,9.3446,9.3242,9.3028,9.2831,9.2793,9.2712,9.2553,9.2515,9.2502,9.2428,9.2522,9.2454,9.2334,9.0526,8.8679,8.8692,8.8735,8.8722,8.9442,8.9862,8.9862,8.9179,8.8153,8.8935,8.9261,8.9266,8.9376,8.942,8.943,8.9534,8.9873,9.0345,9.0391,9.0617,9.1046,9.1121,9.1587,9.2434,9.3633,9.4618,9.5445,9.6684,9.7255,9.7202,9.7666,9.7684,9.7406,9.8426,9.8751,9.8444,9.984,10.0801,10.1208,10.0409,10.0629,10.1986,10.1182,10.0782,10.0814,10.0897,10.0902,10.0853,10.0952,10.0957,10.0814,10.0952,10.0557,9.9654,9.8783,9.7455,9.5549,9.16,9.0038,0.0,0.0,0.0,0.0,0.0,0.0,0.0,0.0,0.0,0.0,0.0,8.8513,8.8513,8.9286,8.9594,8.9133,8.9517,8.9988,9.0424,9.0064,9.0171,9.109,9.0769,9.0808,9.1667,9.1787,9.2095,9.2903,9.3018,9.3344,9.4149,9.3913,9.3468,9.3163,9.3437,9.3676,9.3715,9.4048,9.4423,9.478,9.4538,9.4292,9.4258,9.3968,9.3674,9.3674,9.3694,9.3676,9.3672,9.3676,9.3706,9.3683,9.3697,9.3706,9.3446,9.2253,9.1069,9.0933,9.0937,9.0928,9.0932,9.0932,9.0932,9.0091,8.8841,9.032,9.0544,8.9938,9.0151,9.0316,9.0566,9.0771,9.0934,9.103,9.1116,9.1188,9.1222,9.1284,9.1706,9.2478,9.4086,9.5233,9.6006,9.7635,9.8476,9.8572,9.8524,9.8173,9.7598,9.8927,9.9203,9.8619,10.0877,10.2438,10.3132,10.2667,10.2682,10.3252,10.2601,10.1817,10.0986,10.1052,10.1057,10.0959,10.1159,10.117,10.0965,10.1159,10.087,10.0037,9.9863,9.8499,9.5629,9.4445,9.3126,0.0,9.066,0.0,0.0,0.0,0.0,0.0,0.0,0.0,0.0,9.009,9.0047,9.0047,9.0744,9.1206,9.1206,9.1206,9.1206,9.1206,9.1282,9.1364,9.1355,9.1475,9.1825,9.2556,9.2676,9.2979,9.3941,9.4018,9.4378,9.5367,9.5569,9.5349,9.4592,9.4305,9.4151,9.406,9.4771,9.5683,9.6351,9.6019,9.5561,9.5451,9.5075,9.4378,9.4575,9.4534,9.4463,9.4463,9.4588,9.4502,9.4334,9.4439,9.4457,9.4595,9.4484,9.4147,9.3601,9.3418,9.3696,9.2618,9.2613,9.2618,9.246,9.2198,9.2498,9.0282,8.65,8.7241,8.8338,8.9762,9.0466,9.1177,9.1836,9.1893,9.2272,9.2943,9.3045,9.3198,9.3381,9.4449,9.495,9.502,9.5999,9.6764,9.7377,9.8147,9.879,9.9409,10.0277,10.0596,10.0514,10.2123,10.3055,10.3246,0.0,0.0,0.0,10.3091,10.2888,10.2711,10.2735,10.2735,10.2711,10.2753,0.0,10.2717,10.2759,10.2694,10.2479,10.1191,0.0,0.0,0.0,0.0,0.0,0.0,0.0,0.0,0.0,0.0,0.0,9.0695,9.0808,9.0957,9.0975,9.0936,9.0975,9.1129,9.1206,9.1206,9.1206,9.1206,9.1206,9.1839,9.2262,9.2265,9.2817,9.3287,9.3446,9.3484,9.41,9.5518,9.5788,9.6379,9.7652,9.8046,9.8041,9.7753,9.6557,9.5846,9.5885,9.6452,9.7298,9.8207,9.8096,9.7831,9.8028,9.7979,9.7762,9.7652,9.7681,9.7749,9.7705,9.783,9.7739,9.774,9.7822,9.763,9.7793,9.7754,9.6985,9.4339,9.3728,9.3676,9.3109,0.0,9.3109,9.2613,0.0,9.1849,8.9944,8.6925,8.9021,9.0433,9.1288,9.1704,9.2156,9.2562,9.177,9.1607,9.1983,9.1255,9.1581,9.2763,9.4138,9.5423,9.6595,9.7866,9.8633,9.9088,9.9451,9.9687,9.9773,10.0465,10.0787,10.0825,10.2426,10.3399,10.3819,10.5074,10.5074,10.3813,10.3775,10.3584,10.3246,10.3208,10.3208,10.3208,0.0,0.0,0.0,0.0,0.0,0.0,0.0,0.0,0.0,0.0,0.0,9.5353,9.3759,9.2699,9.2329,9.2295,9.2295,9.2295,9.2295,9.1949,9.1105,9.1061,9.1028,9.1066,9.1453,9.1754,9.1754,9.2145,9.245,9.2472,9.2831,9.3083,9.3131,9.343,9.4068,9.4821,9.498,9.5634,9.7326,9.7557,9.7836,9.8629,9.8788,9.8817,9.8755,9.8076,9.7547,9.7557,9.7832,9.8284,9.8702,9.8793,9.8793,9.8798,9.8773,9.8788,9.8788,9.8803,9.8784,9.8784,9.8784,9.8774,9.8793,9.8789,9.8798,9.8779,9.8745,9.8274,9.6428,9.6114,9.6123,9.3988,9.3988,9.3988,9.3186,9.192,9.192,9.1161,8.9982,0.0,0.0,0.0,9.3268,9.3497,9.3655,9.2364,9.1818,9.1816,9.0592,9.1056,9.3,9.4488,9.6344,9.8481,9.9867,10.0643,10.0919,10.0864,10.0557,10.0098,10.0795,10.1115,10.1244,10.2641,10.3813,10.461,10.5336,10.5336,10.4654,10.4678,10.4346,10.3702,10.3664,10.3652,10.3628,10.3628,10.3666,10.3666,10.3666,10.3628,10.3628,10.3514,10.2711,10.1139,9.9576,9.7921,9.6194,9.4751,9.3889,9.3656,9.366,9.366,9.3665,9.3627,9.2995,9.1471,9.139,9.139,9.139,9.208,9.2554,9.2554,9.3204,9.3767,9.3888,9.3931,9.4045,9.4305,9.4368,9.5083,9.6428,9.6749,9.7288,9.8755,9.8985,9.9101,9.9216,9.937,9.924,9.9202,9.8933,9.8692,9.8894,9.8976,9.9082,9.9236,9.9327,9.925,9.9365,9.9327,9.9255,9.9245,9.925,9.9221,9.9384,9.9254,9.9298,9.9259,9.934,9.923,9.9212,9.9105,9.9007,9.9014,9.899,9.8789,9.7383,9.7383,9.7389,9.7268,9.7039,9.7039,9.6886,9.6395,9.2646,9.1772,9.3153,9.3874,9.502,9.6363,9.6144,9.6412,9.7012,9.6943,9.7068,0.0,9.7733,9.8012,9.8326,9.8555,9.9064,9.9819,10.0607,10.1285,10.1855,10.2682,10.3053,10.3016,10.3791,10.4686,10.545,10.5641,10.5641,10.5533,10.5642,10.563,10.5515,10.5515,10.5456,10.5348,10.5336,10.5336,10.5336,10.5336,10.5342,10.5336,10.4654,10.3813,10.2864,10.1194,9.9264,9.7035,9.5995,9.4909,9.3605,9.3423,9.3423,9.3462,9.3423,9.3405,9.3314,9.329,9.329,9.3323,9.3439,9.3505,9.3505,9.374,9.4186,9.4756,9.4837,9.5349,9.6674,9.69,9.7255,9.825,9.8442,9.8755,9.9678,9.9913,10.014,10.0712,10.0789,10.0894,10.0692,9.9707,9.9235,9.9707,9.9904,10.0216,10.0779,10.0938,10.0976,10.0938,10.0938,10.0943,10.0943,10.0971,10.0962,10.0923,10.0962,10.0957,10.0947,10.0894,10.0852,10.0865,10.076,10.0659,10.0652,10.0581,10.0074,9.8071,9.8071,9.8071,9.8071,9.8071,9.8071,9.8071,9.7918,9.5702,9.5091,9.5784,9.6242,9.6815,9.7427,9.6592,9.6401,9.6706,9.5845,9.6216,9.7516,9.802,9.9009,10.0316,10.0795,10.1218,10.1723,10.2034,10.2411,10.2807,10.3183,10.3502,10.3941,10.5143,10.5953,10.6335,10.6832,10.7092,10.7159,10.6274,10.5771,10.5815,10.5777,10.5746,10.5679,10.5679,10.5679,10.5679,10.5679,10.5679,10.5679,10.4883,10.4043,10.3208,10.1559,9.9924,9.8468,9.7604,9.6854,9.6158,9.6186,9.6246,9.6309,9.6314,9.6386,9.6476,9.5079,9.4254,9.4292,9.5104,9.5708,9.5752,9.6145,9.6614,9.6997,9.7056,9.7379,9.8043,9.8207,9.8553,9.9327,9.9486,9.9832,10.0673,10.075,10.0866,10.1284,10.1673,10.1996,10.2034,10.1794,10.151,10.1485,10.148,10.1836,10.251,10.2712,10.2712,10.2712,10.2693,10.2703,10.2708,10.2708,10.2703,10.2708,10.2665,10.2682,10.2609,10.2571,10.2533,10.2457,10.237,10.2287,10.2232,10.2189,10.1491,9.9261,9.9261,9.9261,9.9261,9.9261,9.9223,9.9223,9.9261,9.9261,9.9261,9.9184,9.884,9.8764,9.884,9.7776,9.7323,9.7132,9.5981,9.6477,9.8235,9.8955,10.0383,10.2222,10.2944,10.3276,10.3425,10.3479,10.3629,10.3829,10.4006,10.4493,10.5303,10.6571,10.7214,10.722,10.7863,10.8257,10.8261,10.6958,10.6303,10.6295,10.6295,10.6283,10.6253,10.6291,10.6176,10.5985,10.5985,10.587,10.5679,10.503,10.431,10.3475,10.2209,10.1038,10.0152,9.9326,9.8725,9.8454,9.8524,9.8662,9.875,9.8779,9.887,9.8899,9.7351,9.5991,9.5847,9.6914,9.7688,9.7736,9.8476,9.9158,9.9311,9.937,9.9577,9.9865,9.9788,10.0004,10.075,10.0952,10.1255,10.1712,10.1861,10.1943,10.2073,10.2785,10.3377,10.3319,10.3906,10.4122,10.3851,10.3326,10.3062,10.3784,10.3828,10.3789,10.3905,10.3819,10.3713,10.3757,10.3834,10.3824,10.3732,10.3781,10.3637,10.3646,10.3557,10.3431,10.3294,10.3161,10.3166,10.3108,10.3089,10.2814,10.2673,10.2749,10.2591,10.2749,10.2597,10.2635,10.2597,10.2635,10.2711,10.2749,10.2406,10.1062,10.0827,10.1591,10.2094,10.2253,10.2253,10.2329,10.2214,10.2406,10.2673,10.287,10.3117,10.3214,10.322,10.342,10.4168,10.4909,10.5499,10.6266,10.7057,10.7761,10.8016,10.8093,10.8093,10.8207,10.8252,10.822,10.8061,10.8034,10.8144,10.815,10.8096,10.7978,10.7934,10.7596,10.6838,10.68,10.645,10.5794,10.5641,10.5183,10.4386,10.4113,10.337,10.195,10.1038,9.9983,9.8717,9.8567,9.8743,9.8609,9.8889,9.9288,9.9981,10.0423,10.0029,9.8913,9.8615,9.8846,9.874,9.9558,10.039,10.1005,10.1082,10.165,10.2794,10.2731,10.2567,10.3443,10.3294,10.3563,10.352,10.3597,10.3655,10.368,10.4874,10.5557,10.5082,10.5621,10.64,10.6523,10.5387,10.4123,10.4197,10.3948,10.4328,10.4217,10.403,10.4271,10.4458,10.4313,10.396,10.4736,10.4034,10.4049,10.3826,10.3441,10.3461,10.3699,10.355,10.3314,10.3244,10.3349,10.321,10.3208,10.3208,10.3208,10.3208,10.3208,10.3208,10.3208,10.3208,10.3208,10.3208,10.3208,10.2935,10.2782,10.2705,10.3055,10.3208,10.3208,10.3208,10.3208,10.3246,10.366,10.389,10.401,10.4966,10.5422,10.5559,10.635,10.6924,10.728,10.7606,10.7913,10.8246,10.866,10.8889,10.8965,10.943,10.9697,10.9659,10.9666,10.9729,10.962,10.8785,10.8263,10.8214,10.8207,10.8054,10.7711,10.7672,10.752,10.7176,10.6679,10.6029,10.5183,10.4686,10.3914,10.2858,10.2438,10.1954,10.1384,10.1362,10.1411,10.147,10.1628,10.1853,10.2166,10.26,10.252,10.1981,10.1832,10.1789,10.1794,10.214,10.2496,10.278,10.2823,10.3189,10.3749,10.3619,10.3547,10.39,10.4333,10.4641,10.4718,10.5059,10.5333,10.5512,10.6486,10.701,10.6733,10.7376,10.7963,10.8189,10.7442,10.6964,10.678,10.6872,10.679,10.6795,10.6854,10.6869,10.6705,10.6777,10.6756,10.6587,10.6019,10.5681,10.5777,10.5147,10.4801,10.4682,10.4676,10.4692,10.4692,10.4668,10.468,10.3896,10.3896,10.4125,10.4201,10.424,10.4469,10.4584,10.4584,10.4584,10.4584,10.4616,10.5189,10.5112,10.4584,10.4125,10.3972,10.4201,10.4201,10.4354,10.4622,10.5189,10.5456,10.5571,10.6647,10.7302,10.7477,10.7907,10.8334,10.8669,10.8831,10.8901,10.8972,10.9468,10.9768,10.9806,11.043,11.0697,11.0697,11.0697,11.0697,11.0506,10.9513,10.8895,10.8895,10.8895,10.878,10.8551,10.8513,10.8437,10.8207,10.7602,10.6985,10.6405,10.58,10.4998,10.3972,10.3628,10.3441,10.3299,10.3296,10.3353,10.3432,10.3585,10.377,10.4022,10.4336,10.4667,10.4864,10.512,10.502,10.3948,10.4102,10.4217,10.4261,10.4569,10.4933,10.4998,10.5069,10.5364,10.5323,10.6026,10.6141,10.6295,10.6905,10.7444,10.7257,10.8067,10.8573,10.8535,10.9057,10.9611,10.9606,10.9573,10.932,10.9011,10.8636,10.8906,10.8872,10.8662,10.8562,10.8875,10.8711,10.8602,10.7564,10.7671,10.737,10.665,10.6257,10.5921,10.5762,10.5641,10.5603,10.545,10.5641,10.5641,10.5603,10.5679,10.6373,10.6647,10.6762,10.7481,10.7863,10.7634,10.7825,10.7863,10.7711,10.7825,10.794,10.7672,10.622,10.5991,10.6603,10.6609,10.6985,10.7634,10.7825,10.7978,10.8016,10.8131,10.8137,10.8156,10.8373,10.8749,10.9398,11.0162,11.0583,11.0544,11.0544,11.0583,11.0583,11.0621,11.0697,11.0697,11.0697,11.0697,11.0697,11.0583,11.0468,11.043,11.0544,11.0118,10.9462,10.9347,10.9003,10.8284,10.8207,10.8093,10.8054,10.7978,10.7169,10.5756,10.4839,10.4087,10.3544,10.355,10.3581,10.3527,10.388,10.3985,10.4955,10.5673,10.6396,10.7208,10.7788,10.7154,10.4846,10.501,10.5266,10.5363,10.6551,10.73,10.7446,10.7797,10.8554,10.8444,10.8406,10.8482,10.8675,10.9483,10.9439,10.9285,11.0175,11.0857,11.0215,11.072,11.1077,11.1154,11.1082,11.078,10.9362,10.929,10.9213,10.9241,10.9428,10.9065,10.8813,10.8711,10.8642,10.8577,10.8442,10.8042,10.7239,10.6716,10.636,10.608,10.5762,10.5679,10.5679,10.5679,10.5679,10.729,10.7329,10.7596,10.7749,10.7787,10.8093,10.8207,10.8207,10.8207,10.8207,10.8207,10.8207,10.8207,10.8169,10.7596,10.7443,10.7711,10.7749,10.7902,10.8169,10.8207,10.8207,10.8246,10.8698,10.8965,10.9042,10.9545,10.9965,11.0194,11.0583,11.0697,11.0697,11.0697,11.0697,11.0697,11.0697,11.0697,11.0697,11.0697,11.0697,11.0697,11.0697,11.0697,11.0697,11.0697,11.0544,11.0271,11.0232,11.008,10.9818,10.9271,10.8965,10.8927,10.8475,10.794,10.7367,10.7023,10.6717,10.6456,10.6416,10.6441,10.6453,10.6555,10.6619,10.707,10.7469,10.7811,10.8168,10.8382,10.7872,10.7368,10.7278,10.7536,10.7605,10.8077,10.8465,10.8517,10.8732,10.8902,10.8972,10.9373,10.9944,11.0385,11.0765,11.0748,11.0577,11.0934,11.1072,11.1033,11.1231,11.1395,11.1472,11.1472,11.1258,11.0682,11.0555,11.0582,11.0501,11.049,11.0374,11.022,10.9975,10.9918,10.9696,10.9475,10.8914,10.8214,10.7327,10.6895,10.6112,10.5794,10.5838,10.5679,10.5679,10.5679,10.8207,10.8246,10.8475,10.8589,10.8628,10.8895,10.901,10.901,10.901,10.901,10.901,10.901,10.901,10.901,10.901,10.901,10.8972,10.8742,10.8742,10.8972,10.901,10.901,10.9086,10.9545,10.9812,10.9889,11.0385,11.0697,11.0697,11.0697,11.0697,11.0697,11.0697,11.0697,11.0697,11.0697,11.0697,11.0697,11.0697,11.0697,11.0697,11.0697,11.0697,11.0697,11.0697,11.0697,11.0697,11.0697,11.0697,11.0621,11.0118,10.9806,10.9729,10.9042,10.8583,10.8589,10.8322,10.8207,10.8207,10.8207,10.8169,10.8207,10.8244,10.8331,10.8343,10.8649,10.8829,10.8879,10.9227,10.9359,10.9388,10.9469,10.9375,10.8998,10.9035,10.9234,10.927,10.9573,10.9753,10.989,11.0253,11.0814,11.1259,11.1242,11.1219,11.1237,11.1127,11.1149,11.1235,11.1275,11.1275,11.1341,11.139,11.1357,11.1037,11.0912,11.0973,11.0939,11.0906,11.1045,11.106,11.0961,11.085,11.071,11.0379,10.9857,10.9105,10.8111,10.7194,10.6335,10.615,10.6239,10.5997,10.5679,10.58,10.8284,10.8437,10.908,10.9424,10.9538,11.0156,11.0621,11.0506,11.0544,11.043,11.0353,11.0544,11.0392,11.0544,11.0392,11.0544,11.0347,10.9736,10.9774,11.0392,11.0506,11.0506,11.0468,11.0506,11.0544,11.0583,11.0697,11.0697,11.0697,11.0697,11.0697,11.0697,11.0697,11.0697,11.0697,11.0774,11.0774,11.085,11.0888,11.0888,11.0736,11.0927,11.0965,11.0888,11.085,11.0812,11.0774,11.0736,11.0697,11.0697,11.0659,11.0659,11.0506,10.985,10.9424,10.9309,10.8736,10.8322,10.8322,10.8398,10.8475,10.8475,10.8373,10.8494,10.8671,10.9179,10.9591,10.9718,11.0294,11.0902,11.0819,11.0837,11.0322,10.9001,10.9538,10.9984,11.0155,11.0825,11.1428,11.1297,11.122,11.128,11.1246,11.1161,11.1102,11.1081,11.1058,11.1064,11.109,11.1158,11.1225,11.1172,11.1217,11.127,11.1155,11.1085,11.1085,11.1085,11.1031,11.1066,11.094,11.0856,11.0812,11.0697,11.0697,11.0175,10.9468,10.8551,10.7959,10.7226,10.7048,10.6786,10.6601,10.6436,10.6201,10.9889,10.9927,11.0194,11.0309,11.0309,11.0583,11.0697,11.0697,11.0697,11.0697,11.0697,11.0697,11.0697,11.0697,11.0697,11.0697,11.0659,11.043,11.0468,11.0659,11.0697,11.0697,11.0697,11.0697,11.0697,11.0697,11.0697,11.0697,11.0697,11.0697,11.0697,11.0697,11.0697,11.0697,11.0812,11.1264,11.1614,11.1646,11.2143,11.241,11.241,11.2404,11.2404,11.2366,11.1875,11.1608,11.1576,11.1035,11.0697,11.0697,11.0697,11.0697,11.0621,11.0468,11.0309,11.0271,11.008,10.9895,10.9889,10.9895,10.9857,10.9889,10.9889,10.9895,10.9889,11.0118,11.0308,11.034,11.0646,11.0824,11.0818,11.0818,11.0596,11.0322,11.0548,11.0707,11.069,11.1009,11.1241,11.1335,11.1256,11.1193,11.112,11.1031,11.0983,11.0955,11.0903,11.0863,11.0927,11.1014,11.1058,11.1082,11.1112,11.1122,11.1005,11.0947,11.0935,11.0947,11.0933,11.0977,11.0841,11.0773,11.0774,11.0736,11.0697,11.0417,10.971,10.9175,10.8666,10.8175,10.787,10.7659,10.7461,10.727,10.7022,11.0697,11.0697,11.0697,11.0697,11.0697,11.0697,11.0697,11.0697,11.0697,11.0697,11.0697,11.0697,11.0697,11.0697,11.0697,11.0697,11.0697,11.0697,11.0697,11.0697,11.0697,11.0697,11.0697,11.0697,11.0697,11.0697,11.0697,11.0697,11.0736,11.1041,11.1194,11.1194,11.1493,11.1646,11.1646,11.2143,11.2449,11.2525,11.2939,11.32,11.32,11.32,11.32,11.313,11.2716,11.248,11.241,11.1875,11.134,11.085,11.0697,11.0697,11.0697,11.0697,11.0697,11.0697,11.0697,11.0659,11.0697,11.0583,11.0697,11.0697,11.0697,11.0659,11.0697,11.0697,11.0697,11.0697,11.0704,11.0697,11.0704,11.0697,11.078,11.0923,11.0947,11.1024,11.1074,11.1076,11.1108,11.1161,11.1091,11.1031,11.0989,11.091,11.081,11.0815,11.0767,11.0697,11.0818,11.0863,11.0945,11.0969,11.0983,11.0914,11.085,11.0805,11.078,11.0805,11.0798,11.0786,11.0767,11.0748,11.0697,11.0697,11.0697,11.0697,11.0105,11.0022,10.9653,10.9194,10.8621,10.836,10.8118,10.7977,10.7768,11.0697,11.0697,11.0697,11.0697,11.0697,11.0697,11.0697,11.0697,11.0697,11.0697,11.0697,11.0697,11.0697,11.0697,11.0697,11.0697,11.0697,11.0697,11.0697,11.0697,11.0697,11.0697,11.0697,11.0697,11.0774,11.0888,11.085,11.0888,11.1156,11.1761,11.2066,11.2105,11.2633,11.313,11.3015,11.3206,11.3283,11.3283,11.3397,11.3512,11.3512,11.3474,11.3474,11.3474,11.3359,11.3283,11.3251,11.3053,11.2289,11.1041,11.0774,11.0697,11.0697,11.0697,11.0697,11.0697,11.0697,11.0697,11.0697,11.0697,11.0697,11.0697,11.0697,11.0697,11.0697,11.0697,11.0697,11.0697,11.0697,11.0697,11.0697,11.0697,11.071,11.0704,11.0825,11.0939,11.1048,11.1076,11.1064,11.1037,11.0965,11.088,11.0874,11.0774,11.0736,11.0723,11.071,11.0704,11.0736,11.078,11.0818,11.0825,11.0838,11.085,11.0761,11.0755,11.0736,11.0742,11.0723,11.0704,11.0717,11.0704,11.0697,11.0697,11.0697,11.0659,11.0614,11.0455,11.0264,10.9768,10.9341,10.9029,10.8882,10.8869,10.8755,11.0697,11.0697,11.0697,11.0697,11.0697,11.0697,11.0697,11.0697,11.0697,11.0697,11.0697,11.0697,11.0697,11.0697,11.0697,11.0697,11.0736,11.0736,11.0697,11.0697,11.0697,11.0697,11.0697,11.0736,11.1079,11.1576,11.1653,11.1952,11.2518,11.2748,11.2907,11.29,11.3168,11.3238,11.3244,11.3856,11.413,11.4289,11.4779,11.497,11.497,11.497,11.5047,11.5008,11.4474,11.4206,11.406,11.3512,11.2786,11.1723,11.1003,11.0697,11.0774,11.0774,11.0774,11.0774,11.0697,11.0697,11.0697,11.0697,11.0697,11.0697,11.0697,11.0697,11.0697,11.0697,11.0697,11.0697,11.0697,11.0697,11.0697,11.0697,11.0697,11.0697,11.0736,11.0818,11.0908,11.0869,11.0836,11.0898,11.0824,11.0774,11.0748,11.0729,11.0697,11.0697,11.0697,11.0697,11.0697,11.0697,11.0736,11.0736,11.0742,11.0742,11.0704,11.0704,11.0704,11.0704,11.0717,11.0717,11.0704,11.0697,11.0697,11.0697,11.0697,11.0697,11.0697,11.0614,11.0385,11.0098,11.0105,10.9869,11.0073,11.0092,10.9971,11.0697,11.0697,11.0697,11.0697,11.0697,11.0697,11.0697,11.0697,11.0697,11.0697,11.0697,11.0697,11.0697,11.0697,11.0697,11.0927,11.1188,11.1226,11.1455,11.1761,11.1799,11.1608,11.1423,11.1531,11.2028,11.2449,11.2487,11.2748,11.3206,11.3557,11.3709,11.3824,11.4091,11.4238,11.4352,11.4703,11.5008,11.5092,11.5467,11.5696,11.5696,11.5696,11.5696,11.562,11.52,11.5008,11.4894,11.4206,11.3366,11.2601,11.2028,11.1723,11.1723,11.1423,11.1264,11.1226,11.0927,11.0697,11.0697,11.0697,11.0697,11.0697,11.0697,11.0697,11.0697,11.0697,11.0697,11.0697,11.0697,11.0697,11.0697,11.0697,11.0697,11.0697,11.0697,11.0736,11.0818,11.078,11.0736,11.0767,11.0748,11.0697,11.0697,11.0697,11.0697,11.0697,11.0697,11.0697,11.0697,11.0697,11.0697,11.0697,11.0697,11.0697,11.0697,11.0697,11.06,11.06,11.0538,11.0576,11.05,11.0538,11.0697,11.0697,11.0697,11.0697,11.0697,11.0601,11.0355,11.0273,11.0556,11.0499,11.0347,11.0341,11.0379,11.0697,11.0697,11.0697,11.0697,11.0697,11.0697,11.0697,11.0697,11.0697,11.0774,11.0888,11.0888,11.1073,11.0965,11.1309,11.1455,11.2105,11.2105,11.2487,11.2869,11.3091,11.2945,11.2493,11.2709,11.3053,11.3283,11.3321,11.3474,11.3817,11.4359,11.4595,11.4709,11.5276,11.5582,11.5429,11.5582,11.5658,11.5582,11.562,11.5696,11.5696,11.5696,11.5696,11.5696,11.5658,11.5543,11.5429,11.4977,11.4283,11.3512,11.3321,11.3053,11.3015,11.2449,11.2143,11.2028,11.1531,11.1118,11.0888,11.0965,11.0774,11.0736,11.0697,11.0697,11.0697,11.0697,11.0697,11.0697,11.0697,11.0697,11.0697,11.0697,11.0697,11.0697,11.0697,11.0697,11.0697,11.0697,11.0697,11.0697,11.0697,11.0697,11.0697,11.0697,11.0697,11.0697,11.0697,11.0697,11.0697,11.0697,11.0697,11.0697,11.0697,11.0697,11.0697,11.0697,11.0554,11.0437,11.0359,11.0296,11.0137,11.022,11.0538,11.0697,11.0697,11.0691,11.0684,11.0542,11.0184,10.9973,10.9925,10.9803,10.9696,10.9754,10.9818,11.0697,11.0697,11.0697,11.0697,11.0697,11.0697,11.0736,11.0736,11.0736,11.1188,11.1614,11.1723,11.2066,11.2595,11.2518,11.2792,11.2939,11.2977,11.3091,11.3244,11.3983,11.4136,11.3792,11.3588,11.3626,11.4053,11.4251,11.4512,11.5047,11.52,11.5429,11.5467,11.5505,11.5696,11.5696,11.5696,11.5696,11.5696,11.5696,11.5696,11.5696,11.5696,11.5696,11.5696,11.5696,11.5696,11.5696,11.5543,11.5352,11.4932,11.4008,11.3397,11.3321,11.3091,11.2939,11.2862,11.2748,11.2334,11.1837,11.1608,11.1379,11.0774,11.0697,11.0697,11.0697,11.0697,11.0697,11.0697,11.0697,11.0697,11.0697,11.0697,11.0697,11.0697,11.0697,11.0697,11.0697,11.0697,11.0697,11.0697,11.0697,11.0697,11.0697,11.0697,11.0697,11.0697,11.0697,11.0697,11.0697,11.0697,11.0697,11.0697,11.0697,11.0691,11.0652,11.0491,11.016,10.9947,10.9869,10.9809,10.9672,10.98,11.0078,11.0391,11.0697,11.0588,11.0218,11.0049,10.9614,10.9475,10.9264,10.9075,10.8968,10.9115,10.9118,11.0697,11.0736,11.1156,11.1309,11.1379,11.1684,11.1875,11.1875,11.1875,11.2105,11.248,11.2557,11.2824,11.32,11.3206,11.3359,11.3862,11.4199,11.4391,11.4505,11.4894,11.5053,11.5008,11.4658,11.4665,11.5008,11.5047,11.5352,11.562,11.5696,11.5658,11.5696,11.5696,11.5696,11.5696,11.5696,11.5696,11.5696,11.5696,11.5696,11.5696,11.5696,11.5696,11.5696,11.5696,11.5696,11.5696,11.5696,11.5696,11.5467,11.4849,11.4352,11.4283,11.4015,11.3824,11.3786,11.3359,11.2824,11.2219,11.1952,11.157,11.0774,11.0697,11.0697,11.0697,11.0697,11.0697,11.0697,11.0697,11.0697,11.0697,11.0697,11.0697,11.0697,11.0697,11.0697,11.0697,11.0697,11.0697,11.0697,11.0697,11.0697,11.0697,11.0697,11.0697,11.0697,11.0697,11.0697,11.0697,11.0697,11.0697,11.0697,11.0697,11.0678,11.0588,11.03,10.9704,10.9379,10.9098,10.9023,10.8936,10.922,10.9553,10.9758,10.9859,10.9605,10.9294,10.9147,10.894,10.8562,10.8303,10.8219,10.8271,10.8446,10.8343,11.1073,11.1156,11.1875,11.2181,11.2296,11.2862,11.3091,11.313,11.32,11.3168,11.3397,11.3397,11.355,11.3626,11.3703,11.4053,11.4665,11.52,11.5391,11.5467,11.5467,11.5543,11.5543,11.5505,11.5505,11.5696,11.562,11.5696,11.5696,11.5696,11.5696,11.5696,11.5696,11.5696,11.5696,11.5696,11.5696,11.5696,11.5696,11.5696,11.5696,11.5696,11.5696,11.5696,11.5696,11.5696,11.5696,11.5696,11.5696,11.5696,11.5696,11.5696,11.5543,11.5123,11.4671,11.4633,11.397,11.3168,11.2487,11.2066,11.1608,11.0774,11.0697,11.0697,11.0697,11.0697,11.0697,11.0697,11.0697,11.0697,11.0697,11.0697,11.0697,11.0697,11.0697,11.0697,11.0697,11.0697,11.0697,11.0697,11.0697,11.0697,11.0697,11.0697,11.0697,11.0697,11.0697,11.0697,11.0697,11.0697,11.0697,11.0697,11.0697,11.0378,11.0246,11.0055,10.9484,10.8705,10.8368,10.8227,10.8114,10.8078,10.8295,10.8685,10.8762,10.8664,10.8597,10.8475,10.8173,10.7628,10.745,10.7442,10.7619,10.7814,10.7639,11.2786,11.2786,11.2939,11.2977,11.3015,11.3168,11.3321,11.32,11.3321,11.3665,11.4244,11.4289,11.4665,11.5047,11.5231,11.5391,11.5429,11.562,11.5696,11.5696,11.5696,11.5696,11.5696,11.5696,11.5696,11.5696,11.5696,11.5696,11.5696,11.5696,11.5696,11.5696,11.5696,11.5696,11.5683,11.569,11.5669,11.5636,11.5642,11.5649,11.5649,11.5649,11.5649,11.5649,11.5642,11.5649,11.5669,11.5683,11.5696,11.5696,11.5696,11.569,11.5658,11.5505,11.5429,11.5238,11.4703,11.3862,11.3015,11.2372,11.1646,11.0965,11.0697,11.0697,11.0697,11.0697,11.0697,11.0697,11.0697,11.0697,11.0697,11.0697,11.0697,11.0697,11.0697,11.0697,11.0697,11.0697,11.0697,11.0697,11.0697,11.0697,11.0697,11.0697,11.0697,11.0697,11.0697,11.0697,11.0697,11.0697,11.0697,11.0697,11.0697,11.0246,10.9833,10.9619,10.9195,10.8158,10.7642,10.7358,10.7182,10.6826,10.6962,10.7638,10.8094,10.8251,10.8108,10.7857,10.7616,10.7275,10.7035,10.6786,10.6985,10.7145,10.6975,11.32,11.3244,11.3671,11.3862,11.3939,11.4321,11.4512,11.4505,11.4505,11.4703,11.5008,11.5123,11.5314,11.562,11.5696,11.5696,11.5696,11.5696,11.5696,11.5696,11.5696,11.5696,11.5696,11.5696,11.5696,11.5696,11.5696,11.5696,11.5696,11.5696,11.5696,11.5696,11.5696,11.5663,11.5602,11.5581,11.5578,11.5505,11.5515,11.5515,11.5508,11.5508,11.5508,11.5508,11.5508,11.5508,11.5508,11.5508,11.555,11.556,11.5619,11.5622,11.5708,11.5734,11.5734,11.5658,11.5276,11.4474,11.3474,11.2754,11.2105,11.0888,11.0697,11.0697,11.0697,11.0697,11.0697,11.0697,11.0697,11.0697,11.0697,11.0697,11.0697,11.0697,11.0697,11.0697,11.0697,11.0697,11.0697,11.0697,11.0697,11.0697,11.0697,11.0697,11.0697,11.0697,11.0697,11.0697,11.0697,11.0697,11.0697,11.0697,11.0672,11.0252,10.9724,10.9301,10.8907,10.789,10.711,10.6798,10.6633,10.6486,10.6591,10.7034,10.7374,10.7673,10.7352,10.6985,10.6941,10.6908,10.6728,10.6575,10.6471,10.6397,10.6386,11.3703,11.3779,11.4435,11.4748,11.4824,11.5391,11.5658,11.5696,11.5658,11.562,11.5696,11.5696,11.5658,11.5696,11.5696,11.5696,11.5696,11.5696,11.5696,11.5696,11.5696,11.5696,11.5696,11.5696,11.5696,11.5696,11.5696,11.5696,11.5696,11.5696,11.5696,11.5683,11.5676,11.5608,11.5512,11.5494,11.5395,11.5331,11.5251,11.5244,11.5207,11.5192,11.5192,11.5154,11.5192,11.5176,11.5258,11.522,11.5338,11.5476,11.5668,11.5876,11.5934,11.5944,11.5964,11.5887,11.5543,11.4467,11.3588,11.2601,11.1799,11.0812,11.0697,11.0697,11.0697,11.0697,11.0697,11.0697,11.0697,11.0697,11.0697,11.0697,11.0697,11.0697,11.0697,11.0697,11.0697,11.0697,11.0697,11.0697,11.0691,11.0621,11.0582,11.0697,11.0697,11.0697,11.0697,11.0697,11.0697,11.0697,11.0697,11.0697,11.0575,11.029,10.9716,10.8988,10.85,10.7684,10.6986,10.6536,10.6475,10.6408,10.6554,10.6675,10.6675,10.6843,10.647,10.6386,10.6549,10.6584,10.6471,10.6386,10.6386,10.6386,10.6386,11.5391,11.5429,11.5505,11.5543,11.5543,11.5658,11.5696,11.5696,11.5696,11.5696,11.5696,11.5696,11.5696,11.5696,11.5696,11.5696,11.5696,11.5696,11.5696,11.5696,11.5696,11.5696,11.5696,11.5696,11.5696,11.5696,11.5696,11.5696,11.5696,11.5696,11.5696,11.5683,11.5581,11.5491,11.548,11.5345,11.5309,11.5258,11.5095,11.4914,11.4792,11.4731,11.4753,11.4761,11.4761,11.4807,11.4937,11.4968,11.5073,11.5364,11.6162,11.6583,11.6702,11.6774,11.6822,11.6186,11.5002,11.3397,11.3053,11.2143,11.1309,11.0812,11.0697,11.0697,11.0697,11.0697,11.0697,11.0697,11.0697,11.0697,11.0697,11.0697,11.0697,11.0697,11.0697,11.0697,11.0684,11.0402,11.0412,11.0358,11.0232,11.0365,11.0405,11.0562,11.0697,11.0697,11.0697,11.0659,11.0614,11.0576,11.0456,11.0391,11.0093,10.9775,10.9401,10.8727,10.818,10.7469,10.6908,10.6397,10.6386,10.6386,10.6386,10.647,10.6386,10.6386,10.6386,10.6386,10.6386,10.6386,10.6386,10.6386,10.6386,10.6386,10.6386,11.5696,11.5696,11.5696,11.5696,11.5696,11.5696,11.5696,11.5696,11.5696,11.5696,11.5696,11.5696,11.5696,11.5696,11.5696,11.5696,11.5696,11.5696,11.5696,11.5683,11.5683,11.5683,11.5696,11.5696,11.5696,11.5696,11.5696,11.5696,11.5696,11.5696,11.5696,11.5669,11.5547,11.5466,11.5374,11.5148,11.4952,11.4791,11.4594,11.4378,11.4288,11.4205,11.4146,11.4146,11.4146,11.4255,11.4386,11.4524,11.4691,11.5112,11.6043,11.6391,11.6368,11.6518,11.6798,11.611,11.4894,11.3786,11.313,11.2066,11.1347,11.0812,11.0697,11.0697,11.0697,11.0697,11.0697,11.0697,11.0697,11.0697,11.0697,11.0697,11.0697,11.0659,11.0538,11.0517,11.0441,11.0135,10.9984,10.9863,10.9782,10.9782,10.9928,11.0204,11.0304,11.0417,11.0417,11.0493,11.0341,11.022,11.01,11.0006,10.9588,10.9177,10.8768,10.8268,10.7922,10.7307,10.6854,10.646,10.6397,10.6386,10.6386,10.6386,10.6386,10.6386,10.6386,10.6386,10.6386,10.6386,10.6386,10.6386,10.6386,10.6386,10.6386,11.5696,11.5696,11.5696,11.5696,11.5696,11.5696,11.5696,11.5696,11.5696,11.5696,11.5696,11.5696,11.5696,11.5696,11.5696,11.5696,11.5696,11.5696,11.5696,11.5676,11.5536,11.5515,11.5536,11.5563,11.5495,11.5696,11.5696,11.5696,11.5696,11.5696,11.5696,11.5683,11.5529,11.5381,11.5185,11.4891,11.465,11.44,11.4124,11.3919,11.377,11.3592,11.3492,11.3447,11.3474,11.3574,11.377,11.3984,11.4255,11.4747,11.5811,11.6239,11.6124,11.6567,11.6746,11.6117,11.5092,11.4168,11.3557,11.2754,11.1914,11.1309,11.0736,11.0697,11.0697,11.0697,11.0697,11.0697,11.0697,11.0697,11.0665,11.0549,11.0312,11.0205,11.0137,11.0178,11.009,10.9626,10.9323,10.927,10.9091,10.8853,10.9115,10.9627,10.991,11.004,11.0175,11.0225,10.9962,10.969,10.95,10.9357,10.9118,10.8708,10.8475,10.8038,10.7619,10.7199,10.6749,10.6481,10.6408,10.6386,10.6386,10.6386,10.6386,10.6386,10.6386,10.6386,10.6386,10.6386,10.6386,10.6386,10.6386,10.6386,10.6386,11.5696,11.5696,11.5696,11.5696,11.5696,11.5696,11.5696,11.5696,11.5696,11.5696,11.5696,11.5696,11.5696,11.5696,11.5696,11.5696,11.5696,11.5696,11.5615,11.5359,11.5099,11.5143,11.526,11.5231,11.5173,11.5629,11.5696,11.5696,11.5663,11.5529,11.5636,11.5656,11.541,11.5191,11.4983,11.4659,11.4358,11.4082,11.3805,11.3529,11.3281,11.3027,11.2836,11.2719,11.2797,11.2961,11.3169,11.3538,11.3872,11.4284,11.5603,11.6235,11.6152,11.666,11.6784,11.6269,11.5391,11.4671,11.4244,11.3474,11.2709,11.1952,11.1385,11.1003,11.0927,11.0774,11.0736,11.062,11.0452,11.049,11.0358,11.016,10.9736,10.9609,10.9441,10.9258,10.9151,10.8832,10.8602,10.8584,10.8389,10.8056,10.7994,10.8449,10.9059,10.9252,10.9303,10.9332,10.9113,10.8841,10.8696,10.8569,10.8503,10.836,10.833,10.7876,10.7267,10.7008,10.6677,10.6476,10.6397,10.6386,10.6386,10.6386,10.6386,10.6386,10.6386,10.6386,10.6386,10.6386,10.6386,10.6386,10.6386,10.6386,10.6386,11.5696,11.5696,11.5696,11.5696,11.5696,11.5696,11.5696,11.5696,11.5696,11.5696,11.5696,11.5696,11.5696,11.5696,11.5696,11.5696,11.5636,11.515,11.5092,11.4974,11.4785,11.4793,11.4966,11.5245,11.5467,11.5629,11.5676,11.5696,11.5676,11.5253,11.5048,11.5027,11.5005,11.5103,11.4891,11.4511,11.4174,11.3898,11.3575,11.3272,11.3084,11.265,11.2382,11.2331,11.2226,11.2389,11.2591,11.3084,11.3464,11.4118,11.5437,11.5826,11.6018,11.6525,11.6624,11.6346,11.5467,11.5238,11.4901,11.4047,11.3053,11.2862,11.241,11.2028,11.157,11.1487,11.0849,11.0478,11.012,11.0163,10.9378,10.9099,10.8915,10.8839,10.8643,10.8408,10.8234,10.801,10.7861,10.7832,10.7449,10.7057,10.7077,10.7158,10.7841,10.8369,10.844,10.8435,10.821,10.805,10.7917,10.7763,10.7692,10.7542,10.7444,10.7138,10.6824,10.6728,10.6574,10.6486,10.6386,10.6386,10.6386,10.6386,10.6386,10.6386,10.6386,10.6386,10.6386,10.6386,10.6386,10.6386,10.6386,10.6386,10.6386,11.5696,11.5696,11.5696,11.5696,11.5696,11.5696,11.5696,11.5696,11.5696,11.5696,11.5696,11.5696,11.5696,11.5696,11.5696,11.5488,11.5267,11.4906,11.4686,11.4508,11.4397,11.4577,11.4823,11.4906,11.4876,11.5245,11.5084,11.4981,11.4853,11.4476,11.4324,11.433,11.4368,11.4351,11.4489,11.4473,11.4311,11.4321,11.4159,11.385,11.3773,11.3112,11.2514,11.2389,11.2142,11.202,11.223,11.266,11.3122,11.3818,11.4698,11.5362,11.5677,11.589,11.6152,11.5912,11.5683,11.5676,11.5301,11.455,11.3626,11.3557,11.3168,11.2824,11.2505,11.2202,11.1427,11.0763,11.028,10.9669,10.8908,10.8848,10.842,10.8314,10.7762,10.7467,10.7472,10.7277,10.7186,10.7094,10.6765,10.658,10.6632,10.6739,10.6986,10.7479,10.7432,10.7466,10.7447,10.7281,10.7149,10.7004,10.6854,10.6675,10.645,10.6528,10.6615,10.659,10.6465,10.6471,10.6386,10.6386,10.6386,10.6386,10.6386,10.6386,10.6386,10.6376,10.6386,10.6386,10.6386,10.6386,10.6386,10.6386,10.6386,11.5696,11.5696,11.5696,11.5696,11.5696,11.5696,11.5696,11.5696,11.5696,11.5696,11.5696,11.5696,11.5696,11.5676,11.5629,11.5253,11.4778,11.4508,11.4397,11.4292,11.3796,11.4365,11.4616,11.4515,11.4235,11.434,11.4219,11.397,11.3774,11.3588,11.3527,11.3431,11.3314,11.3437,11.3699,11.4552,11.5314,11.5916,11.5723,11.5384,11.4899,11.4061,11.3432,11.2739,11.2322,11.2174,11.2051,11.2409,11.2874,11.3438,11.4031,11.4613,11.4929,11.5273,11.5473,11.5439,11.5488,11.5567,11.5546,11.4809,11.4404,11.4364,11.4053,11.3512,11.3131,11.263,11.2084,11.144,11.0975,11.0334,10.9695,10.9033,10.838,10.7907,10.7422,10.7041,10.7074,10.6806,10.6769,10.6735,10.6538,10.6397,10.6408,10.6429,10.646,10.6564,10.6455,10.6507,10.6712,10.6722,10.6675,10.6628,10.6507,10.647,10.6386,10.6386,10.6429,10.6386,10.6386,10.6386,10.6386,10.6386,10.6386,10.6386,10.6386,10.6386,10.6376,10.6376,10.6323,10.6281,10.6365,10.6386,10.6386,10.6339,10.6292,11.5696,11.5696,11.5696,11.5696,11.5696,11.5696,11.5696,11.5696,11.5696,11.5696,11.5696,11.5696,11.5696,11.5608,11.5173,11.4778,11.4452,11.3284,11.3175,11.3736,11.3158,11.3402,11.377,11.3873,11.3635,11.3719,11.3527,11.3367,11.3573,11.3001,11.2718,11.263,11.2509,11.2891,11.3728,11.4544,11.5188,11.5816,11.5882,11.5713,11.5472,11.4885,11.417,11.3283,11.2898,11.247,11.2016,11.2361,11.2621,11.2962,11.3497,11.3832,11.407,11.4378,11.4332,11.4316,11.4292,11.4251,11.4214,11.396,11.4345,11.4681,11.4824,11.4308,11.4088,11.3331,11.2774,11.1992,11.1091,11.034,10.9742,10.9135,10.8604,10.8386,10.7993,10.7515,10.73,10.6759,10.6481,10.6502,10.6386,10.6386,10.6386,10.6386,10.6386,10.6386,10.6386,10.6386,10.6544,10.6507,10.6507,10.647,10.6423,10.6423,10.6386,10.6386,10.6386,10.6386,10.6386,10.6386,10.6386,10.6386,10.6386,10.6386,10.6386,10.6386,10.6338,10.6264,10.6174,10.6127,10.6186,10.6197,10.6135,10.6087,10.6003,11.5696,11.5696,11.5696,11.5696,11.5696,11.5696,11.5696,11.5696,11.5696,11.5696,11.5656,11.546,11.5295,11.5077,11.4616,11.3941,11.3762,11.3231,11.2496,11.3121,11.2935,11.3204,11.3402,11.3204,11.3019,11.3029,11.2812,11.2667,11.255,11.2143,11.1928,11.1862,11.18,11.269,11.3694,11.4642,11.559,11.6404,11.6853,11.6702,11.6348,11.5841,11.5238,11.4384,11.3699,11.2997,11.249,11.234,11.2372,11.2603,11.2877,11.316,11.3288,11.3422,11.3447,11.3483,11.3491,11.3527,11.358,11.3597,11.4048,11.4572,11.4944,11.4693,11.4117,11.3219,11.2733,11.1972,11.0999,11.0415,11.0,10.939,10.9111,10.8929,10.8529,10.8087,10.7845,10.7341,10.6874,10.6838,10.6497,10.6497,10.6386,10.6386,10.6386,10.6386,10.6386,10.6386,10.6386,10.6386,10.6386,10.6386,10.6386,10.6386,10.6386,10.6386,10.6386,10.6386,10.6386,10.6386,10.6386,10.6386,10.6386,10.6376,10.6365,10.6312,10.6189,10.6092,10.5954,10.5898,10.5928,10.5919,10.5862,10.5807,10.5767,11.5696,11.5696,11.5696,11.5696,11.5696,11.5696,11.5696,11.5683,11.5656,11.5649,11.5669,11.4981,11.4816,11.4624,11.3978,11.3402,11.2889,11.3185,11.2945,11.2726,11.2774,11.3149,11.2982,11.2622,11.2356,11.2068,11.1857,11.1726,11.1316,11.1421,11.1367,11.1349,11.1464,11.2525,11.3716,11.4722,11.5896,11.692,11.745,11.7191,11.677,11.6599,11.5775,11.4887,11.3984,11.3271,11.2686,11.2311,11.2156,11.226,11.2467,11.2695,11.2944,11.3232,11.3368,11.3349,11.3249,11.3205,11.3112,11.3085,11.3121,11.3385,11.3402,11.3383,11.3407,11.2987,11.2627,11.225,11.1573,11.0909,11.032,11.0071,10.9811,10.9455,10.904,10.8799,10.8699,10.8285,10.7803,10.7399,10.69,10.668,10.646,10.6386,10.646,10.6386,10.6386,10.6386,10.6386,10.6386,10.6386,10.6386,10.6386,10.6386,10.6386,10.6386,10.6386,10.6386,10.6386,10.6386,10.6386,10.6386,10.6386,10.6376,10.6381,10.6269,10.6021,10.5823,10.5648,10.5615,10.5637,10.5625,10.5599,10.5584,10.5589,11.5696,11.5696,11.5696,11.5696,11.5696,11.5696,11.5696,11.5649,11.5164,11.5188,11.5656,11.4936,11.4861,11.5281,11.4594,11.4115,11.3594,11.3175,11.3047,11.2794,11.2423,11.2403,11.2233,11.1975,11.1631,11.1507,11.1338,11.121,11.1254,11.121,11.121,11.1265,11.1383,11.2459,11.3466,11.4258,11.5683,11.6793,11.734,11.7086,11.6611,11.6207,11.5375,11.4386,11.3779,11.3056,11.2433,11.2111,11.1926,11.1999,11.19,11.1925,11.1946,11.1899,11.1847,11.1847,11.1826,11.1826,11.1868,11.1888,11.1945,11.2037,11.1986,11.263,11.2822,11.2794,11.2464,11.2183,11.1805,11.1111,11.091,11.0778,11.0538,11.0256,10.9878,10.9636,10.9478,10.9053,10.8524,10.8086,10.7561,10.7047,10.679,10.6533,10.6607,10.646,10.6386,10.6386,10.6386,10.6386,10.6386,10.6386,10.6386,10.6386,10.6386,10.6386,10.6386,10.6386,10.6386,10.6386,10.6386,10.6386,10.6386,10.6328,10.6252,10.6039,10.5762,10.5578,10.5372,10.5307,10.5307,10.5318,10.5315,10.5331,10.5344,11.5696,11.5696,11.5696,11.5696,11.5696,11.5696,11.5696,11.5584,11.5193,11.531,11.5563,11.4898,11.4869,11.5026,11.4421,11.3873,11.3491,11.3176,11.2794,11.2047,11.193,11.1851,11.1689,11.1486,11.1327,11.121,11.121,11.121,11.121,11.121,11.121,11.1247,11.143,11.2522,11.3526,11.4265,11.4943,11.583,11.6268,11.618,11.5809,11.5402,11.4514,11.37,11.3293,11.2755,11.22,11.1968,11.1705,11.1667,11.1425,11.1404,11.1404,11.1283,11.1229,11.1305,11.1327,11.136,11.1382,11.1327,11.1265,11.121,11.1221,11.1673,11.1986,11.2027,11.2078,11.2017,11.1599,11.1269,11.1432,11.1481,11.1323,11.1137,11.081,11.0472,11.0098,10.9688,10.924,10.8777,10.8259,10.7671,10.7304,10.7011,10.668,10.6497,10.6386,10.6386,10.6386,10.6386,10.6386,10.6386,10.6386,10.6386,10.6386,10.6386,10.6386,10.6386,10.6386,10.6386,10.6386,10.6386,10.6386,10.6252,10.6068,10.5848,10.5604,10.5314,10.5103,10.5096,10.5062,10.5079,10.5097,10.5094,10.5055,11.5696,11.5696,11.5696,11.5696,11.5696,11.5696,11.5696,11.5683,11.5529,11.5649,11.5515,11.4823,11.45,11.4608,11.402,11.3349,11.313,11.2992,11.2503,11.136,11.1731,11.1742,11.141,11.121,11.121,11.121,11.121,11.121,11.121,11.121,11.1247,11.1284,11.1955,11.2808,11.3564,11.4115,11.455,11.4762,11.5006,11.49,11.4881,11.4656,11.4318,11.3805,11.3325,11.2839,11.2393,11.191,11.1404,11.1262,11.1232,11.1243,11.1232,11.1195,11.1221,11.121,11.121,11.121,11.121,11.121,11.121,11.121,11.1221,11.1327,11.1486,11.1535,11.1663,11.1695,11.1316,11.1229,11.1338,11.1371,11.1287,11.121,11.1041,11.0883,11.0715,11.0315,10.9897,10.9448,10.9066,10.8479,10.7965,10.7671,10.7373,10.6838,10.6628,10.6638,10.6423,10.6423,10.6386,10.6386,10.6386,10.6386,10.6386,10.6386,10.6386,10.6386,10.6386,10.6386,10.6386,10.6386,10.6386,10.6178,10.5944,10.5707,10.5509,10.5207,10.4991,10.4957,10.497,10.4899,10.4887,10.4947,10.4935,11.5696,11.5696,11.5696,11.5696,11.5696,11.5696,11.569,11.5649,11.5077,11.5157,11.5404,11.4452,11.4095,11.4357,11.3834,11.3258,11.3158,11.2718,11.2385,11.181,11.1752,11.1572,11.1276,11.121,11.121,11.121,11.121,11.121,11.121,11.1258,11.1515,11.2029,11.2396,11.2811,11.3435,11.3912,11.3985,11.3887,11.3632,11.346,11.325,11.3022,11.2691,11.2238,11.1767,11.1847,11.1588,11.1456,11.1276,11.1221,11.1221,11.1221,11.121,11.121,11.121,11.121,11.121,11.121,11.121,11.121,11.121,11.121,11.121,11.121,11.1232,11.121,11.121,11.121,11.121,11.121,11.121,11.121,11.121,11.121,11.121,11.121,11.121,11.0869,11.0454,11.0135,10.979,10.9323,10.8736,10.8343,10.8008,10.7735,10.7436,10.7216,10.6675,10.647,10.6386,10.6386,10.6386,10.6386,10.6386,10.6386,10.6386,10.6386,10.6386,10.6386,10.6376,10.6302,10.6161,10.6023,10.5838,10.5629,10.5375,10.5126,10.4947,10.4924,10.4887,10.4887,10.4887,10.4887,10.4887,11.5696,11.5696,11.5696,11.5696,11.5696,11.5696,11.5522,11.5188,11.4762,11.4639,11.4663,11.3953,11.3727,11.4066,11.3641,11.3149,11.2954,11.2552,11.2051,11.17,11.1503,11.1327,11.121,11.121,11.121,11.121,11.121,11.121,11.121,11.1221,11.1515,11.2029,11.2212,11.2701,11.3215,11.3361,11.3435,11.3068,11.2627,11.2322,11.2065,11.1845,11.1735,11.1284,11.121,11.121,11.121,11.121,11.121,11.121,11.121,11.121,11.121,11.121,11.121,11.121,11.121,11.121,11.121,11.121,11.121,11.121,11.121,11.121,11.121,11.121,11.121,11.121,11.121,11.121,11.121,11.121,11.121,11.121,11.121,11.121,11.121,11.1063,11.0869,11.0733,11.045,11.0157,10.9654,10.9323,10.8904,10.8254,10.805,10.7699,10.7158,10.6638,10.6544,10.6423,10.6423,10.6423,10.6386,10.6386,10.6386,10.6386,10.6386,10.6307,10.6239,10.6077,10.5935,10.5842,10.5677,10.5481,10.526,10.5077,10.496,10.4887,10.4887,10.4887,10.4887,10.4887,10.4887,11.5696,11.5696,11.5696,11.5696,11.5669,11.5557,11.5217,11.4655,11.4365,11.3907,11.3402,11.3204,11.3231,11.3322,11.3158,11.2707,11.2286,11.2031,11.1684,11.1432,11.1251,11.121,11.121,11.121,11.121,11.121,11.121,11.121,11.121,11.1405,11.1625,11.1662,11.2139,11.2737,11.2921,11.3215,11.3582,11.3068,11.2664,11.2286,11.1808,11.1284,11.1247,11.121,11.121,11.121,11.121,11.121,11.121,11.121,11.121,11.121,11.121,11.121,11.121,11.121,11.121,11.121,11.121,11.121,11.121,11.121,11.121,11.121,11.121,11.121,11.121,11.121,11.121,11.121,11.121,11.121,11.121,11.121,11.121,11.121,11.121,11.121,11.1173,11.1137,11.0964,11.0744,11.0535,11.0168,10.969,10.9004,10.8511,10.8098,10.7678,10.7242,10.6927,10.6712,10.6554,10.6507,10.6423,10.6386,10.6386,10.6386,10.6376,10.6228,10.6075,10.5932,10.5798,10.568,10.5527,10.5349,10.5251,10.5079,10.5008,10.4887,10.4887,10.4887,10.4887,10.4887,10.4887,11.5696,11.5696,11.5696,11.5683,11.5563,11.5055,11.4717,11.4397,11.323,11.2622,11.2445,11.1934,11.193,11.2503,11.1857,11.1572,11.1695,11.1535,11.1453,11.1243,11.121,11.121,11.121,11.121,11.121,11.121,11.121,11.121,11.1478,11.1919,11.248,11.2994,11.3791,11.4158,11.4268,11.4341,11.3974,11.3435,11.3215,11.3031,11.2737,11.2139,11.1284,11.121,11.121,11.121,11.121,11.121,11.121,11.121,11.121,11.121,11.121,11.121,11.121,11.121,11.121,11.121,11.121,11.121,11.121,11.121,11.121,11.121,11.121,11.121,11.121,11.121,11.121,11.121,11.121,11.121,11.121,11.121,11.121,11.121,11.121,11.121,11.1173,11.1173,11.1137,11.1038,11.1001,11.0733,11.0491,10.9929,10.953,10.9118,10.8523,10.7972,10.7389,10.7148,10.6895,10.6544,10.6386,10.6386,10.6386,10.6386,10.6291,10.6062,10.5915,10.5771,10.563,10.5447,10.5369,10.5278,10.5139,10.5044,10.4971,10.4887,10.4887,10.4887,10.4887,10.4887,10.4887]},{"header":{"parameterUnit":"m.s-1","parameterCategory":1,"la1":31.0,"la2":29.5877,"lo1":-88.7671,"lo2":-86.6584,"dy":0.0162,"dx":0.0185,"nx":115,"ny":88,"refTime":"2024-02-14T06:00:00:Z","depth":0,"parameterNumber":3,"parameterNumberName":"V-component_of_WINDS"},"data":[0.0,0.0,0.0,0.0,0.0,0.0,0.0,0.0,0.0,0.0,0.0,0.0,0.0,0.0,0.0,0.0,0.0,0.0,0.0,0.0,0.0,0.0,0.0,0.0,0.0,0.0,0.0,0.0,0.0,0.0,0.0,0.0,0.0,0.0,0.0,0.0,0.0,0.0,0.0,0.0,0.0,0.0,0.0,0.0,0.0,0.0,0.0,0.0,0.0,0.0,0.0,0.0,0.0,0.0,0.0,0.0,0.0,0.0,0.0,0.0,0.0,0.0,0.0,0.0,0.0,0.0,0.0,0.0,0.0,0.0,0.0,0.0,0.0,0.0,0.0,0.0,0.0,0.0,0.0,0.0,0.0,0.0,0.0,0.0,0.0,0.0,0.0,0.0,0.0,0.0,0.0,0.0,0.0,0.0,0.0,0.0,0.0,0.0,0.0,0.0,0.0,0.0,0.0,0.0,0.0,0.0,0.0,0.0,0.0,0.0,0.0,0.0,0.0,0.0,0.0,0.0,0.0,0.0,0.0,0.0,0.0,0.0,0.0,0.0,0.0,0.0,0.0,0.0,0.0,0.0,0.0,0.0,0.0,0.0,0.0,0.0,0.0,0.0,0.0,0.0,0.0,0.0,0.0,0.0,0.0,0.0,0.0,0.0,0.0,0.0,0.0,0.0,0.0,0.0,0.0,0.0,0.0,0.0,0.0,0.0,0.0,0.0,0.0,0.0,0.0,0.0,0.0,0.0,0.0,0.0,0.0,0.0,0.0,0.0,0.0,0.0,0.0,0.0,0.0,0.0,0.0,0.0,0.0,0.0,0.0,0.0,0.0,0.0,0.0,0.0,0.0,0.0,0.0,0.0,0.0,0.0,0.0,0.0,0.0,0.0,0.0,0.0,0.0,0.0,0.0,0.0,0.0,0.0,0.0,0.0,0.0,0.0,0.0,0.0,0.0,0.0,0.0,0.0,0.0,0.0,0.0,0.0,0.0,0.0,0.0,0.0,0.0,0.0,0.0,0.0,0.0,0.0,0.0,0.0,0.0,0.0,0.0,0.0,0.0,0.0,0.0,0.0,0.0,0.0,0.0,0.0,0.0,0.0,0.0,0.0,0.0,0.0,0.0,0.0,0.0,0.0,0.0,0.0,0.0,0.0,0.0,0.0,0.0,0.0,0.0,0.0,0.0,0.0,0.0,0.0,0.0,0.0,0.0,0.0,0.0,0.0,0.0,0.0,0.0,0.0,0.0,0.0,0.0,0.0,0.0,0.0,0.0,0.0,0.0,0.0,0.0,0.0,0.0,0.0,0.0,0.0,0.0,0.0,0.0,0.0,0.0,0.0,0.0,0.0,0.0,0.0,0.0,0.0,0.0,0.0,0.0,0.0,0.0,0.0,0.0,0.0,0.0,0.0,0.0,0.0,0.0,0.0,0.0,0.0,0.0,0.0,0.0,0.0,0.0,0.0,0.0,0.0,0.0,0.0,0.0,0.0,0.0,0.0,0.0,0.0,0.0,0.0,0.0,0.0,0.0,0.0,0.0,0.0,0.0,0.0,0.0,0.0,0.0,0.0,0.0,0.0,0.0,0.0,0.0,0.0,0.0,0.0,0.0,0.0,0.0,0.0,0.0,0.0,0.0,0.0,0.0,0.0,0.0,0.0,0.0,0.0,0.0,0.0,0.0,0.0,0.0,0.0,0.0,0.0,0.0,0.0,0.0,0.0,0.0,0.0,0.0,0.0,0.0,0.0,0.0,0.0,0.0,0.0,0.0,0.0,0.0,0.0,0.0,0.0,0.0,0.0,0.0,0.0,0.0,0.0,0.0,0.0,0.0,0.0,0.0,0.0,0.0,0.0,0.0,0.0,0.0,0.0,0.0,0.0,0.0,0.0,0.0,0.0,0.0,0.0,0.0,0.0,0.0,0.0,0.0,0.0,0.0,0.0,0.0,0.0,0.0,0.0,0.0,0.0,0.0,0.0,0.0,0.0,0.0,0.0,0.0,0.0,0.0,0.0,0.0,0.0,0.0,0.0,0.0,0.0,0.0,0.0,0.0,0.0,0.0,0.0,0.0,0.0,0.0,0.0,0.0,0.0,0.0,0.0,0.0,0.0,0.0,0.0,0.0,0.0,0.0,0.0,0.0,0.0,0.0,0.0,0.0,0.0,0.0,0.0,0.0,0.0,0.0,0.0,0.0,0.0,0.0,0.0,0.0,0.0,0.0,0.0,0.0,0.0,0.0,0.0,0.0,0.0,0.0,0.0,0.0,0.0,0.0,0.0,0.0,0.0,0.0,0.0,0.0,0.0,0.0,0.0,0.0,0.0,0.0,0.0,0.0,0.0,0.0,0.0,0.0,0.0,0.0,0.0,0.0,0.0,0.0,0.0,0.0,0.0,0.0,0.0,0.0,0.0,0.0,0.0,0.0,0.0,0.0,0.0,0.0,0.0,0.0,0.0,0.0,0.0,0.0,0.0,0.0,0.0,0.0,0.0,0.0,0.0,0.0,0.0,0.0,0.0,0.0,0.0,0.0,0.0,0.0,0.0,0.0,0.0,0.0,0.0,0.0,0.0,0.0,0.0,0.0,0.0,0.0,0.0,0.0,0.0,0.0,0.0,0.0,0.0,0.0,0.0,0.0,0.0,0.0,0.0,0.0,0.0,0.0,0.0,0.0,0.0,0.0,0.0,0.0,0.0,0.0,0.0,0.0,0.0,0.0,0.0,0.0,0.0,0.0,0.0,0.0,0.0,0.0,0.0,0.0,0.0,0.0,0.0,0.0,0.0,0.0,0.0,0.0,0.0,0.0,0.0,0.0,0.0,0.0,0.0,0.0,0.0,0.0,0.0,0.0,0.0,0.0,0.0,0.0,0.0,0.0,0.0,0.0,0.0,0.0,0.0,0.0,0.0,0.0,0.0,0.0,0.0,0.0,0.0,0.0,0.0,0.0,0.0,0.0,0.0,0.0,0.0,0.0,0.0,0.0,0.0,0.0,0.0,0.0,0.0,0.0,0.0,0.0,0.0,0.0,0.0,0.0,0.0,0.0,0.0,0.0,0.0,0.0,0.0,0.0,0.0,0.0,0.0,0.0,0.0,0.0,0.0,0.0,0.0,0.0,0.0,0.0,0.0,0.0,0.0,0.0,0.0,0.0,0.0,0.0,0.0,0.0,0.0,0.0,0.0,0.0,0.0,0.0,0.0,0.0,0.0,0.0,0.0,0.0,0.0,0.0,0.0,0.0,0.0,0.0,0.0,0.0,0.0,0.0,0.0,0.0,0.0,0.0,0.0,0.0,0.0,0.0,0.0,0.0,0.0,0.0,0.0,0.0,0.0,0.0,0.0,0.0,0.0,0.0,0.0,0.0,0.0,0.0,0.0,0.0,0.0,0.0,0.0,0.0,0.0,0.0,0.0,0.0,0.0,0.0,0.0,0.0,0.0,0.0,0.0,0.0,0.0,0.0,0.0,0.0,0.0,0.0,0.0,0.0,0.0,0.0,0.0,0.0,0.0,0.0,0.0,0.0,0.0,0.0,0.0,0.0,0.0,0.0,0.0,0.0,0.0,0.0,0.0,0.0,0.0,0.0,0.0,0.0,0.0,0.0,0.0,0.0,0.0,0.0,0.0,0.0,0.0,0.0,0.0,0.0,0.0,0.0,0.0,0.0,0.0,0.0,0.0,0.0,0.0,0.0,0.0,0.0,0.0,0.0,0.0,0.0,0.0,0.0,0.0,0.0,0.0,0.0,0.0,0.0,0.0,0.0,0.0,0.0,0.0,0.0,0.0,0.0,0.0,0.0,0.0,0.0,0.0,0.0,0.0,0.0,0.0,0.0,0.0,0.0,0.0,0.0,0.0,0.0,0.0,0.0,0.0,0.0,0.0,0.0,0.0,0.0,0.0,0.0,0.0,0.0,0.0,0.0,0.0,0.0,0.0,0.0,0.0,0.0,0.0,0.0,0.0,0.0,0.0,0.0,0.0,0.0,0.0,0.0,0.0,0.0,0.0,0.0,0.0,0.0,0.0,0.0,0.0,0.0,0.0,0.0,0.0,0.0,0.0,0.0,0.0,0.0,0.0,0.0,0.0,0.0,0.0,0.0,0.0,0.0,0.0,0.0,0.0,0.0,0.0,0.0,0.0,0.0,0.0,0.0,0.0,0.0,0.0,0.0,0.0,0.0,0.0,0.0,0.0,0.0,0.0,0.0,0.0,0.0,0.0,0.0,0.0,0.0,0.0,0.0,0.0,0.0,0.0,0.0,0.0,0.0,0.0,0.0,0.0,0.1819,0.0,0.0,0.0,0.0,0.0,0.0,0.0,0.0,0.0,0.0,0.0,0.0,0.0,0.0,0.0,0.0,0.0,0.0,0.0,0.0,0.0,0.0,0.0,0.0,0.0,0.0,0.0,0.0,0.0,0.0,0.0,0.0,0.0,0.0,0.0,0.0,0.0,0.0,0.0,0.0,0.0,0.0,0.0,0.0,0.0,0.0,0.0,0.0,0.0,0.0,0.0,0.0,0.0,0.0,0.0,0.0,0.0,0.0,0.0,0.0,0.0,0.0,0.0,0.0,0.0,0.0,0.0,0.0,0.0,0.0,0.0,0.0,0.0,0.0,0.0,0.0,0.0,0.0,0.0,0.0,0.0,0.0,0.0,0.0,0.0,0.0,0.0,0.0,0.0,0.0,0.0,0.0,0.0,0.0,0.0,0.0,0.0,0.0,0.0,0.0,0.0,0.0,0.0,0.0,0.0,0.0,0.0,0.0,0.0,0.0,0.2019,0.2012,0.2011,0.1977,0.1948,0.0,0.0,0.0,0.0,0.0,0.0,0.0,0.0,0.0,0.0,0.0,0.0,0.0,0.0,0.0,0.0,0.0,0.0,0.0,0.0,0.0,0.0,0.0,0.0,0.0,0.0,0.0,0.0,0.0,0.0,0.0,0.0,0.0,0.0,0.0,0.0,0.0,0.0,0.0,0.0,0.0,0.0,0.0,0.0,0.0,0.0,0.0,0.0,0.0,0.0,0.0,0.0,0.0,0.0,0.0,0.0,0.0,0.0,0.0,0.0,0.0,0.0,0.0,0.0,0.0,0.0,0.0,0.0,0.0,0.0,0.0,0.0,0.0,0.0,0.0,0.0,0.0,0.0,0.0,0.0,0.0,0.0,0.0,0.0,0.0,0.0,0.0,0.0,0.0,0.0,0.0,0.0,0.0,0.0,0.0,0.0,0.0,0.0,0.0,0.0,0.0,0.0,0.0,0.0,0.0,0.0,0.0,0.0,0.0,0.0,0.0,0.0,0.2021,0.201,0.2017,0.0,0.0,0.0,0.0,0.0,0.0,0.0,0.0,0.0,0.0,0.0,0.0,0.0,0.0,0.0,0.0,0.0,0.0,0.0,0.0,0.0,0.0,0.0,0.0,0.0,0.0,0.0,0.0,0.0,0.0,0.0,0.0,0.0,0.0,0.0,0.0,0.0,0.0,0.0,0.0,0.0,0.0,0.0,0.0,0.0,0.0,0.0,0.0,0.0,0.0,0.0,0.0,0.0,0.0,0.0,0.0,0.0,0.0,0.0,0.0,0.0,0.0,0.0,0.0,0.0,0.0,0.0,0.0,0.0,0.0,0.0,0.0,0.0,0.0,0.0,0.0,0.0,0.0,0.0,0.0,0.0,0.0,0.0,0.0,0.0,0.0,0.0,0.0,0.0,0.0,0.0,0.0,0.0,0.0,0.0,0.0,0.0,0.0,0.0,0.0,0.0,0.0,0.0,0.0,0.0,0.0,0.0,0.0,0.0,0.0,0.2022,0.2087,0.2083,0.0,0.2088,0.0,0.0,0.0,0.0,0.0,0.0,0.0,0.0,0.0,0.0,0.0,0.0,0.0,0.0,0.0,0.0,0.0,0.0,0.0,0.0,0.0,0.0,0.0,0.0,0.0,0.0,0.0,0.0,0.0,0.0,0.0,0.0,0.0,0.0,0.0,0.0,0.0,0.0,0.0,0.0,0.0,0.0,0.0,0.0,0.0,0.0,0.0,0.0,0.0,0.0,0.0,0.0,0.0,0.0,0.0,0.0,0.0,0.0,0.0,0.0,0.0,0.0,0.0,0.0,0.0,0.0,0.0,0.0,0.0,0.0,0.0,0.0,0.0,0.0,0.0,0.0,0.0,0.0,0.0,0.0,0.0,0.0,0.0,0.0,0.0,0.0,0.0,0.0,0.0,0.0,0.0,0.0,0.0,0.0,0.0,0.0,0.0,0.0,0.0,0.0,0.0,0.0,0.0,0.0,0.0,0.0,0.0,0.0,0.0,0.0,0.2022,0.2111,0.2112,0.2072,0.0,0.0,0.0,0.0,0.0,0.0,0.0,0.0,0.0,0.0,0.0,0.0,0.0,0.0,0.0,0.0,0.0,0.0,0.0,0.0,0.0,0.0,0.0,0.0,0.0,0.0,0.0,0.0,0.0,0.0,0.0,0.0,0.0,0.0,0.0,0.0,0.0,0.0,0.0,0.0,0.0,0.0,0.0,0.0,0.0,0.0,0.0,0.0,0.0,0.0,0.0,0.0,0.0,0.0,0.0,0.0,0.0,0.0,0.0,0.0,0.0,0.0,0.0,0.0,0.0,0.0,0.0,0.0,0.0,0.0,0.0,0.0,0.0,0.0,0.0,0.0,0.0,0.0,0.0,0.0,0.0,0.0,0.0,0.0,0.0,0.0,0.0,0.0,0.0,0.0,0.0,0.0,0.0,0.0,0.0,0.0,0.0,0.0,0.0,0.0,0.0,0.0,0.0,0.0,0.0,0.0,0.0,0.0,0.0,0.0,0.2029,0.2066,0.2118,0.2105,0.2069,0.2015,0.0,0.0,0.0,0.0,0.0,0.0,0.0,0.0,0.0,0.0,0.0,0.0,0.0,0.0,0.0,0.0,0.0,0.0,0.0,0.0,0.0,0.0,0.0,0.0,0.0,0.0,0.0,0.0,0.0,0.0,0.0,0.0,0.0,0.0,0.0,0.0,0.0,0.0,0.0,0.0,0.0,0.0,0.0,0.0,0.0,0.0,0.0,0.0,0.0,0.0,0.0,0.0,0.0,0.0,0.0,0.0,0.0,0.0,0.0,0.0,0.0,0.0,0.0,0.0,0.0,0.0,0.0,0.0,0.0,0.0,0.0,0.0,0.0,0.0,0.0,0.0,0.0,0.0,0.0,0.0,0.0,0.0,0.0,0.0,0.0,0.0,0.0,0.0,0.0,0.0,0.0,0.0,0.0,0.0,0.0,0.0,0.0,0.0,0.0,0.0,0.0,0.0,0.0,0.0,0.0,0.0,0.0,0.0,0.2186,0.2124,0.2124,0.2197,0.2143,0.2112,0.0,0.0,0.0,0.0,0.0,0.0,0.0,0.0,0.0,0.0,0.0,0.0,0.0,0.0,0.0,0.0,0.0,0.0,0.0,0.0,0.0,0.0,0.0,0.0,0.0,0.0,0.0,0.0,0.0,0.0,0.0,0.0,0.0,0.0,0.0,0.0,0.0,0.0,0.0,0.0,0.0,0.0,0.0,0.0,0.0,0.0,0.0,0.0,0.0,0.0,0.0,0.0,0.0,0.0,0.0,0.0,0.0,0.0,0.0,0.0,0.0,0.0,0.0,0.0,0.0,0.0,0.0,0.0,0.0,0.0,0.0,0.0,0.0,0.0,0.0,0.0,0.0,0.0,0.0,0.0,0.0,0.0,0.0,0.0,0.0,0.0,0.0,0.0,0.0,0.0,0.0,0.0,0.0,0.0,0.0,0.0,0.0,0.0,0.0,0.0,0.0,0.0,0.0,0.0,0.0,0.0,0.0,0.0,0.0,0.2073,0.2142,0.2158,0.2197,0.2177,0.2172,0.0,0.0,0.0,0.0,0.0,0.0,0.0,0.0,0.0,0.0,0.0,0.0,0.0,0.0,0.0,0.0,0.0,0.0,0.0,0.0,0.0,0.0,0.0,0.0,0.0,0.0,0.0,0.0,0.0,0.0,0.0,0.0,0.0,0.0,0.0,0.0,0.0,0.0,0.0,0.0,0.0,0.0,0.0,0.0,0.0,0.0,0.0,0.0,0.0,0.0,0.0,0.0,0.0,0.0,0.0,0.0,0.0,0.0,0.0,0.0,0.0,0.0,0.0,0.0,0.0,0.0,0.0,0.0,0.0,0.0,0.0,0.0,0.0,0.0,0.0,0.0,0.0,0.0,0.0,0.0,0.0,0.0,0.0,0.0,0.0,0.0,0.0,0.0,0.0,0.0,0.0,0.0,0.0,0.0,0.0,0.0,0.0,0.0,0.0,0.0,0.0,0.0,0.0,0.0,0.0,0.0,0.0,0.0,0.0,0.2066,0.0,0.2235,0.2226,0.2215,0.2196,0.0,0.0,0.0,0.0,0.0,0.0,0.0,0.0,0.0,0.0,0.0,0.0,0.0,0.0,0.0,0.0,0.0,0.0,0.0,0.0,0.0,0.0,0.0,0.0,0.0,0.0,0.0,0.0,0.0,0.0,0.0,0.0,0.0,0.0,0.0,0.0,0.0,0.0,0.0,0.0,0.0,0.0,0.0,0.0,0.0,0.0,0.0,0.0,0.0,0.0,0.0,0.0,0.0,0.0,0.0,0.0,0.0,0.0,0.0,0.0,0.0,0.0,0.0,0.0,0.0,0.0,0.0,0.0,0.0,0.0,0.0,0.0,0.0,0.0,0.0,0.0,0.0,0.0,0.0,0.0,0.0,0.0,0.0,0.0,0.0,0.0,0.0,0.0,0.0,0.0,0.0,0.0,0.0,0.0,0.0,0.0,0.0,0.0,0.0,0.0,0.0,0.0,0.0,0.0,0.0,0.0,0.0,0.0,0.2052,0.2191,0.2264,0.2297,0.229,0.2239,0.2163,0.0,0.0,0.0,0.0,0.0,0.0,0.0,0.0,0.0,0.0,0.0,0.0,0.0,0.0,0.0,0.0,0.0,0.0,0.0,0.0,0.0,0.0,0.0,0.0,0.0,0.0,0.0,0.0,0.0,0.0,0.0,0.0,0.0,0.0,0.0,0.0,0.0,0.0,0.0,0.0,0.0,0.0,0.0,0.0,0.0,0.0,0.0,0.0,0.0,0.0,0.0,0.0,0.0,0.0,0.0,0.0,0.0,0.0,0.0,0.0,0.0,0.0,0.0,0.0,0.0,0.0,0.0,0.0,0.0,0.0,0.0,0.0,0.0,0.0,0.0,0.0,0.0,0.0,0.0,0.0,0.0,0.0,0.0,0.0,0.0,0.0,0.0,0.0,0.0,0.0,0.0,0.0,0.0,0.0,0.0,0.0,0.0,0.0,0.0,0.0,0.0,0.0,0.0,0.0,0.0,0.0,0.0,0.0,0.0,0.214,0.2248,0.232,0.2348,0.2261,0.2204,0.0,0.0,0.0,0.0,0.0,0.0,0.0,0.0,0.0,0.0,0.0,0.0,0.0,0.0,0.0,0.0,0.0,0.0,0.0,0.0,0.0,0.0,0.0,0.0,0.0,0.0,0.0,0.0,0.0,0.0,0.0,0.0,0.0,0.0,0.0,0.0,0.0,0.0,0.0,0.0,0.0,0.0,0.0,0.0,0.0,0.0,0.0,0.0,0.0,0.0,0.0,0.0,0.0,0.0,0.0,0.0,0.0,0.0,0.0,0.0,0.0,0.0,0.0,0.0,0.0,0.0,0.0,0.0,0.0,0.0,0.0,0.0,0.0,0.0,0.0,0.0,0.0,0.0,0.0,0.0,0.0,0.0,0.0,0.0,0.0,0.0,0.0,0.0,0.0,0.0,0.0,0.0,0.0,0.0,0.0,0.0,0.0,0.0,0.0,0.0,0.0,0.0,0.0,0.0,0.0,0.0,0.0,0.0,0.0,0.23,0.236,0.2438,0.2465,0.233,0.2259,0.219,0.0,0.0,0.0,0.0,0.0,0.0,0.0,0.0,0.0,0.0,0.0,0.0,0.0,0.0,0.0,0.0,0.0,0.0,0.0,0.0,0.0,0.0,0.0,0.0,0.0,0.0,0.0,0.0,0.0,0.0,0.0,0.0,0.0,0.0,0.0,0.0,0.0,0.0,0.0,0.0,0.0,0.0,0.0,0.0,0.0,0.0,0.0,0.0,0.0,0.0,0.0,0.0,0.0,0.0,0.0,0.0,0.0,0.0,0.0,0.0,0.0,0.0,0.0,0.0,0.0,0.0,0.0,0.0,0.0,0.0,0.0,0.0,0.0,0.0,0.0,0.0,0.0,0.0,0.0,0.0,0.0,0.0,0.0,0.0,0.0,0.0,0.0,0.0,0.0,0.0,0.0,0.0,0.0,0.0,0.0,0.0,0.0,0.0,0.0,0.0,0.0,0.0,0.0,0.0,0.0,0.0,0.0,0.0,0.2606,0.262,0.2623,0.2611,0.2466,0.2342,0.0,0.0,0.0,0.0,0.0,0.0,0.0,0.0,0.0,0.0,0.0,0.0,0.0,0.0,0.0,0.0,0.0,0.0,0.0,0.0,0.0,0.0,0.0,0.0,0.0,0.0,0.0,0.0,0.0,0.0,0.0,0.0,0.0,0.0,0.0,0.0,0.0,0.0,0.0,0.0,0.0,0.0,0.0,0.0,0.0,0.0,0.0,0.0,0.0,0.0,0.0,0.0,0.0,0.0,0.0,0.0,0.0,0.0,0.0,0.0,0.0,0.0,0.0,0.0,0.0,0.0,0.0,0.0,0.0,0.0,0.0,0.0,0.0,0.0,0.0,0.0,0.0,0.0,0.0,0.0,0.0,0.0,0.0,0.0,0.0,0.0,0.0,0.0,0.0,0.0,0.0,0.0,0.0,0.0,0.0,0.0,0.0,0.0,0.0,0.0,0.0,0.0,0.0,0.0,0.0,0.0,0.0,0.0,0.0,0.2674,0.2774,0.28,0.2744,0.2522,0.2382,0.0,0.0,0.0,0.0,0.0,0.0,0.0,0.0,0.0,0.0,0.0,0.0,0.0,0.0,0.0,0.0,0.0,0.0,0.0,0.0,0.0,0.0,0.0,0.0,0.0,0.0,0.0,0.0,0.0,0.0,0.0,0.0,0.0,0.0,0.0,0.0,0.0,0.0,0.0,0.0,0.0,0.0,0.0,0.0,0.0,0.0,0.0,0.0,0.0,0.0,0.0,0.0,0.0,0.0,0.0,0.0,0.0,0.0,0.0,0.0,0.0,0.0,0.0,0.0,0.0,0.0,0.0,0.0,0.0,0.0,0.0,0.0,0.0,0.0,0.0,0.0,0.0,0.0,0.0,0.0,0.0,0.0,0.0,0.0,0.0,0.0,0.0,0.0,0.0,0.0,0.0,0.0,0.0,0.0,0.0,0.0,0.0,0.0,0.0,0.0,0.0,0.0,0.0,0.0,0.0,0.0,0.0,0.0,0.3168,0.3369,0.3502,0.3549,0.3507,0.2863,0.2507,0.0,0.0,0.0,0.0,0.0,0.0,0.0,0.0,0.0,0.0,0.0,0.0,0.0,0.0,0.0,0.0,0.0,0.0,0.0,0.0,0.0,0.0,0.0,0.0,0.0,0.0,0.0,0.0,0.0,0.0,0.0,0.0,0.0,0.0,0.0,0.0,0.0,0.0,0.0,0.0,0.0,0.0,0.0,0.0,0.0,0.0,0.0,0.0,0.0,0.0,0.0,0.0,0.0,0.0,0.0,0.0,0.0,0.0,0.0,0.0,0.0,0.0,0.0,0.0,0.0,0.0,0.0,0.0,0.0,0.0,0.0,0.0,0.0,0.0,0.0,0.0,0.0,0.0,0.0,0.0,0.0,0.0,0.0,0.0,0.0,0.0,0.0,0.0,0.0,0.0,0.0,0.0,0.0,0.0,0.0,0.0,0.0,0.0,0.0,0.0,0.0,0.0,0.0,0.0,0.0,0.0,0.0,0.0,0.4218,0.4473,0.4608,0.4678,0.4621,0.3439,0.273,0.0,0.0,0.0,0.0,0.0,0.0,0.0,0.0,0.0,0.0,0.0,0.0,0.0,0.0,0.0,0.0,0.0,0.0,0.0,0.0,0.0,0.0,0.0,0.0,0.0,0.0,0.0,0.0,0.0,0.0,0.0,0.0,0.0,0.0,0.0,0.0,0.0,0.0,0.0,0.0,0.0,0.0,0.0,0.0,0.0,0.0,0.0,0.0,0.0,0.0,0.0,0.0,0.0,0.0,0.0,0.0,0.0,0.0,0.0,0.0,0.0,0.0,0.0,0.0,0.0,0.0,0.0,0.0,0.0,0.0,0.0,0.0,0.0,0.0,0.0,0.0,0.0,0.0,0.0,0.0,0.0,0.0,0.0,0.0,0.0,0.0,0.0,0.0,0.0,0.0,0.0,0.0,0.0,0.0,0.0,0.0,0.0,0.0,0.0,0.0,0.0,0.0,0.0,0.0,0.0,0.0,0.0,0.0,0.4949,0.562,0.573,0.5747,0.5745,0.4178,0.3257,0.0,0.0,0.0,0.0,0.0,0.0,0.0,0.0,0.0,0.0,0.0,0.0,0.0,0.0,0.0,0.0,0.0,0.0,0.0,0.0,0.0,0.0,0.0,0.0,0.0,0.0,0.0,0.0,0.0,0.0,0.0,0.0,0.0,0.0,0.0,0.0,0.0,0.0,0.0,0.0,0.0,0.0,0.0,0.0,0.0,0.0,0.0,0.0,0.2072,0.0,0.0,0.0,0.0,0.0,0.0,0.0,0.0,0.0,0.0,0.0,0.0,0.0,0.0,0.0,0.0,0.0,0.0,0.0,0.0,0.0,0.0,0.0,0.0,0.0,0.0,0.0,0.0,0.0,0.0,0.0,0.0,0.0,0.0,0.0,0.0,0.0,0.0,0.0,0.0,0.0,0.0,0.0,0.0,0.0,0.0,0.0,0.0,0.0,0.0,0.0,0.0,0.0,0.0,0.0,0.0,0.0,0.0,0.0,0.7278,0.8024,0.811,0.8133,0.8004,0.6386,0.4875,0.0,0.0,0.0,0.0,0.0,0.0,0.0,0.0,0.0,0.0,0.0,0.0,0.0,0.0,0.0,0.0,0.0,0.0,0.0,0.0,0.0,0.0,0.0,0.0,0.0,0.0,0.0,0.0,0.0,0.0,0.0,0.0,0.0,0.0,0.0,0.0,0.0,0.0,0.0,0.0,0.0,0.0,0.0,0.0,0.0,0.0,0.0,0.0,0.0,0.0,0.0,0.0,0.0,0.0,0.0,0.0,0.0,0.0,0.0,0.0,0.0,0.0,0.0,0.0,0.0,0.0,0.0,0.0,0.0,0.0,0.0,0.0,0.0,0.0,0.0,0.0,0.0,0.0,0.0,0.0,0.0,0.0,0.0,0.0,0.0,0.0,0.0,0.0,0.0,0.0,0.0,0.0,0.0,0.0,0.0,0.0,0.0,0.0,0.0,0.0,0.0,0.0,0.0,0.0,0.0,0.0,0.0,0.8547,0.9915,1.0782,1.0861,1.0828,1.0624,0.9117,0.7184,0.4897,0.0,0.0,0.0,0.0,0.0,0.0,0.0,0.0,0.0,0.0,0.0,0.0,0.0,0.0,0.0,0.0,0.0,0.0,0.0,0.0,0.0,0.0,0.0,0.0,0.0,0.0,0.0,0.0,0.0,0.0,0.0,0.0,0.0,0.0,0.0,0.0,0.0,0.0,0.2015,0.2139,0.0,0.0,0.0,0.0,0.0,0.0,0.0,0.0,0.2171,0.0,0.0,0.0,0.0,0.0,0.0,0.0,0.0,0.0,0.0,0.0,0.0,0.0,0.0,0.0,0.0,0.0,0.0,0.0,0.0,0.0,0.0,0.0,0.0,0.0,0.0,0.0,0.0,0.0,0.0,0.0,0.0,0.0,0.0,0.0,0.0,0.0,0.0,0.0,0.0,0.0,0.0,0.0,0.0,0.0,0.0,0.0,0.0,0.0,0.0,0.0,0.0,0.0,0.0,0.0,0.0,0.8855,1.0085,1.1323,1.2621,1.2684,1.2543,1.2191,1.1336,1.0075,0.8365,0.0,0.0,0.0,0.0,0.0,0.0,0.0,0.0,0.0,0.0,0.0,0.0,0.0,0.0,0.0,0.0,0.0,0.0,0.0,0.0,0.0,0.0,0.0,0.0,0.0,0.0,0.0,0.0,0.0,0.0,0.0,0.0,0.0,0.0,0.0,0.0,0.0,0.0,0.0,0.2169,0.2334,0.0,0.0,0.0,0.0,0.0,0.0,0.0,0.0,0.2218,0.0,0.0,0.0,0.0,0.0,0.0,0.0,0.0,0.0,0.0,0.0,0.0,0.0,0.0,0.0,0.0,0.0,0.0,0.0,0.0,0.0,0.0,0.0,0.0,0.0,0.0,0.0,0.0,0.0,0.0,0.0,0.0,0.0,0.0,0.0,0.0,0.0,0.0,0.0,0.0,0.0,0.0,0.0,0.0,0.0,0.0,0.0,0.0,0.0,0.0,0.0,0.0,0.0,0.0,0.0,1.0377,1.1773,1.3226,1.4753,1.4616,1.4391,1.4156,1.2916,1.1809,0.0,0.0,0.0,0.0,0.0,0.0,0.0,0.0,0.0,0.0,0.0,0.0,0.0,0.0,0.0,0.0,0.0,0.0,0.0,0.0,0.0,0.0,0.0,0.0,0.0,0.0,0.0,0.0,0.0,0.0,0.0,0.0,0.0,0.0,0.0,0.0,0.0,0.0,0.0,0.0,0.2227,0.2371,0.2584,0.0,0.0,0.0,0.0,0.0,0.0,0.3037,0.33,0.0,0.0,0.0,0.0,0.0,0.0,0.0,0.0,0.0,0.0,0.0,0.0,0.0,0.0,0.0,0.0,0.0,0.0,0.0,0.0,0.0,0.0,0.0,0.0,0.0,0.0,0.0,0.0,0.0,0.0,0.0,0.0,0.0,0.0,0.0,0.0,0.0,0.0,0.0,0.0,0.0,0.0,0.0,0.0,0.0,0.0,0.0,0.0,0.0,0.0,0.0,0.0,0.0,0.0,0.0,1.178,1.3401,1.498,1.6465,1.6236,1.5968,1.5699,1.4188,1.3125,0.0,0.0,0.0,0.0,0.0,0.0,0.0,0.0,0.0,0.0,0.0,0.0,0.0,0.0,0.0,0.0,0.0,0.0,0.0,0.0,0.0,0.0,0.0,0.0,0.0,0.0,0.0,0.0,0.0,0.0,0.0,0.0,0.0,0.0,0.0,0.0,0.0,0.0,0.0,0.0,0.0,0.2442,0.2676,0.3676,0.0,0.0,0.0,0.0,0.3896,0.461,0.0,0.0,0.0,0.0,0.0,0.0,0.0,0.0,0.0,0.0,0.0,0.0,0.0,0.0,0.0,0.0,0.0,0.0,0.0,0.0,0.0,0.0,0.0,0.0,0.0,0.0,0.0,0.0,0.0,0.0,0.0,0.0,0.0,0.0,0.0,0.0,0.0,0.0,0.0,0.0,0.0,0.0,0.0,0.0,0.0,0.0,0.0,0.0,0.0,0.0,0.0,0.0,0.0,0.0,0.0,0.0,1.315,1.4744,1.6086,1.7048,1.7061,1.6717,1.6074,1.5319,1.4363,0.0,0.0,0.0,0.0,0.0,0.0,0.0,0.0,0.0,0.0,0.0,0.0,0.0,0.0,0.0,0.0,0.0,0.0,0.0,0.0,0.0,0.0,0.0,0.0,0.0,0.0,0.0,0.0,0.0,0.0,0.0,0.0,0.0,0.0,0.0,0.0,0.0,0.0,0.0,0.0,0.0,0.2608,0.2682,0.8089,1.0966,0.0,0.0,0.8052,0.735,0.7532,0.0,0.0,0.0,0.0,0.0,0.0,0.0,0.0,0.0,0.0,0.0,0.0,0.0,0.0,0.0,0.0,0.0,0.0,0.0,0.0,0.0,0.0,0.0,0.0,0.0,0.0,0.0,0.0,0.0,0.0,0.0,0.0,0.0,0.0,0.0,0.0,0.0,0.0,0.0,0.0,0.0,0.0,0.0,0.0,0.0,0.0,0.0,0.0,0.0,0.0,0.0,0.0,0.0,0.0,0.0,1.2458,1.437,1.5219,1.6262,1.7528,1.7276,1.6876,1.6469,1.5716,1.476,0.0,0.0,0.0,0.0,0.0,0.0,0.0,0.0,0.0,0.0,0.0,0.0,0.0,0.0,0.0,0.0,0.0,0.0,0.0,0.0,0.0,0.0,0.0,0.0,0.0,0.0,0.0,0.0,0.0,0.0,0.0,0.0,0.0,0.0,0.0,0.0,0.0,0.0,0.0,0.0,0.0,0.0,0.8169,1.1426,0.0,0.0,0.0,1.0615,0.8355,0.0,0.0,0.0,0.0,0.0,0.0,0.0,0.0,0.0,0.0,0.0,0.0,0.0,0.0,0.0,0.0,0.0,0.0,0.0,0.0,0.0,0.0,0.0,0.0,0.0,0.0,0.0,0.0,0.0,0.0,0.0,0.0,0.0,0.0,0.0,0.0,0.0,0.0,0.0,0.0,0.0,0.0,0.0,0.0,0.0,0.0,0.0,0.0,0.0,0.0,0.0,0.0,0.0,0.0,0.0,0.0,0.0,1.5222,1.5682,1.6531,1.7711,1.7385,1.6979,1.6667,1.5902,0.0,0.0,0.0,0.0,0.0,0.0,0.0,0.0,0.0,0.0,0.0,0.0,0.0,0.0,0.0,0.0,0.0,0.0,0.0,0.0,0.0,0.0,0.0,0.0,0.0,0.0,0.0,0.4778,0.0,0.0,0.0,0.0,0.0,0.0,0.0,0.0,0.0,0.0,0.0,0.0,0.0,0.0,0.4971,1.2372,1.3404,1.2198,0.0,0.0,1.2904,0.9992,1.0713,1.1152,0.0,0.0,0.0,0.0,0.0,0.0,0.0,0.0,0.0,0.0,0.0,0.0,0.0,0.0,0.0,0.0,0.0,0.0,0.0,0.0,0.0,0.0,0.0,0.0,0.0,0.0,0.0,0.0,0.0,0.0,0.0,0.0,0.0,0.0,0.0,0.0,0.0,0.0,0.0,0.0,0.0,0.0,0.0,0.0,0.0,0.0,0.0,0.0,0.0,0.0,0.0,0.0,0.0,0.0,0.0,1.5385,1.6508,1.7202,1.7419,1.7528,1.7236,1.6558,1.6094,1.5224,0.0,0.0,0.0,0.0,0.0,0.0,0.0,0.0,0.0,0.0,0.0,0.0,0.0,0.0,0.0,0.0,0.0,0.0,0.0,0.0,0.0,0.0,0.0,0.0,0.0,0.0,0.0,0.0,0.0,0.0,0.0,0.0,0.0,0.0,0.0,0.0,0.0,0.0,0.0,0.0,0.0,0.5129,1.2395,1.3403,1.224,0.0,0.0,1.4062,1.3494,1.3655,1.3767,1.3429,0.0,0.0,0.0,0.0,0.0,0.0,0.0,0.0,0.0,0.0,0.0,0.0,0.0,0.0,0.0,0.0,0.0,0.0,0.0,0.0,0.0,0.0,0.0,0.0,0.0,0.0,0.0,0.0,0.0,0.0,0.0,0.0,0.0,0.0,0.0,0.0,0.0,0.0,0.0,0.0,0.0,0.0,0.0,0.0,0.0,0.0,0.0,0.0,0.0,0.0,0.0,0.0,0.0,1.5146,1.5936,1.6697,1.7222,1.7514,1.7473,1.7209,1.6621,1.632,1.5588,0.0,0.0,0.0,0.0,0.0,0.0,0.0,0.0,0.0,0.0,0.0,0.0,0.0,0.0,0.0,0.0,0.0,0.0,0.0,0.0,0.0,0.0,0.0,0.0,0.0,0.0,0.0,0.0,0.6385,0.767,1.022,0.0,0.0,0.0,0.0,0.0,0.0,0.0,0.0,0.0,0.0,0.8086,1.3235,1.3953,0.0,0.0,1.3342,1.4235,1.4015,1.4056,1.4076,1.3994,1.3884,0.0,0.0,0.0,0.0,0.0,0.0,0.0,0.0,0.0,0.0,0.0,0.0,0.0,0.0,0.0,0.0,0.0,0.0,0.0,0.0,0.0,0.0,0.0,0.0,0.0,0.0,0.0,0.0,0.0,0.0,0.0,0.0,0.0,0.0,0.0,0.0,0.0,0.0,0.0,0.0,0.0,0.0,0.0,0.0,0.0,0.0,0.0,0.0,0.0,0.0,0.0,0.0,1.5567,1.6368,1.6944,1.7351,1.7548,1.7494,1.7243,1.681,1.6464,1.5855,0.0,0.0,0.0,0.0,0.0,0.0,0.0,0.0,0.0,0.0,0.0,0.0,0.0,0.0,0.0,0.0,0.0,0.0,0.0,0.0,0.0,0.0,0.0,0.0,0.0,0.0,0.0,0.0,0.7657,0.8908,1.2026,0.0,0.0,0.0,0.0,0.0,0.0,0.0,0.0,0.0,0.0,0.9913,1.3736,1.4314,1.4384,1.4543,1.4495,1.4389,1.4263,1.4272,1.4294,1.4272,0.0,0.0,0.0,0.0,0.0,0.0,0.0,0.0,0.0,0.0,0.0,0.0,0.0,0.0,0.0,0.0,0.0,0.0,0.0,0.0,0.0,0.0,0.0,0.0,0.0,0.0,0.0,0.0,0.0,0.0,0.0,0.0,0.0,0.0,0.0,0.0,0.0,0.0,0.0,0.0,0.0,0.0,0.0,0.0,0.0,0.0,0.0,0.0,0.0,0.0,0.0,0.0,0.0,1.5889,1.6491,1.7398,1.7725,1.7419,1.7541,1.7399,1.6978,1.6544,1.6022,1.5411,0.0,0.0,0.0,0.0,0.0,0.0,0.0,0.0,0.0,0.0,0.0,0.0,0.0,0.0,0.0,0.0,0.0,0.0,0.0,0.0,0.0,0.0,0.0,0.0,0.0,0.0,1.1222,1.1454,1.182,0.0,0.0,0.0,0.0,0.0,0.0,0.0,0.0,0.0,0.0,0.8466,0.9933,1.3763,1.432,1.4525,1.5054,1.4889,1.4683,1.4608,1.4651,1.4703,0.0,0.0,0.0,0.0,0.0,0.0,0.0,0.0,0.0,0.0,0.0,0.0,0.0,0.0,0.0,0.0,0.0,0.0,0.0,0.0,0.0,0.0,0.0,0.0,0.0,0.0,0.0,1.3108,1.3036,0.0,0.0,0.0,0.0,0.0,0.0,0.0,0.0,0.0,0.0,0.0,1.3761,1.4596,0.0,0.0,0.0,0.0,0.0,0.0,0.0,0.0,0.0,0.0,0.0,0.0,1.6076,1.6621,1.7338,1.7595,1.7406,1.7446,1.7257,1.6816,1.6654,1.6295,1.5748,0.0,0.0,0.0,0.0,0.0,0.0,0.0,0.0,0.0,0.0,0.0,0.0,0.0,0.0,0.0,0.0,0.0,0.0,0.0,0.0,0.0,0.0,0.0,0.0,0.0,1.0882,0.0,0.0,0.0,0.0,0.0,0.0,0.0,0.0,0.0,0.0,0.0,1.1119,1.2219,1.2511,1.3173,1.4698,1.4895,1.4829,0.0,0.0,0.0,0.0,0.0,0.0,0.0,0.0,0.0,0.0,0.0,0.0,0.0,0.0,1.4909,1.4901,1.44,1.3962,1.3912,0.0,0.0,0.0,0.0,0.0,0.0,0.0,0.0,0.0,0.0,0.0,0.0,0.0,0.0,0.0,0.0,1.3591,0.0,0.0,0.0,0.0,0.0,0.0,0.0,0.0,1.505,1.5301,1.5272,1.5665,1.5771,0.0,1.5699,1.5242,0.0,0.0,0.0,0.0,0.0,0.0,0.0,0.0,1.6257,1.6796,1.7311,1.7575,1.748,1.7446,1.7311,1.6946,1.6904,1.662,1.6128,1.5741,1.5323,0.0,0.0,0.0,0.0,0.0,0.0,0.0,0.0,0.0,0.0,0.0,0.0,0.0,0.0,0.0,0.0,0.0,0.0,0.0,0.0,0.0,0.0,0.0,1.2283,0.0,0.0,0.0,0.0,0.0,0.0,0.0,0.0,0.0,1.2795,1.2883,1.345,1.4474,1.4762,1.5036,1.5443,0.0,0.0,0.0,0.0,0.0,0.0,0.0,1.5235,1.533,1.5333,1.5271,1.504,1.4791,1.4741,1.512,0.0,0.0,1.5192,1.4946,1.4717,1.4672,1.4597,1.4541,1.4561,1.4489,1.4534,0.0,0.0,0.0,0.0,0.0,0.0,0.0,0.0,1.4031,1.4036,0.0,1.4018,0.0,0.0,0.0,0.0,0.0,0.0,0.0,0.0,1.5739,1.6176,1.6268,1.6313,1.632,1.6313,1.6203,1.6128,1.6067,1.5401,0.0,0.0,0.0,0.0,0.0,0.0,1.6388,1.6978,1.7392,1.7622,1.7595,1.7616,1.7521,1.7392,1.727,1.6998,1.6559,1.6512,1.6241,1.5672,1.5046,0.0,0.0,0.0,0.0,0.0,0.0,0.0,0.0,0.0,0.0,0.0,0.0,0.0,0.0,0.0,0.0,0.0,0.0,0.0,0.0,1.3685,0.0,0.0,0.0,0.0,0.0,0.0,0.0,0.0,0.0,0.0,1.514,1.5262,1.5346,1.5226,0.0,0.0,0.0,0.0,1.6105,1.6077,1.61,1.6105,1.6108,1.5825,1.5618,1.56,0.0,0.0,1.5623,1.5377,1.5194,1.5191,1.522,1.5218,1.5218,1.5112,1.5017,1.4993,1.498,1.4841,1.4471,1.455,1.4629,1.6436,0.0,0.0,0.0,0.0,1.5067,1.5008,1.5117,1.473,1.4485,1.4354,1.4356,0.0,0.0,0.0,0.0,0.0,0.0,1.5293,1.5577,1.5895,1.6177,1.6456,1.652,1.6574,1.66,1.6693,1.6727,1.6739,1.6536,1.5965,1.5052,0.0,0.0,0.0,0.0,1.6639,1.7147,1.7446,1.7622,1.7622,1.7622,1.7548,1.7399,1.7351,1.7318,1.7297,1.7114,1.6803,1.6391,1.5859,0.0,0.0,0.0,0.0,0.0,0.0,0.0,0.0,0.0,0.0,0.0,0.0,0.0,0.0,0.0,0.0,0.0,0.0,0.0,1.4129,1.4546,1.4663,0.0,0.0,0.0,0.0,0.0,0.0,0.0,0.0,0.0,1.5673,1.5608,1.5523,0.0,0.0,1.5629,1.6025,1.6108,1.611,1.6102,0.0,0.0,0.0,1.5939,1.5832,1.5934,1.5954,1.596,1.597,1.5544,1.5189,1.5202,1.5359,1.5482,1.5469,1.5296,1.5157,1.5136,1.5091,1.5,1.4947,1.4831,1.476,1.7666,1.7058,1.6701,1.6529,1.6434,1.6176,1.6116,1.6179,1.5661,1.5365,1.522,1.5032,1.4837,1.4706,1.4781,0.0,0.0,0.0,1.5643,1.5998,1.6064,1.6327,1.6686,1.6802,1.6816,1.6842,1.7147,1.7319,1.7319,1.7619,1.7421,1.681,0.0,0.0,1.642,1.7051,1.7464,1.7644,1.809,1.8216,1.804,1.804,1.8073,1.8191,1.7806,1.7827,1.829,1.7771,1.7404,1.7252,1.6535,1.5775,0.0,0.0,0.0,0.0,0.0,0.0,0.0,0.0,0.0,0.0,0.0,1.3118,1.3451,0.0,0.0,0.0,1.4007,1.4385,1.4893,1.5172,0.0,0.0,0.0,0.0,0.0,0.0,0.0,1.5591,1.5716,1.5845,1.5951,1.5866,1.5778,1.5786,1.5678,1.5734,1.6052,0.0,1.6108,1.6108,1.6187,1.6278,1.6246,1.6194,1.6155,1.6164,1.6142,1.6103,1.6114,1.5803,1.5571,1.5579,1.569,1.5787,1.5787,1.5565,1.5364,1.5364,1.5296,1.5242,1.5211,1.5036,1.4952,1.8712,1.8656,1.7859,1.7462,1.7327,1.7281,1.7265,1.7221,1.6683,1.6481,1.6414,1.5899,1.5544,1.535,1.5335,0.0,0.0,1.5563,1.5883,1.6281,1.6295,1.6576,1.703,1.705,1.7083,1.7136,1.7589,1.7806,1.7839,1.8491,1.8864,1.8849,1.8174,1.7803,1.781,1.8402,1.8631,1.8417,1.9068,1.9188,1.8778,1.8785,1.8981,1.9374,1.8535,1.8459,1.9335,1.8528,1.8107,1.8156,1.7231,1.6291,1.5466,0.0,0.0,0.0,0.0,0.0,0.0,0.0,0.0,0.0,0.0,0.0,0.0,0.0,0.0,0.0,1.532,0.0,1.556,1.553,0.0,0.0,0.0,1.5612,1.5633,1.5745,1.5859,1.5922,0.0,0.0,1.6121,0.0,1.6103,1.6117,1.5847,1.5741,1.6047,1.6117,1.6117,1.6105,1.6314,1.6511,1.6536,1.6517,1.6417,1.6315,1.6187,1.6114,1.6116,1.6081,1.6087,1.6077,1.6119,1.6102,1.6119,1.589,1.5685,1.5699,1.5638,1.5525,1.5281,1.5243,1.5261,1.8777,1.8899,1.8688,1.8502,1.8311,1.7978,1.781,1.7751,1.7228,1.7011,1.698,1.6431,1.6041,1.5749,1.5766,1.5818,1.591,1.5944,1.6111,1.6281,1.6397,1.6822,1.7451,1.7571,1.7837,1.8204,1.8037,1.7943,1.7976,1.8279,1.8438,1.8492,1.9252,1.947,1.9067,1.9085,1.9178,1.9376,1.9369,1.9379,1.9405,1.9384,1.9445,1.9545,1.9335,1.9307,1.9518,1.9307,1.9164,1.9085,1.8625,1.8005,1.7274,1.6196,0.0,0.0,0.0,0.0,0.0,0.0,0.0,0.0,0.0,1.4758,1.5129,0.0,1.5323,0.0,1.5469,1.5506,1.5472,1.5533,0.0,0.0,1.5552,1.57,1.5949,1.6009,1.6047,1.604,1.608,1.613,1.6239,1.6259,1.6217,1.6109,1.6036,1.6026,1.6102,1.612,1.6104,1.6148,1.6341,1.6578,1.6796,1.6656,1.6491,1.6451,1.6258,1.6116,1.6108,1.6101,1.6113,1.6112,1.6105,1.618,1.6375,1.6288,1.6224,1.6229,1.5911,1.5587,1.5514,1.5497,1.5569,1.9037,1.9126,1.9126,1.8956,1.8712,1.86,1.8566,1.8542,1.8006,1.7787,1.7738,1.7201,1.6885,1.6694,1.6447,1.6514,1.6772,1.658,1.6639,1.7001,1.6958,1.7216,1.769,1.7647,1.7778,1.807,1.8349,1.8463,1.8466,1.916,1.9531,1.947,2.0455,2.0823,2.0591,2.04,2.0302,2.0286,2.0126,2.0133,2.0368,2.0155,2.0128,2.0376,1.988,1.9853,2.0368,1.988,1.966,1.9794,1.9369,1.8833,1.8194,1.721,1.6637,0.0,0.0,0.0,0.0,0.0,0.0,0.0,0.0,0.0,0.0,0.0,1.5632,1.5632,1.5744,1.5798,1.5716,1.5784,1.5817,1.5817,1.583,1.59,1.6087,1.6107,1.6114,1.6189,1.6185,1.6239,1.6381,1.6402,1.6354,1.6283,1.6269,1.6323,1.648,1.6502,1.6491,1.6498,1.6636,1.6756,1.6979,1.6776,1.66,1.6567,1.6411,1.628,1.628,1.6389,1.6491,1.6517,1.6491,1.6549,1.6677,1.66,1.6549,1.6451,1.6241,1.5981,1.5855,1.583,1.588,1.9354,1.9354,1.9354,1.9175,1.8858,1.9224,1.9297,1.9143,1.87,1.8478,1.8426,1.8004,1.7779,1.7695,1.7247,1.7287,1.7732,1.7202,1.7281,1.7819,1.7517,1.7543,1.7875,1.7655,1.7613,1.7741,1.865,1.9027,1.8916,2.0239,2.0832,2.0765,2.1413,2.1774,2.1892,2.1823,2.1562,2.1124,2.0991,2.112,2.1465,2.0961,2.0934,2.1402,2.0437,2.0382,2.1374,2.0437,2.0093,2.0466,1.9949,1.9397,1.8805,1.8144,1.7549,0.0,1.6496,0.0,0.0,0.0,0.0,0.0,0.0,0.0,0.0,1.5911,1.5928,1.5928,1.6026,1.6108,1.6108,1.6108,1.6108,1.6108,1.6121,1.611,1.616,1.6155,1.6191,1.632,1.6315,1.6395,1.6564,1.6578,1.6562,1.6575,1.6556,1.6679,1.6919,1.6973,1.6946,1.7009,1.7031,1.7033,1.7071,1.6931,1.6823,1.6777,1.6657,1.6562,1.657,1.6802,1.6975,1.6975,1.6944,1.6982,1.7032,1.6891,1.6788,1.668,1.6634,1.6521,1.6241,1.6157,1.6153,1.9687,1.9712,1.9687,1.9679,1.9597,1.9687,1.9216,1.8411,1.8494,1.84,1.8262,1.8329,1.8162,1.7851,1.7758,1.7858,1.8093,1.756,1.7378,1.7465,1.7053,1.7357,1.8255,1.8334,1.87,1.9231,1.9161,1.8923,1.8593,1.9463,1.9867,1.9879,2.1183,2.1876,2.1916,0.0,0.0,0.0,2.1707,2.1723,2.1803,2.1691,2.1691,2.1803,2.1607,0.0,2.1775,2.1579,2.1506,2.1578,2.1249,0.0,0.0,0.0,0.0,0.0,0.0,0.0,0.0,0.0,0.0,0.0,1.7373,1.6984,1.6166,1.6067,1.606,1.6067,1.6094,1.6108,1.6108,1.6108,1.6108,1.6108,1.6116,1.619,1.6399,1.6418,1.6449,1.6451,1.6457,1.6566,1.6842,1.689,1.6913,1.6889,1.6902,1.6929,1.6989,1.7026,1.7008,1.7015,1.717,1.7321,1.7344,1.7297,1.7223,1.723,1.7056,1.6936,1.6889,1.6949,1.7016,1.7036,1.7003,1.7069,1.7289,1.7276,1.7242,1.7216,1.7209,1.7074,1.6555,1.6421,1.6491,1.9818,0.0,1.9818,1.9712,0.0,1.9549,1.9118,1.8476,1.8947,1.9068,1.8988,1.91,1.9037,1.8806,1.8384,1.8404,1.8714,1.7971,1.7931,1.8399,1.8085,1.8225,1.8749,1.8968,1.9117,1.9233,1.9613,1.9631,1.9394,2.0126,2.0505,2.0513,2.145,2.1949,2.2038,2.2334,2.2334,2.2066,2.2058,2.2017,2.1916,2.1908,2.1908,2.1908,0.0,0.0,0.0,0.0,0.0,0.0,0.0,0.0,0.0,0.0,0.0,1.8589,1.7986,1.7495,1.7138,1.7106,1.7106,1.7106,1.7106,1.7042,1.6885,1.6903,1.6871,1.6878,1.6718,1.6592,1.6592,1.6403,1.6249,1.6123,1.6108,1.6256,1.6657,1.6763,1.6745,1.6746,1.6748,1.6863,1.7161,1.7202,1.7196,1.7197,1.7197,1.7257,1.7385,1.7183,1.7036,1.7202,1.7443,1.7579,1.7459,1.7392,1.7392,1.7365,1.7278,1.7197,1.7197,1.7338,1.7446,1.7446,1.7446,1.75,1.7614,1.7641,1.7588,1.7473,1.7661,1.7633,1.7084,1.6839,1.6787,2.0005,2.0005,2.0005,1.9834,1.9591,1.9591,1.9403,1.9126,0.0,0.0,0.0,1.9825,1.9873,1.988,1.9186,1.9124,1.9516,1.8689,1.8758,1.9582,1.9331,1.9219,1.9282,1.9525,1.9421,1.9018,1.992,2.0259,2.0166,2.0851,2.1233,2.1376,2.1758,2.2066,2.2265,2.242,2.242,2.2245,2.2131,2.2001,2.1836,2.1828,2.1884,2.1997,2.1997,2.2005,2.2005,2.2005,2.1997,2.1997,2.1973,2.1803,2.1498,2.0768,1.9894,1.8971,1.8203,1.7507,1.683,1.6805,1.6805,1.6779,1.6772,1.6973,1.747,1.748,1.748,1.748,1.7196,1.6997,1.6997,1.6697,1.6428,1.6186,1.6167,1.6424,1.6973,1.7064,1.706,1.7084,1.706,1.7154,1.7385,1.7426,1.7446,1.7467,1.7494,1.7555,1.7771,1.75,1.7291,1.7493,1.7703,1.7777,1.7582,1.7514,1.75,1.7521,1.7514,1.7473,1.7528,1.7724,1.7886,1.786,1.792,1.79,1.7893,1.8104,1.8055,1.7717,1.8089,1.8406,1.7933,1.7622,1.7641,2.0755,2.0755,2.0728,2.073,2.0682,2.0682,2.0649,2.0517,1.9745,1.9533,1.98,1.998,2.0224,2.0483,2.0381,2.0438,2.0621,1.9999,1.9776,0.0,1.944,1.944,1.9865,1.9911,1.9958,1.9968,1.9812,1.9803,1.9943,2.0192,2.0528,2.1105,2.1795,2.2282,2.2444,2.2485,2.2485,2.2432,2.1913,2.1581,2.1557,2.1557,2.1845,2.2362,2.242,2.242,2.242,2.242,2.2391,2.242,2.2245,2.2066,2.1835,2.1423,2.0732,1.9742,1.9367,1.8825,1.7957,1.7869,1.7869,1.7876,1.7869,1.7549,1.6743,1.6659,1.6659,1.6692,1.6712,1.6566,1.6566,1.6582,1.6528,1.6442,1.6429,1.6679,1.7264,1.7331,1.734,1.7324,1.7358,1.7385,1.7548,1.7561,1.7629,1.7758,1.7772,1.7847,1.7868,1.7833,1.7805,1.7833,1.7841,1.7868,1.7827,1.7826,1.7833,1.7826,1.7826,1.7799,1.7799,1.7861,1.7916,1.7909,1.7916,1.7943,1.7998,1.8728,1.8948,1.8666,1.9016,1.9338,1.9166,1.9124,1.9481,2.0901,2.0901,2.0901,2.0901,2.0901,2.0901,2.0901,2.0869,2.0397,2.0266,2.0387,2.0484,2.0606,2.0736,2.0531,2.0491,2.0556,2.0099,2.004,2.0311,2.0193,2.0228,2.0467,2.0851,2.0737,2.0205,2.0643,2.0749,2.0566,2.0876,2.1264,2.1649,2.2199,2.2521,2.2602,2.2708,2.2611,2.2289,2.2135,2.206,2.204,2.2032,2.2176,2.2493,2.2493,2.2493,2.2493,2.2493,2.2493,2.2493,2.2294,2.2115,2.1908,2.1587,2.1012,2.0145,1.9885,1.9458,1.8746,1.8397,1.8083,1.7741,1.7715,1.7538,1.7038,1.73,1.7469,1.7476,1.7385,1.7334,1.7315,1.7115,1.6927,1.6776,1.6895,1.7088,1.737,1.7565,1.7627,1.7514,1.7514,1.7575,1.7751,1.7765,1.7785,1.7888,1.7928,1.7899,1.7905,1.792,1.7956,1.8094,1.8122,1.8128,1.8133,1.8111,1.8111,1.8111,1.7992,1.7936,1.7908,1.7908,1.7936,1.7908,1.7929,1.8279,1.8902,1.9532,1.9727,1.9713,1.9957,2.0172,1.9843,2.0066,2.0764,2.1127,2.1127,2.1127,2.1127,2.1127,2.1119,2.1119,2.1127,2.1127,2.1127,2.1111,2.1037,2.1021,2.1037,2.0783,2.0659,2.0618,2.0401,2.0507,2.088,2.1062,2.1108,2.1088,2.1647,2.1393,2.0661,2.1376,2.1614,2.1419,2.1722,2.2062,2.2383,2.2622,2.2789,2.276,2.2927,2.2764,2.2364,2.2491,2.2565,2.2412,2.2412,2.247,2.2615,2.2623,2.2599,2.2558,2.2558,2.2534,2.2493,2.2355,2.2172,2.1965,2.1725,2.1217,2.049,2.0236,1.9862,1.9221,1.865,1.8119,1.7635,1.7473,1.7406,1.7466,1.7906,1.817,1.8089,1.7907,1.7802,1.7756,1.7613,1.7345,1.7148,1.727,1.7446,1.7609,1.782,1.7943,1.7765,1.7744,1.7826,1.7935,1.7989,1.7975,1.7912,1.7922,1.7938,1.8044,1.8088,1.8213,1.8399,1.8452,1.8376,1.8329,1.8308,1.8301,1.8321,1.8131,1.8054,1.8033,1.8046,1.8103,1.8174,1.8124,1.8711,1.9941,2.0599,2.0632,2.0517,2.0783,2.096,2.0451,2.0944,2.1502,2.1795,2.1811,2.1806,2.1811,2.1778,2.1786,2.1778,2.1786,2.1803,2.1811,2.1738,2.1481,2.146,2.1623,2.1701,2.1705,2.1705,2.1722,2.1697,2.1738,2.1795,2.1807,2.1771,2.188,2.1852,2.1659,2.1519,2.1791,2.2214,2.1982,2.2207,2.2844,2.296,2.2976,2.2976,2.3,2.2979,2.2941,2.2938,2.2686,2.2156,2.2126,2.2392,2.2951,2.2973,2.287,2.2679,2.2671,2.2627,2.2517,2.2485,2.2387,2.2188,2.216,2.1707,2.0858,2.0642,2.0143,1.93,1.863,1.8329,1.8193,1.7743,1.7507,1.7629,1.782,1.7807,1.7608,1.7499,1.754,1.7466,1.7555,1.756,1.7441,1.7454,1.7609,1.8096,1.823,1.8258,1.824,1.8184,1.8232,1.8253,1.8267,1.8161,1.8019,1.7991,1.8168,1.8617,1.8713,1.8791,1.8993,1.8909,1.8653,1.8461,1.83,1.8396,1.8347,1.8285,1.8269,1.8331,1.8481,1.8682,1.8556,1.893,1.949,2.0446,2.1369,2.1844,2.1275,2.1421,2.1783,2.1739,2.1997,2.2085,2.1908,2.1908,2.1908,2.1908,2.1908,2.1908,2.1908,2.1908,2.1908,2.1908,2.1908,2.1879,2.1847,2.1831,2.1876,2.1908,2.1908,2.1908,2.1908,2.1916,2.2034,2.2082,2.2078,2.2281,2.2198,2.1926,2.2151,2.2271,2.2284,2.2443,2.2692,2.3008,2.3127,2.3176,2.3192,2.326,2.3317,2.3309,2.3279,2.3167,2.2926,2.272,2.2735,2.2971,2.3,2.2968,2.2895,2.2886,2.2854,2.2781,2.2675,2.2537,2.2387,2.2282,2.1969,2.1482,2.1395,2.1033,2.031,2.0019,1.977,1.9465,1.8836,1.8475,1.8503,1.8293,1.8077,1.7982,1.7927,1.7948,1.792,1.7981,1.7986,1.795,1.7928,1.8108,1.8527,1.8591,1.8549,1.835,1.8367,1.8422,1.8435,1.8525,1.8543,1.8427,1.8298,1.8478,1.915,1.9326,1.9371,1.9442,1.9398,1.9192,1.8888,1.8814,1.883,1.8801,1.8691,1.8604,1.8635,1.8678,1.8794,1.8854,2.0009,2.0931,2.1641,2.199,2.2306,2.1923,2.1951,2.2253,2.2253,2.2367,2.231,2.2054,2.2054,2.2103,2.2119,2.2127,2.2176,2.22,2.22,2.22,2.22,2.2237,2.2359,2.2342,2.22,2.2103,2.207,2.2119,2.2119,2.2151,2.2208,2.2359,2.2415,2.244,2.2638,2.2563,2.2294,2.2721,2.278,2.2511,2.2885,2.3117,2.3163,2.3268,2.3363,2.3371,2.3441,2.3498,2.3498,2.3498,2.3498,2.3457,2.3246,2.3146,2.3146,2.3146,2.3122,2.3073,2.3065,2.3049,2.3,2.2841,2.274,2.2647,2.2489,2.2318,2.207,2.1997,2.1751,2.1281,2.1104,2.0822,2.0427,1.9842,1.9496,1.9426,1.9014,1.8721,1.8726,1.8624,1.8518,1.83,1.8327,1.8347,1.8325,1.8379,1.8562,1.8868,1.8911,1.8816,1.8601,1.8665,1.8686,1.8713,1.885,1.8945,1.8882,1.8782,1.8839,1.9504,1.969,1.9697,1.9727,1.9691,1.9553,1.9283,1.9156,1.9203,1.9167,1.9007,1.8898,1.8922,1.8955,1.9791,2.0665,2.1936,2.2425,2.2244,2.2404,2.2484,2.248,2.2485,2.2477,2.2444,2.2485,2.2485,2.2477,2.2493,2.261,2.2638,2.2662,2.2846,2.2927,2.2878,2.2919,2.2927,2.2895,2.2919,2.2943,2.2886,2.2578,2.2529,2.2659,2.263,2.274,2.2878,2.2919,2.2951,2.296,2.2984,2.2954,2.2866,2.2974,2.3084,2.3222,2.3384,2.3474,2.3465,2.3465,2.3474,2.3474,2.3482,2.3498,2.3498,2.3498,2.3498,2.3498,2.3474,2.3449,2.3441,2.3465,2.3406,2.3298,2.3274,2.32,2.3016,2.3,2.2976,2.2968,2.2951,2.281,2.2509,2.2314,2.2095,2.1832,2.1421,2.1074,2.0945,2.0575,2.0242,2.0371,1.9943,1.9689,1.9809,1.9461,1.9015,1.8605,1.8575,1.8472,1.8371,1.8608,1.886,1.9157,1.9189,1.9172,1.9122,1.9115,1.9128,1.9162,1.9305,1.9328,1.9301,1.9427,1.9609,1.9651,1.971,1.9711,1.9724,1.9681,1.9596,1.9314,1.9271,1.9257,1.9324,1.9387,1.92,1.9278,1.9628,2.1056,2.2183,2.2834,2.3027,2.2672,2.2501,2.2486,2.2488,2.248,2.2493,2.2493,2.2493,2.2493,2.2805,2.2813,2.287,2.2903,2.2911,2.2976,2.3,2.3,2.3,2.3,2.3,2.3,2.3,2.2992,2.287,2.2838,2.2895,2.2903,2.2935,2.2992,2.3,2.3,2.3008,2.3135,2.3192,2.3209,2.3284,2.3374,2.3422,2.3474,2.3498,2.3498,2.3498,2.3498,2.3498,2.3498,2.3498,2.3498,2.3498,2.3498,2.3498,2.3498,2.3498,2.3498,2.3498,2.3465,2.3439,2.3431,2.3398,2.3311,2.3257,2.3192,2.3184,2.3057,2.2943,2.2822,2.2748,2.2683,2.2598,2.2407,2.2291,2.2233,2.1739,2.142,2.1358,2.0951,2.0621,2.0628,2.0546,2.0297,2.0021,1.9429,1.8871,1.8702,1.8723,1.9003,1.9379,1.9509,1.9447,1.9276,1.9255,1.9386,1.9588,1.9905,1.9995,1.9622,1.9623,1.9741,1.9734,1.9738,1.9705,1.9718,1.9718,1.9806,2.0139,1.9743,1.9592,1.9826,1.9887,1.9648,1.9621,2.1159,2.2644,2.2754,2.3426,2.343,2.2971,2.263,2.2599,2.2525,2.2517,2.2497,2.2493,2.2493,2.2493,2.3,2.3008,2.3057,2.3081,2.309,2.3146,2.3171,2.3171,2.3171,2.3171,2.3171,2.3171,2.3171,2.3171,2.3171,2.3171,2.3163,2.3114,2.3114,2.3163,2.3171,2.3171,2.3187,2.3284,2.3341,2.3358,2.3463,2.3498,2.3498,2.3498,2.3498,2.3498,2.3498,2.3498,2.3498,2.3498,2.3498,2.3498,2.3498,2.3498,2.3498,2.3498,2.3498,2.3498,2.3498,2.3498,2.3498,2.3498,2.3498,2.3482,2.3406,2.3371,2.3355,2.3209,2.3111,2.3081,2.3025,2.3,2.3,2.3,2.2992,2.3,2.2638,2.241,2.2351,2.1827,2.1524,2.1472,2.1324,2.1257,2.1108,2.0474,1.9686,1.9127,1.8919,1.9138,1.9605,1.9691,1.9569,1.9469,1.9658,1.9851,2.0025,2.0555,2.0676,2.0366,2.0314,2.0412,2.0805,2.0153,1.9934,2.0228,2.0394,2.0576,2.0799,2.0619,2.0505,2.0687,2.0649,2.033,2.0678,2.2418,2.3341,2.3438,2.3493,2.3507,2.3284,2.2887,2.2693,2.2602,2.2533,2.2491,2.25,2.2493,2.2489,2.3016,2.3049,2.3217,2.329,2.3314,2.3414,2.3482,2.3457,2.3465,2.3441,2.3425,2.3465,2.3433,2.3465,2.3433,2.3465,2.3455,2.3325,2.3333,2.3433,2.3457,2.3457,2.3449,2.3457,2.3465,2.3474,2.3498,2.3498,2.3498,2.3498,2.3498,2.3498,2.3498,2.3498,2.3498,2.3514,2.3514,2.353,2.3538,2.3538,2.3506,2.3547,2.3555,2.3538,2.353,2.3522,2.3514,2.3506,2.3498,2.3498,2.349,2.349,2.3457,2.3349,2.329,2.3266,2.3144,2.3025,2.3025,2.3041,2.3057,2.3057,2.2974,2.2968,2.2882,2.2554,2.2296,2.226,2.197,2.1714,2.1729,2.1639,2.1008,1.9557,1.9438,1.961,1.9764,1.9791,1.9742,1.9812,2.0237,2.0562,2.0744,2.1199,2.1502,2.1403,2.1525,2.1903,2.257,2.1418,2.0646,2.1138,2.1524,2.166,2.1638,2.1593,2.1593,2.1593,2.1457,2.1275,2.1722,2.2932,2.3333,2.3498,2.3498,2.3513,2.3455,2.3073,2.2855,2.2731,2.2632,2.2546,2.2477,2.2502,2.2483,2.3358,2.3366,2.3422,2.3447,2.3447,2.3474,2.3498,2.3498,2.3498,2.3498,2.3498,2.3498,2.3498,2.3498,2.3498,2.3498,2.349,2.3441,2.3449,2.349,2.3498,2.3498,2.3498,2.3498,2.3498,2.3498,2.3498,2.3498,2.3498,2.3498,2.3498,2.3498,2.3498,2.3498,2.3522,2.365,2.3693,2.3731,2.3837,2.3894,2.3894,2.3924,2.3924,2.3916,2.378,2.3723,2.3684,2.3601,2.3498,2.3498,2.3498,2.3498,2.3482,2.3449,2.3447,2.3439,2.3398,2.3328,2.3358,2.3328,2.3319,2.3358,2.3358,2.3328,2.3358,2.3218,2.307,2.3108,2.2983,2.2894,2.2924,2.2924,2.225,2.1008,2.0863,2.0862,2.0953,2.095,2.0774,2.0478,2.0903,2.1236,2.1411,2.1865,2.2107,2.185,2.2312,2.3091,2.3167,2.2744,2.1933,2.1812,2.2259,2.2608,2.2395,2.2289,2.235,2.2289,2.216,2.2138,2.2614,2.2946,2.3325,2.3506,2.3498,2.3501,2.3445,2.333,2.3098,2.2963,2.2898,2.2761,2.2566,2.2526,2.2565,2.3498,2.3498,2.3498,2.3498,2.3498,2.3498,2.3498,2.3498,2.3498,2.3498,2.3498,2.3498,2.3498,2.3498,2.3498,2.3498,2.3498,2.3498,2.3498,2.3498,2.3498,2.3498,2.3498,2.3498,2.3498,2.3498,2.3498,2.3498,2.3506,2.3571,2.3603,2.3603,2.3699,2.3731,2.3731,2.3837,2.3902,2.3918,2.4038,2.4126,2.4126,2.4126,2.4126,2.4079,2.3959,2.394,2.3894,2.378,2.3666,2.353,2.3498,2.3498,2.3498,2.3498,2.3498,2.3498,2.3498,2.349,2.3498,2.3474,2.3498,2.3498,2.3498,2.349,2.3498,2.3498,2.3498,2.3498,2.3468,2.3498,2.3468,2.3498,2.3105,2.241,2.2289,2.2304,2.2251,2.1843,2.1471,2.1199,2.1562,2.1865,2.2077,2.2471,2.2765,2.2546,2.2977,2.3498,2.3492,2.347,2.2887,2.2577,2.2895,2.3038,2.2962,2.2984,2.3105,2.2984,2.2825,2.2886,2.3166,2.3256,2.3498,2.3498,2.3498,2.3498,2.3466,2.348,2.3339,2.3241,2.3119,2.3033,2.2858,2.2767,2.2815,2.3498,2.3498,2.3498,2.3498,2.3498,2.3498,2.3498,2.3498,2.3498,2.3498,2.3498,2.3498,2.3498,2.3498,2.3498,2.3498,2.3498,2.3498,2.3498,2.3498,2.3498,2.3498,2.3498,2.3498,2.3514,2.3538,2.353,2.3538,2.3595,2.3755,2.382,2.3829,2.3973,2.4079,2.4054,2.4095,2.4111,2.4111,2.4136,2.416,2.416,2.4152,2.4152,2.4152,2.4127,2.4111,2.4072,2.4062,2.39,2.3571,2.3514,2.3498,2.3498,2.3498,2.3498,2.3498,2.3498,2.3498,2.3498,2.3498,2.3498,2.3498,2.3498,2.3498,2.3498,2.3498,2.3498,2.3498,2.3498,2.3498,2.3498,2.3498,2.3438,2.3468,2.3272,2.3296,2.3351,2.2441,2.1903,2.1835,2.2198,2.2622,2.2652,2.3136,2.3317,2.3377,2.3438,2.3468,2.3506,2.3484,2.3492,2.3462,2.3401,2.3341,2.3196,2.3226,2.3317,2.3287,2.3188,2.3278,2.3407,2.3468,2.3498,2.3498,2.3498,2.349,2.3512,2.3509,2.3469,2.3363,2.3303,2.3268,2.3206,2.3079,2.3055,2.3498,2.3498,2.3498,2.3498,2.3498,2.3498,2.3498,2.3498,2.3498,2.3498,2.3498,2.3498,2.3498,2.3498,2.3498,2.3498,2.3506,2.3506,2.3498,2.3498,2.3498,2.3498,2.3498,2.3506,2.3579,2.3684,2.3701,2.3796,2.3949,2.3997,2.3999,2.403,2.4087,2.4134,2.4103,2.4233,2.4259,2.426,2.4397,2.4438,2.4438,2.4438,2.4454,2.4446,2.4332,2.4275,2.4212,2.416,2.4006,2.3747,2.3563,2.3498,2.3514,2.3514,2.3514,2.3514,2.3498,2.3498,2.3498,2.3498,2.3498,2.3498,2.3498,2.3498,2.3498,2.3498,2.3498,2.3498,2.3498,2.3498,2.3498,2.3498,2.3498,2.3498,2.3506,2.3492,2.3448,2.325,2.2833,2.2531,2.2894,2.3136,2.3256,2.3347,2.3498,2.3498,2.3498,2.3498,2.3498,2.3498,2.3506,2.3506,2.3476,2.3476,2.3468,2.3468,2.3468,2.3468,2.3407,2.3407,2.3468,2.3498,2.3498,2.3498,2.3498,2.3498,2.3498,2.3512,2.3463,2.3685,2.3466,2.3447,2.3428,2.3338,2.3344,2.3498,2.3498,2.3498,2.3498,2.3498,2.3498,2.3498,2.3498,2.3498,2.3498,2.3498,2.3498,2.3498,2.3498,2.3498,2.3547,2.3634,2.3642,2.3691,2.3755,2.3764,2.3723,2.3652,2.3707,2.3812,2.3902,2.391,2.3997,2.4095,2.4137,2.417,2.4194,2.4251,2.4315,2.4339,2.4381,2.4446,2.4431,2.4543,2.4592,2.4592,2.4592,2.4592,2.4576,2.4486,2.4446,2.4421,2.4275,2.4097,2.3934,2.3812,2.3747,2.3747,2.3652,2.365,2.3642,2.3547,2.3498,2.3498,2.3498,2.3498,2.3498,2.3498,2.3498,2.3498,2.3498,2.3498,2.3498,2.3498,2.3498,2.3498,2.3498,2.3498,2.3498,2.3498,2.3506,2.3492,2.3484,2.3317,2.3166,2.3256,2.3498,2.3498,2.3498,2.3498,2.3498,2.3498,2.3498,2.3498,2.3498,2.3498,2.3498,2.3498,2.3498,2.3498,2.3498,2.3951,2.3951,2.3496,2.3504,2.3487,2.3496,2.3498,2.3498,2.3498,2.3498,2.3498,2.3761,2.4339,2.4352,2.3972,2.3676,2.3644,2.3485,2.3493,2.3498,2.3498,2.3498,2.3498,2.3498,2.3498,2.3498,2.3498,2.3498,2.3514,2.3538,2.3538,2.3609,2.3555,2.3628,2.3691,2.3829,2.3829,2.391,2.3991,2.4071,2.4007,2.3879,2.3989,2.4062,2.4111,2.4119,2.4152,2.4225,2.4308,2.4325,2.435,2.4503,2.4568,2.4535,2.4568,2.4584,2.4568,2.4576,2.4592,2.4592,2.4592,2.4592,2.4592,2.4584,2.456,2.4535,2.4406,2.4292,2.416,2.4119,2.4062,2.4054,2.3902,2.3837,2.3812,2.3707,2.3587,2.3538,2.3555,2.3514,2.3506,2.3498,2.3498,2.3498,2.3498,2.3498,2.3498,2.3498,2.3498,2.3498,2.3498,2.3498,2.3498,2.3498,2.3498,2.3498,2.3498,2.3498,2.3498,2.3498,2.3498,2.3498,2.3498,2.3498,2.3498,2.3498,2.3498,2.3498,2.3498,2.3498,2.3498,2.3498,2.3498,2.3498,2.3498,2.4162,2.4515,2.3772,2.3507,2.3504,2.3491,2.3496,2.3498,2.3498,2.3528,2.3558,2.4033,2.528,2.618,2.6549,2.5192,2.388,2.3611,2.3499,2.3498,2.3498,2.3498,2.3498,2.3498,2.3498,2.3506,2.3506,2.3506,2.3634,2.3693,2.3747,2.382,2.3965,2.3949,2.3975,2.4038,2.4046,2.4071,2.4103,2.4195,2.4228,2.4155,2.4176,2.4184,2.4243,2.4252,2.434,2.4454,2.4486,2.4535,2.4543,2.4551,2.4592,2.4592,2.4592,2.4592,2.4592,2.4592,2.4592,2.4592,2.4592,2.4592,2.4592,2.4592,2.4592,2.4592,2.456,2.4519,2.443,2.4266,2.4136,2.4119,2.4071,2.4038,2.4022,2.3997,2.3877,2.3772,2.3723,2.3674,2.3514,2.3498,2.3498,2.3498,2.3498,2.3498,2.3498,2.3498,2.3498,2.3498,2.3498,2.3498,2.3498,2.3498,2.3498,2.3498,2.3498,2.3498,2.3498,2.3498,2.3498,2.3498,2.3498,2.3498,2.3498,2.3498,2.3498,2.3498,2.3498,2.3498,2.3498,2.3498,2.3528,2.3709,2.4085,2.5211,2.5952,2.5428,2.6363,2.6267,2.5381,2.6078,2.5074,2.3498,2.3822,2.5129,2.6198,2.7807,2.8503,2.915,2.8177,2.7011,2.5567,2.5725,2.3498,2.3506,2.3595,2.3628,2.3674,2.3739,2.378,2.378,2.378,2.3829,2.394,2.3957,2.4014,2.4126,2.4095,2.4127,2.4202,2.4306,2.4347,2.4371,2.4421,2.4423,2.4446,2.4404,2.4373,2.4446,2.4454,2.4519,2.4576,2.4592,2.4584,2.4592,2.4592,2.4592,2.4592,2.4592,2.4592,2.4592,2.4592,2.4592,2.4592,2.4592,2.4592,2.4592,2.4592,2.4592,2.4592,2.4592,2.4592,2.4543,2.4445,2.4339,2.4292,2.4235,2.4194,2.4186,2.4127,2.4014,2.3853,2.3796,2.3715,2.3514,2.3498,2.3498,2.3498,2.3498,2.3498,2.3498,2.3498,2.3498,2.3498,2.3498,2.3498,2.3498,2.3498,2.3498,2.3498,2.3498,2.3498,2.3498,2.3498,2.3498,2.3498,2.3498,2.3498,2.3498,2.3498,2.3498,2.3498,2.3498,2.3498,2.3498,2.3498,2.3588,2.3822,2.4769,2.6464,2.7461,2.8088,3.0331,3.2333,3.0932,2.9579,2.7875,2.6153,2.7201,2.8424,2.9437,3.034,3.1386,3.1856,3.1447,3.0982,3.0075,3.0875,2.3609,2.3595,2.378,2.3845,2.3869,2.4022,2.4071,2.4079,2.4126,2.4087,2.4136,2.4136,2.4168,2.4184,2.4201,2.4243,2.4373,2.4486,2.4527,2.4543,2.4543,2.456,2.456,2.4551,2.4551,2.4592,2.4576,2.4592,2.4592,2.4592,2.4592,2.4592,2.4592,2.4592,2.4592,2.4592,2.4592,2.4592,2.4592,2.4592,2.4592,2.4592,2.4592,2.4592,2.4592,2.4592,2.4592,2.4592,2.4592,2.4592,2.4592,2.4592,2.456,2.447,2.4341,2.4333,2.4258,2.4087,2.391,2.382,2.3723,2.3514,2.3498,2.3498,2.3498,2.3498,2.3498,2.3498,2.3498,2.3498,2.3498,2.3498,2.3498,2.3498,2.3498,2.3498,2.3498,2.3498,2.3498,2.3498,2.3498,2.3498,2.3498,2.3498,2.3498,2.3498,2.3498,2.3498,2.3498,2.3498,2.3498,2.3498,2.3498,2.4597,2.5009,2.5661,2.7361,2.9573,3.0499,3.2927,3.6109,3.5345,3.3238,3.0812,2.9811,3.1031,3.1685,3.21,3.3104,3.4323,3.4751,3.4522,3.4481,3.4512,3.5429,2.4006,2.4006,2.4038,2.4046,2.4054,2.4087,2.4119,2.4126,2.4119,2.4193,2.4283,2.426,2.4373,2.4454,2.4526,2.4527,2.4535,2.4576,2.4592,2.4592,2.4592,2.4592,2.4592,2.4592,2.4592,2.4592,2.4592,2.4592,2.4592,2.4592,2.4592,2.4592,2.4592,2.4592,2.4655,2.4624,2.4718,2.4876,2.4844,2.4813,2.4813,2.4813,2.4813,2.4813,2.4844,2.4813,2.4718,2.4655,2.4592,2.4592,2.4592,2.4624,2.4584,2.4551,2.4535,2.4495,2.4381,2.4202,2.4054,2.3885,2.3731,2.3555,2.3498,2.3498,2.3498,2.3498,2.3498,2.3498,2.3498,2.3498,2.3498,2.3498,2.3498,2.3498,2.3498,2.3498,2.3498,2.3498,2.3498,2.3498,2.3498,2.3498,2.3498,2.3498,2.3498,2.3498,2.3498,2.3498,2.3498,2.3498,2.3498,2.3498,2.3498,2.5009,2.6432,2.7141,2.8494,3.1653,3.3102,3.4011,3.6547,3.7927,3.683,3.4293,3.4147,3.5696,3.5878,3.5142,3.4999,3.5536,3.6496,3.7455,3.7001,3.6534,3.703,2.4126,2.4103,2.4162,2.4202,2.4218,2.43,2.434,2.4371,2.4371,2.4381,2.4446,2.447,2.4511,2.4576,2.4592,2.4592,2.4592,2.4592,2.4592,2.4592,2.4592,2.4592,2.4592,2.4592,2.4592,2.4592,2.4592,2.4592,2.4592,2.4592,2.4592,2.4592,2.4592,2.475,2.5034,2.5128,2.5326,2.5475,2.5609,2.5609,2.5641,2.5641,2.5641,2.5641,2.5641,2.5641,2.5641,2.5641,2.5452,2.5223,2.5136,2.4939,2.4726,2.46,2.46,2.4584,2.4503,2.4332,2.4152,2.3967,2.3829,2.3538,2.3498,2.3498,2.3498,2.3498,2.3498,2.3498,2.3498,2.3498,2.3498,2.3498,2.3498,2.3498,2.3498,2.3498,2.3498,2.3498,2.3498,2.3498,2.3498,2.3498,2.3498,2.3498,2.3498,2.3498,2.3498,2.3498,2.3498,2.3498,2.3498,2.3498,2.3619,2.4979,2.6881,2.8395,2.9723,3.2825,3.5287,3.6221,3.6944,3.8298,3.8697,3.7574,3.8485,3.8692,3.8312,3.7001,3.6888,3.6746,3.75,3.8166,3.8456,3.866,3.8689,2.4201,2.4217,2.4324,2.4358,2.4374,2.4527,2.4584,2.4592,2.4584,2.4576,2.4592,2.4592,2.4584,2.4592,2.4592,2.4592,2.4592,2.4592,2.4592,2.4592,2.4592,2.4592,2.4592,2.4592,2.4592,2.4592,2.4592,2.4592,2.4592,2.4592,2.4592,2.4655,2.4687,2.5002,2.5443,2.5704,2.6144,2.6428,2.6773,2.6805,2.6962,2.7025,2.7025,2.7016,2.7025,2.6922,2.6742,2.6733,2.6396,2.5964,2.5643,2.5424,2.4973,2.4744,2.4649,2.4633,2.456,2.4363,2.4176,2.3934,2.3764,2.3522,2.3498,2.3498,2.3498,2.3498,2.3498,2.3498,2.3498,2.3498,2.3498,2.3498,2.3498,2.3498,2.3498,2.3498,2.3498,2.3498,2.3498,2.3498,2.3528,2.3671,2.3852,2.3498,2.3498,2.3498,2.3498,2.3498,2.3498,2.3498,2.3498,2.3498,2.3882,2.4988,2.6911,2.9426,3.1176,3.3759,3.6154,3.7694,3.8097,3.8631,3.8684,3.8695,3.8695,3.869,3.8686,3.8689,3.8124,3.7907,3.8456,3.8689,3.8689,3.8689,3.8689,2.4527,2.4535,2.4551,2.456,2.456,2.4584,2.4592,2.4592,2.4592,2.4592,2.4592,2.4592,2.4592,2.4592,2.4592,2.4592,2.4592,2.4592,2.4592,2.4592,2.4592,2.4592,2.4592,2.4592,2.4592,2.4592,2.4592,2.4592,2.4592,2.4592,2.4592,2.4655,2.5128,2.5538,2.5767,2.6365,2.6522,2.6742,2.7267,2.7854,2.8355,2.8439,2.8511,2.848,2.848,2.8292,2.7926,2.78,2.7361,2.6634,2.6118,2.5846,2.5672,2.5154,2.4931,2.4729,2.4477,2.4136,2.4062,2.3837,2.3628,2.3522,2.3498,2.3498,2.3498,2.3498,2.3498,2.3498,2.3498,2.3498,2.3498,2.3498,2.3498,2.3498,2.3498,2.3498,2.3558,2.5552,2.5332,2.4687,2.5069,2.4657,2.4476,2.3942,2.3498,2.3498,2.3498,2.349,2.3512,2.3504,2.4962,2.5422,2.567,2.6671,2.8007,3.0376,3.2269,3.4692,3.6746,3.866,3.8689,3.8689,3.8689,3.8686,3.8689,3.8689,3.8689,3.8689,3.8689,3.8689,3.8689,3.8689,3.8689,3.8689,3.8689,2.4592,2.4592,2.4592,2.4592,2.4592,2.4592,2.4592,2.4592,2.4592,2.4592,2.4592,2.4592,2.4592,2.4592,2.4592,2.4592,2.4592,2.4592,2.4592,2.4655,2.4655,2.4655,2.4592,2.4592,2.4592,2.4592,2.4592,2.4592,2.4592,2.4592,2.4592,2.4718,2.5286,2.583,2.6239,2.7213,2.7863,2.8521,2.9303,2.998,3.0323,3.0634,3.0852,3.0852,3.0852,3.0447,2.9949,2.9418,2.8762,2.7868,2.6991,2.617,2.5732,2.5232,2.4859,2.4713,2.4421,2.4186,2.4079,2.382,2.3636,2.3522,2.3498,2.3498,2.3498,2.3498,2.3498,2.3498,2.3498,2.3498,2.3498,2.3498,2.3498,2.349,2.3496,2.3964,2.4674,2.7173,2.8092,2.7296,2.6641,2.6641,2.6201,2.519,2.4391,2.3501,2.3501,2.3518,2.3485,2.3491,2.564,2.8322,2.8533,2.8871,3.0228,3.1974,3.3124,3.519,3.7021,3.8485,3.866,3.8689,3.8689,3.8689,3.8689,3.8689,3.8689,3.8689,3.8689,3.8689,3.8689,3.8689,3.8689,3.8689,3.8689,2.4592,2.4592,2.4592,2.4592,2.4592,2.4592,2.4592,2.4592,2.4592,2.4592,2.4592,2.4592,2.4592,2.4592,2.4592,2.4592,2.4592,2.4592,2.4592,2.4687,2.5151,2.5246,2.5151,2.5025,2.534,2.4592,2.4592,2.4592,2.4592,2.4592,2.4592,2.4655,2.5546,2.6207,2.7056,2.8114,2.9084,3.0052,3.108,3.1827,3.2355,3.2975,3.3315,3.347,3.3377,3.3037,3.2355,3.1443,3.0447,2.9175,2.7804,2.6836,2.611,2.5376,2.4915,2.4681,2.4431,2.4267,2.4137,2.3967,2.3788,2.3628,2.3506,2.3498,2.3498,2.3498,2.3498,2.3498,2.3498,2.3498,2.3649,2.4003,2.4172,2.3928,2.3504,2.4237,2.5511,2.8543,3.0126,2.9279,2.904,2.9772,2.895,2.7111,2.5596,2.3955,2.3513,2.3838,2.4126,2.4632,2.7778,3.1164,3.2679,3.2136,3.1265,3.2741,3.4094,3.5641,3.7442,3.8427,3.8631,3.8689,3.8689,3.8689,3.8689,3.8689,3.8689,3.8689,3.8689,3.8689,3.8689,3.8689,3.8689,3.8689,3.8689,2.4592,2.4592,2.4592,2.4592,2.4592,2.4592,2.4592,2.4592,2.4592,2.4592,2.4592,2.4592,2.4592,2.4592,2.4592,2.4592,2.4592,2.4592,2.497,2.5773,2.6738,2.655,2.6213,2.6339,2.659,2.4907,2.4592,2.4592,2.475,2.5183,2.4876,2.4781,2.6081,2.6859,2.7738,2.8887,3.0208,3.1236,3.223,3.3191,3.4026,3.486,3.5475,3.5845,3.5599,3.5075,3.4397,3.316,3.1847,3.0489,2.8656,2.737,2.6516,2.5496,2.4923,2.4714,2.4527,2.4341,2.4283,2.4152,2.3989,2.3796,2.3644,2.3563,2.3547,2.3514,2.3506,2.386,2.4265,2.4274,2.4687,2.5211,2.5997,2.5683,2.6054,2.778,2.9119,3.0726,3.1944,3.1168,3.156,3.2682,3.2888,3.1353,2.8395,2.6671,2.7918,2.8275,2.7236,2.7832,3.12,3.4329,3.6667,3.5863,3.2314,3.3271,3.5436,3.6454,3.7645,3.8327,3.866,3.8689,3.8689,3.8689,3.8689,3.8689,3.8689,3.8689,3.8689,3.8689,3.8689,3.8689,3.8689,3.8689,3.8689,2.4592,2.4592,2.4592,2.4592,2.4592,2.4592,2.4592,2.4592,2.4592,2.4592,2.4592,2.4592,2.4592,2.4592,2.4592,2.4592,2.4876,2.6518,2.6769,2.7271,2.7889,2.7857,2.7303,2.6276,2.5466,2.4907,2.4687,2.4592,2.4687,2.6244,2.6958,2.7218,2.7478,2.7236,2.8114,2.9781,3.1194,3.219,3.3171,3.4192,3.4675,3.606,3.6888,3.7041,3.7482,3.6992,3.6244,3.4675,3.3273,3.1547,2.9317,2.7908,2.6752,2.5566,2.4922,2.473,2.4543,2.4495,2.439,2.4274,2.4062,2.4022,2.3894,2.3812,2.3715,2.3729,2.4638,2.522,2.5898,2.6226,2.8255,2.901,2.9247,2.8465,2.9206,3.1214,3.2768,3.4153,3.4235,3.3676,3.488,3.6308,3.625,3.5887,3.2585,2.9767,3.1383,3.2506,3.1476,3.1047,3.4188,3.5926,3.7938,3.8711,3.5397,3.5945,3.7109,3.75,3.7936,3.8298,3.8689,3.8689,3.8689,3.8689,3.8689,3.8689,3.8689,3.8689,3.8689,3.8689,3.8689,3.8689,3.8689,3.8689,3.8689,2.4592,2.4592,2.4592,2.4592,2.4592,2.4592,2.4592,2.4592,2.4592,2.4592,2.4592,2.4592,2.4592,2.4592,2.4592,2.5372,2.6181,2.7553,2.8296,2.8849,2.9286,2.8733,2.7732,2.7388,2.7513,2.6276,2.6801,2.724,2.7607,2.8974,2.9566,2.9701,2.9711,2.9773,2.9709,3.084,3.2306,3.2984,3.3815,3.4841,3.5225,3.6411,3.7852,3.798,3.834,3.8094,3.7348,3.6029,3.4416,3.2469,3.0298,2.8162,2.6839,2.5725,2.4888,2.4704,2.4655,2.4687,2.4574,2.4348,2.4184,2.4137,2.4087,2.4014,2.401,2.449,2.6141,2.7071,2.804,2.945,3.1454,3.1662,3.1313,3.0548,3.2978,3.4951,3.6057,3.7233,3.6777,3.6321,3.7513,3.8037,3.7891,3.7471,3.6154,3.3759,3.468,3.5827,3.5886,3.5766,3.6764,3.7892,3.843,3.8695,3.8515,3.8182,3.782,3.8007,3.8356,3.8456,3.8689,3.8689,3.8689,3.8689,3.8689,3.8689,3.8689,3.8718,3.8689,3.8689,3.8689,3.8689,3.8689,3.8689,3.8689,2.4592,2.4592,2.4592,2.4592,2.4592,2.4592,2.4592,2.4592,2.4592,2.4592,2.4592,2.4592,2.4592,2.4687,2.4907,2.6244,2.792,2.8849,2.9286,2.9691,3.1391,2.941,2.8577,2.8817,2.9909,2.9504,2.9971,3.0905,3.1619,3.2136,3.2352,3.2827,3.3229,3.3366,3.2603,3.2746,3.3066,3.3375,3.4038,3.4898,3.5815,3.6649,3.7816,3.8647,3.8778,3.8488,3.8002,3.6931,3.5352,3.3636,3.1423,2.9541,2.8289,2.6679,2.5798,2.5592,2.5372,2.5191,2.4922,2.4633,2.484,2.4472,2.4243,2.416,2.4628,2.597,2.7427,2.7914,3.0158,3.1442,3.2656,3.3628,3.3361,3.3829,3.6204,3.7315,3.8279,3.8677,3.7973,3.76,3.8153,3.866,3.8631,3.8573,3.8485,3.7965,3.8385,3.87,3.8708,3.8679,3.8695,3.8711,3.87,3.8686,3.8689,3.8689,3.8573,3.8689,3.8689,3.8689,3.8689,3.8689,3.8689,3.8689,3.8689,3.8689,3.8718,3.8718,3.8863,3.8979,3.8747,3.8689,3.8689,3.8704,3.872,2.4592,2.4592,2.4592,2.4592,2.4592,2.4592,2.4592,2.4592,2.4592,2.4592,2.4592,2.4592,2.4592,2.5002,2.659,2.792,2.9067,3.3053,3.3423,3.1609,3.362,3.2786,3.1485,3.1112,3.2115,3.1671,3.2352,3.2909,3.2332,3.4144,3.5067,3.5478,3.6116,3.6205,3.4974,3.4303,3.3779,3.3997,3.4326,3.4757,3.5682,3.6637,3.7578,3.8627,3.8667,3.8589,3.8468,3.7323,3.6152,3.494,3.288,3.1702,3.0832,2.9514,2.9535,2.9597,2.9691,2.9847,2.9837,2.9572,2.7881,2.6114,2.4931,2.4917,2.4641,2.6751,2.7726,2.9224,3.2479,3.3899,3.4766,3.6748,3.7098,3.6891,3.8143,3.8205,3.869,3.8692,3.8427,3.8369,3.8689,3.8689,3.8689,3.8689,3.8689,3.8689,3.8689,3.8689,3.8713,3.87,3.87,3.8686,3.8702,3.8702,3.8689,3.8689,3.8689,3.8689,3.8689,3.8689,3.8689,3.8689,3.8689,3.8689,3.8689,3.8689,3.8934,3.9137,3.9268,3.9284,3.901,3.8751,3.8695,3.8711,3.8713,2.4592,2.4592,2.4592,2.4592,2.4592,2.4592,2.4592,2.4592,2.4592,2.4592,2.4781,2.5498,2.6056,2.6832,2.8577,3.0864,3.1516,3.3373,3.5774,3.3743,3.436,3.3465,3.2786,3.3465,3.4082,3.4051,3.4894,3.549,3.5859,3.7115,3.7756,3.8074,3.8496,3.8185,3.7147,3.6112,3.4892,3.5034,3.5169,3.5401,3.6023,3.6594,3.72,3.7926,3.825,3.8254,3.8288,3.7759,3.6919,3.6078,3.5083,3.4024,3.3457,3.2858,3.2631,3.2507,3.2476,3.2352,3.2167,3.2105,3.0159,2.8267,2.7397,2.7271,2.7661,3.0238,3.1131,3.267,3.5064,3.6242,3.724,3.9342,3.9309,3.9009,3.8966,3.904,3.902,3.9036,3.8833,3.882,3.8729,3.8729,3.8689,3.8689,3.8689,3.8689,3.8689,3.8689,3.8689,3.8689,3.8689,3.8689,3.8689,3.8689,3.8689,3.8689,3.8689,3.8689,3.8689,3.8689,3.8689,3.8689,3.8689,3.8718,3.8747,3.8892,3.934,3.96,3.9746,3.9561,3.9145,3.8944,3.8759,3.9133,3.9578,2.4592,2.4592,2.4592,2.4592,2.4592,2.4592,2.4592,2.4655,2.4781,2.4813,2.4718,2.724,2.7764,2.8546,3.0874,3.2786,3.4513,3.3527,3.4329,3.5171,3.5017,3.3785,3.4206,3.5374,3.6337,3.7463,3.8209,3.8709,4.0104,3.9696,3.9848,4.0013,3.9574,3.9502,3.8809,3.7899,3.6681,3.655,3.6294,3.6599,3.7027,3.6659,3.7443,3.8023,3.8138,3.8175,3.832,3.833,3.7936,3.7256,3.6373,3.5533,3.4598,3.3507,3.3044,3.2971,3.3311,3.36,3.3774,3.4001,3.3743,3.2847,3.2786,3.2713,3.2486,3.3234,3.3897,3.5123,3.7095,3.8324,3.9643,3.9757,3.99,3.9737,3.962,3.9599,3.953,3.9412,3.9137,3.8991,3.8876,3.8795,3.8715,3.8689,3.8715,3.8689,3.8689,3.8689,3.8689,3.8689,3.8689,3.8689,3.8689,3.8689,3.8689,3.8689,3.8689,3.8689,3.8689,3.8689,3.8689,3.8689,3.8689,3.8718,3.8818,3.9237,4.0234,4.0423,4.0224,3.9981,3.9923,3.9623,3.958,4.0828,4.146,2.4592,2.4592,2.4592,2.4592,2.4592,2.4592,2.4592,2.4813,2.6455,2.6527,2.4781,2.7428,2.7741,2.6119,2.8505,3.0211,3.197,3.3423,3.399,3.4821,3.6257,3.6319,3.6839,3.7738,3.8983,3.9453,4.0043,4.0512,4.039,4.0512,4.0512,4.036,4.0265,4.0273,4.0006,3.9516,3.8847,3.823,3.7808,3.7832,3.803,3.7758,3.8289,3.8412,3.8381,3.8446,3.8577,3.8671,3.8369,3.8155,3.8325,3.813,3.8069,3.8087,3.8239,3.8239,3.83,3.83,3.8178,3.8117,3.783,3.7555,3.7708,3.5478,3.4729,3.4821,3.6,3.6992,3.8361,3.9517,3.9616,3.9637,3.996,4.0164,4.006,4.004,4.0016,3.9928,3.9667,3.9273,3.9116,3.8929,3.8836,3.8742,3.8769,3.8715,3.8689,3.8689,3.8689,3.8689,3.8689,3.8689,3.8689,3.8689,3.8689,3.8689,3.8689,3.8689,3.8689,3.8689,3.8689,3.8689,3.8689,3.8963,3.9396,4.0406,4.1661,4.1489,4.0944,4.1216,4.1216,4.0758,4.0657,4.169,4.2395,2.4592,2.4592,2.4592,2.4592,2.4592,2.4592,2.4592,2.4931,2.633,2.5993,2.5025,2.7419,2.771,2.7052,2.9192,3.1112,3.2476,3.3558,3.4821,3.7524,3.7995,3.8105,3.8696,3.9513,4.0073,4.0512,4.0512,4.0512,4.0512,4.0512,4.0512,4.0525,4.0592,4.0677,4.0655,4.0674,4.0633,3.999,3.9432,3.9085,3.896,3.8823,3.8768,3.8977,3.8837,3.8722,3.9011,3.8964,3.9009,3.9235,3.98,3.9861,3.9861,4.0195,4.0347,4.0134,4.0073,3.9982,3.9922,4.0073,4.036,4.0512,4.0481,3.8861,3.7708,3.7586,3.7433,3.7616,3.9075,4.0121,3.9665,3.9409,3.9969,4.0485,4.0468,4.0482,4.0481,4.0466,4.0098,3.9659,3.937,3.9156,3.9022,3.8916,3.8795,3.8729,3.8689,3.8689,3.8689,3.8689,3.8689,3.8689,3.8689,3.8689,3.8689,3.8689,3.8689,3.8689,3.8689,3.8689,3.8689,3.8689,3.8689,3.9396,4.0219,4.1228,4.2165,4.2049,4.1733,4.1962,4.2048,4.169,4.1432,4.1862,4.2379,2.4592,2.4592,2.4592,2.4592,2.4592,2.4592,2.4592,2.4655,2.5183,2.4813,2.5246,2.7732,2.888,2.8608,3.0718,3.2971,3.3712,3.4175,3.5877,3.9982,3.8575,3.8544,3.9726,4.0512,4.0512,4.0512,4.0512,4.0512,4.0512,4.0512,4.0525,4.0538,4.0748,4.0919,4.1124,4.1323,4.1269,4.1027,4.0338,3.9809,3.9627,3.92,3.8736,3.9152,3.8986,3.8716,3.9525,3.9836,3.9861,4.0256,4.0451,4.0421,4.0451,4.0438,4.0481,4.0512,4.0512,4.0512,4.0512,4.0512,4.0512,4.0512,4.0481,4.0073,3.9513,3.9257,3.8892,3.8801,4.0104,4.0347,4.0043,3.9952,4.0299,4.0512,4.0519,4.0495,4.0502,4.0458,4.0237,3.987,3.9663,3.945,3.9263,3.9156,3.8948,3.882,3.8711,3.8682,3.8702,3.8702,3.8689,3.8689,3.8689,3.8689,3.8689,3.8689,3.8689,3.8689,3.8689,3.8689,3.8689,3.8689,3.8689,3.9369,4.0106,4.1373,4.2194,4.2106,4.212,4.2206,4.2277,4.2349,4.2377,4.2335,4.2363,2.4592,2.4592,2.4592,2.4592,2.4592,2.4592,2.4624,2.4813,2.6832,2.6487,2.575,2.9067,3.0438,2.9442,3.1402,3.328,3.362,3.5067,3.6245,3.8227,3.8514,3.927,4.033,4.0512,4.0512,4.0512,4.0512,4.0512,4.0512,4.0495,4.0588,4.0775,4.0909,4.1025,4.1252,4.1425,4.1452,4.1381,4.0938,4.0492,4.0382,4.044,4.0321,4.0194,3.9888,3.9779,4.0271,4.0292,4.033,4.0481,4.0481,4.0481,4.0512,4.0512,4.0512,4.0512,4.0512,4.0512,4.0512,4.0512,4.0512,4.0512,4.0512,4.0512,4.0451,4.0512,4.0512,4.0512,4.0512,4.0512,4.0512,4.0512,4.0512,4.0512,4.0512,4.0512,4.0512,4.0421,4.0304,4.0154,3.996,3.9757,3.9543,3.9367,3.9145,3.898,3.8772,3.8693,3.8695,3.8686,3.8689,3.8689,3.8689,3.8689,3.8689,3.8689,3.8689,3.8689,3.8689,3.8689,3.8718,3.8691,3.8738,3.9114,3.9834,4.1143,4.2107,4.2307,4.2335,4.2392,4.2377,4.2377,4.2377,4.2377,4.2377,2.4592,2.4592,2.4592,2.4592,2.4592,2.4592,2.5214,2.6527,2.7983,2.8483,2.8389,3.0967,3.164,3.0397,3.195,3.365,3.4298,3.5724,3.739,3.8666,3.9348,4.0073,4.0512,4.0512,4.0512,4.0512,4.0512,4.0512,4.0512,4.0481,4.0588,4.0775,4.0842,4.0985,4.1172,4.1225,4.1252,4.1118,4.0958,4.0882,4.0788,4.0708,4.0668,4.0538,4.0512,4.0512,4.0512,4.0512,4.0512,4.0512,4.0512,4.0512,4.0512,4.0512,4.0512,4.0512,4.0512,4.0512,4.0512,4.0512,4.0512,4.0512,4.0512,4.0512,4.0512,4.0512,4.0512,4.0512,4.0512,4.0512,4.0512,4.0512,4.0512,4.0512,4.0512,4.0512,4.0512,4.0458,4.0421,4.0338,4.0201,4.0094,3.9877,3.9757,3.9537,3.9268,3.9027,3.8734,3.8738,3.8682,3.8713,3.8702,3.8702,3.8702,3.8689,3.8689,3.8689,3.8689,3.8689,3.8791,3.8865,3.874,3.8786,3.9376,4.0038,4.0986,4.1762,4.2221,4.2407,4.2377,4.2377,4.2377,4.2377,4.2377,4.2377,2.4592,2.4592,2.4592,2.4592,2.4718,2.5057,2.6401,2.8421,2.941,3.0988,3.2786,3.3465,3.3373,3.3064,3.362,3.5233,3.6552,3.7451,3.8831,3.9665,4.0286,4.0512,4.0512,4.0512,4.0512,4.0512,4.0512,4.0512,4.0512,4.0548,4.0628,4.0642,4.0815,4.0998,4.1065,4.1172,4.1305,4.1118,4.0972,4.0869,4.0695,4.0538,4.0525,4.0512,4.0512,4.0512,4.0512,4.0512,4.0512,4.0512,4.0512,4.0512,4.0512,4.0512,4.0512,4.0512,4.0512,4.0512,4.0512,4.0512,4.0512,4.0512,4.0512,4.0512,4.0512,4.0512,4.0512,4.0512,4.0512,4.0512,4.0512,4.0512,4.0512,4.0512,4.0512,4.0512,4.0512,4.0512,4.0498,4.0485,4.0388,4.0308,4.0197,4.0064,3.989,3.9607,3.9361,3.9011,3.8793,3.8735,3.8687,3.8708,3.8684,3.87,3.8702,3.8689,3.8689,3.8689,3.8718,3.8894,3.9199,3.9804,4.005,3.9808,4.0541,4.1432,4.1891,4.2321,4.2393,4.2377,4.2377,4.2377,4.2377,4.2377,4.2377,2.4592,2.4592,2.4592,2.4655,2.5025,2.6926,2.817,2.9286,3.3238,3.5374,3.6061,3.786,3.7995,3.5877,3.8209,3.927,3.8801,3.9257,3.9605,4.0421,4.0512,4.0512,4.0512,4.0512,4.0512,4.0512,4.0512,4.0512,4.0575,4.0735,4.0905,4.1092,4.1416,4.155,4.159,4.1617,4.1483,4.1252,4.1172,4.1105,4.0998,4.0815,4.0538,4.0512,4.0512,4.0512,4.0512,4.0512,4.0512,4.0512,4.0512,4.0512,4.0512,4.0512,4.0512,4.0512,4.0512,4.0512,4.0512,4.0512,4.0512,4.0512,4.0512,4.0512,4.0512,4.0512,4.0512,4.0512,4.0512,4.0512,4.0512,4.0512,4.0512,4.0512,4.0512,4.0512,4.0512,4.0512,4.0498,4.0498,4.0485,4.0414,4.0401,4.0338,4.0318,4.0147,4.0103,3.9749,3.9098,3.8899,3.8788,3.8767,3.8775,3.8713,3.8689,3.8689,3.8689,3.8689,3.895,3.9457,4.0293,4.1531,4.1675,4.1072,4.1274,4.2035,4.2379,4.2407,4.2378,4.2377,4.2377,4.2377,4.2377,4.2377,4.2377]}]]